<?xml version="1.0" encoding="UTF-8" standalone="no" ?>
<gpx xmlns="http://www.topografix.com/GPX/1/1" xmlns:xsi="http://www.w3.org/2001/XMLSchema-instance" xsi:schemaLocation="http://www.topografix.com/GPX/1/1 http://www.topografix.com/GPX/1/1/gpx.xsd" version="1.1" creator="VisuGPX - https://www.visugpx.com">
  <metadata>
    <name>pic de la Sabine</name>
  </metadata>
  <trk>
    <name><![CDATA[pic de la Sabine_1]]></name>
    <extensions>
      <line xmlns="http://www.topografix.com/GPX/gpx_style/0/2">
        <color>00FF00</color>
        <width>4</width>
      </line>
    </extensions>
    <trkseg>
      <trkpt lat="42.66232" lon="1.60799">
        <ele>1973</ele>
        <time>2021-07-01T08:54:27Z</time>
      </trkpt>
      <trkpt lat="42.66232" lon="1.60799">
        <ele>1973</ele>
        <time>2021-07-01T08:54:27Z</time>
      </trkpt>
      <trkpt lat="42.66232" lon="1.60799">
        <ele>1973</ele>
        <time>2021-07-01T08:54:28Z</time>
      </trkpt>
      <trkpt lat="42.66228" lon="1.60796">
        <ele>1973</ele>
        <time>2021-07-01T08:55:03Z</time>
      </trkpt>
      <trkpt lat="42.66227" lon="1.60792">
        <ele>1971</ele>
        <time>2021-07-01T08:55:07Z</time>
      </trkpt>
      <trkpt lat="42.66224" lon="1.60789">
        <ele>1971</ele>
        <time>2021-07-01T08:55:11Z</time>
      </trkpt>
      <trkpt lat="42.66225" lon="1.60787">
        <ele>1972</ele>
        <time>2021-07-01T08:56:12Z</time>
      </trkpt>
      <trkpt lat="42.66224" lon="1.60781">
        <ele>1974</ele>
        <time>2021-07-01T08:56:40Z</time>
      </trkpt>
      <trkpt lat="42.66222" lon="1.60777">
        <ele>1974</ele>
        <time>2021-07-01T08:56:48Z</time>
      </trkpt>
      <trkpt lat="42.66221" lon="1.60774">
        <ele>1975</ele>
        <time>2021-07-01T08:56:52Z</time>
      </trkpt>
      <trkpt lat="42.66219" lon="1.60772">
        <ele>1975</ele>
        <time>2021-07-01T08:57:04Z</time>
      </trkpt>
      <trkpt lat="42.66217" lon="1.6077">
        <ele>1975</ele>
        <time>2021-07-01T08:57:07Z</time>
      </trkpt>
      <trkpt lat="42.66215" lon="1.60766">
        <ele>1975</ele>
        <time>2021-07-01T08:57:13Z</time>
      </trkpt>
      <trkpt lat="42.66213" lon="1.60762">
        <ele>1976</ele>
        <time>2021-07-01T08:57:16Z</time>
      </trkpt>
      <trkpt lat="42.66212" lon="1.60759">
        <ele>1976</ele>
        <time>2021-07-01T08:57:19Z</time>
      </trkpt>
      <trkpt lat="42.66214" lon="1.60752">
        <ele>1976</ele>
        <time>2021-07-01T08:57:25Z</time>
      </trkpt>
      <trkpt lat="42.66212" lon="1.6074">
        <ele>1974</ele>
        <time>2021-07-01T08:57:34Z</time>
      </trkpt>
      <trkpt lat="42.6621" lon="1.60736">
        <ele>1974</ele>
        <time>2021-07-01T08:57:37Z</time>
      </trkpt>
      <trkpt lat="42.6621" lon="1.60733">
        <ele>1975</ele>
        <time>2021-07-01T08:57:40Z</time>
      </trkpt>
      <trkpt lat="42.6621" lon="1.60728">
        <ele>1975</ele>
        <time>2021-07-01T08:57:43Z</time>
      </trkpt>
      <trkpt lat="42.6621" lon="1.60724">
        <ele>1975</ele>
        <time>2021-07-01T08:57:46Z</time>
      </trkpt>
      <trkpt lat="42.66207" lon="1.60715">
        <ele>1973</ele>
        <time>2021-07-01T08:57:52Z</time>
      </trkpt>
      <trkpt lat="42.66206" lon="1.60707">
        <ele>1973</ele>
        <time>2021-07-01T08:57:58Z</time>
      </trkpt>
      <trkpt lat="42.66206" lon="1.60702">
        <ele>1973</ele>
        <time>2021-07-01T08:58:01Z</time>
      </trkpt>
      <trkpt lat="42.66205" lon="1.60698">
        <ele>1973</ele>
        <time>2021-07-01T08:58:04Z</time>
      </trkpt>
      <trkpt lat="42.66203" lon="1.60694">
        <ele>1973</ele>
        <time>2021-07-01T08:58:07Z</time>
      </trkpt>
      <trkpt lat="42.66197" lon="1.60676">
        <ele>1973</ele>
        <time>2021-07-01T08:58:19Z</time>
      </trkpt>
      <trkpt lat="42.66195" lon="1.60672">
        <ele>1972</ele>
        <time>2021-07-01T08:58:22Z</time>
      </trkpt>
      <trkpt lat="42.66188" lon="1.60663">
        <ele>1972</ele>
        <time>2021-07-01T08:58:31Z</time>
      </trkpt>
      <trkpt lat="42.66185" lon="1.60659">
        <ele>1972</ele>
        <time>2021-07-01T08:58:35Z</time>
      </trkpt>
      <trkpt lat="42.66184" lon="1.60655">
        <ele>1971</ele>
        <time>2021-07-01T08:58:39Z</time>
      </trkpt>
      <trkpt lat="42.66181" lon="1.60653">
        <ele>1971</ele>
        <time>2021-07-01T08:58:42Z</time>
      </trkpt>
      <trkpt lat="42.66182" lon="1.60649">
        <ele>1971</ele>
        <time>2021-07-01T08:58:46Z</time>
      </trkpt>
      <trkpt lat="42.66179" lon="1.60649">
        <ele>1971</ele>
        <time>2021-07-01T08:59:21Z</time>
      </trkpt>
      <trkpt lat="42.66175" lon="1.60648">
        <ele>1972</ele>
        <time>2021-07-01T08:59:25Z</time>
      </trkpt>
      <trkpt lat="42.66173" lon="1.60646">
        <ele>1972</ele>
        <time>2021-07-01T08:59:28Z</time>
      </trkpt>
      <trkpt lat="42.66172" lon="1.60643">
        <ele>1973</ele>
        <time>2021-07-01T08:59:32Z</time>
      </trkpt>
      <trkpt lat="42.66169" lon="1.60639">
        <ele>1974</ele>
        <time>2021-07-01T08:59:35Z</time>
      </trkpt>
      <trkpt lat="42.66167" lon="1.60636">
        <ele>1974</ele>
        <time>2021-07-01T08:59:39Z</time>
      </trkpt>
      <trkpt lat="42.66166" lon="1.60633">
        <ele>1974</ele>
        <time>2021-07-01T08:59:43Z</time>
      </trkpt>
      <trkpt lat="42.66166" lon="1.60629">
        <ele>1975</ele>
        <time>2021-07-01T08:59:46Z</time>
      </trkpt>
      <trkpt lat="42.66168" lon="1.60626">
        <ele>1974</ele>
        <time>2021-07-01T08:59:50Z</time>
      </trkpt>
      <trkpt lat="42.66168" lon="1.60622">
        <ele>1974</ele>
        <time>2021-07-01T08:59:54Z</time>
      </trkpt>
      <trkpt lat="42.66165" lon="1.60619">
        <ele>1975</ele>
        <time>2021-07-01T08:59:57Z</time>
      </trkpt>
      <trkpt lat="42.66165" lon="1.60615">
        <ele>1974</ele>
        <time>2021-07-01T09:00:01Z</time>
      </trkpt>
      <trkpt lat="42.66164" lon="1.60612">
        <ele>1974</ele>
        <time>2021-07-01T09:00:03Z</time>
      </trkpt>
      <trkpt lat="42.66164" lon="1.60609">
        <ele>1974</ele>
        <time>2021-07-01T09:00:07Z</time>
      </trkpt>
      <trkpt lat="42.66165" lon="1.60601">
        <ele>1974</ele>
        <time>2021-07-01T09:00:14Z</time>
      </trkpt>
      <trkpt lat="42.66166" lon="1.60594">
        <ele>1975</ele>
        <time>2021-07-01T09:00:21Z</time>
      </trkpt>
      <trkpt lat="42.66166" lon="1.6059">
        <ele>1976</ele>
        <time>2021-07-01T09:00:24Z</time>
      </trkpt>
      <trkpt lat="42.66166" lon="1.60586">
        <ele>1976</ele>
        <time>2021-07-01T09:00:29Z</time>
      </trkpt>
      <trkpt lat="42.66166" lon="1.60582">
        <ele>1976</ele>
        <time>2021-07-01T09:00:32Z</time>
      </trkpt>
      <trkpt lat="42.66165" lon="1.60574">
        <ele>1976</ele>
        <time>2021-07-01T09:00:46Z</time>
      </trkpt>
      <trkpt lat="42.66164" lon="1.60572">
        <ele>1976</ele>
        <time>2021-07-01T09:00:48Z</time>
      </trkpt>
      <trkpt lat="42.66163" lon="1.60567">
        <ele>1975</ele>
        <time>2021-07-01T09:00:51Z</time>
      </trkpt>
      <trkpt lat="42.66161" lon="1.60561">
        <ele>1975</ele>
        <time>2021-07-01T09:00:56Z</time>
      </trkpt>
      <trkpt lat="42.66161" lon="1.60557">
        <ele>1975</ele>
        <time>2021-07-01T09:01:00Z</time>
      </trkpt>
      <trkpt lat="42.66161" lon="1.60553">
        <ele>1975</ele>
        <time>2021-07-01T09:01:03Z</time>
      </trkpt>
      <trkpt lat="42.6616" lon="1.60549">
        <ele>1976</ele>
        <time>2021-07-01T09:01:06Z</time>
      </trkpt>
      <trkpt lat="42.6616" lon="1.60546">
        <ele>1977</ele>
        <time>2021-07-01T09:01:51Z</time>
      </trkpt>
      <trkpt lat="42.66166" lon="1.60539">
        <ele>1976</ele>
        <time>2021-07-01T09:02:04Z</time>
      </trkpt>
      <trkpt lat="42.66168" lon="1.60531">
        <ele>1975</ele>
        <time>2021-07-01T09:02:14Z</time>
      </trkpt>
      <trkpt lat="42.66168" lon="1.60527">
        <ele>1975</ele>
        <time>2021-07-01T09:02:32Z</time>
      </trkpt>
      <trkpt lat="42.66169" lon="1.60523">
        <ele>1975</ele>
        <time>2021-07-01T09:02:37Z</time>
      </trkpt>
      <trkpt lat="42.66169" lon="1.60518">
        <ele>1975</ele>
        <time>2021-07-01T09:02:40Z</time>
      </trkpt>
      <trkpt lat="42.66171" lon="1.60513">
        <ele>1975</ele>
        <time>2021-07-01T09:02:44Z</time>
      </trkpt>
      <trkpt lat="42.66172" lon="1.60508">
        <ele>1975</ele>
        <time>2021-07-01T09:02:47Z</time>
      </trkpt>
      <trkpt lat="42.6617" lon="1.60505">
        <ele>1976</ele>
        <time>2021-07-01T09:02:50Z</time>
      </trkpt>
      <trkpt lat="42.6617" lon="1.60502">
        <ele>1976</ele>
        <time>2021-07-01T09:02:52Z</time>
      </trkpt>
      <trkpt lat="42.6617" lon="1.60498">
        <ele>1976</ele>
        <time>2021-07-01T09:02:55Z</time>
      </trkpt>
      <trkpt lat="42.66167" lon="1.60491">
        <ele>1976</ele>
        <time>2021-07-01T09:03:01Z</time>
      </trkpt>
      <trkpt lat="42.66164" lon="1.60486">
        <ele>1977</ele>
        <time>2021-07-01T09:03:08Z</time>
      </trkpt>
      <trkpt lat="42.66159" lon="1.60478">
        <ele>1980</ele>
        <time>2021-07-01T09:03:21Z</time>
      </trkpt>
      <trkpt lat="42.6616" lon="1.60467">
        <ele>1980</ele>
        <time>2021-07-01T09:03:31Z</time>
      </trkpt>
      <trkpt lat="42.66161" lon="1.60464">
        <ele>1980</ele>
        <time>2021-07-01T09:03:36Z</time>
      </trkpt>
      <trkpt lat="42.66159" lon="1.60459">
        <ele>1981</ele>
        <time>2021-07-01T09:06:47Z</time>
      </trkpt>
      <trkpt lat="42.66162" lon="1.60451">
        <ele>1984</ele>
        <time>2021-07-01T09:07:01Z</time>
      </trkpt>
      <trkpt lat="42.66162" lon="1.60444">
        <ele>1986</ele>
        <time>2021-07-01T09:07:12Z</time>
      </trkpt>
      <trkpt lat="42.66162" lon="1.60441">
        <ele>1986</ele>
        <time>2021-07-01T09:07:27Z</time>
      </trkpt>
      <trkpt lat="42.66162" lon="1.60437">
        <ele>1986</ele>
        <time>2021-07-01T09:07:35Z</time>
      </trkpt>
      <trkpt lat="42.66165" lon="1.60432">
        <ele>1988</ele>
        <time>2021-07-01T09:07:44Z</time>
      </trkpt>
      <trkpt lat="42.66166" lon="1.60428">
        <ele>1991</ele>
        <time>2021-07-01T09:07:53Z</time>
      </trkpt>
      <trkpt lat="42.66168" lon="1.60425">
        <ele>1992</ele>
        <time>2021-07-01T09:07:59Z</time>
      </trkpt>
      <trkpt lat="42.66168" lon="1.60422">
        <ele>1995</ele>
        <time>2021-07-01T09:08:06Z</time>
      </trkpt>
      <trkpt lat="42.66168" lon="1.60418">
        <ele>1996</ele>
        <time>2021-07-01T09:08:13Z</time>
      </trkpt>
      <trkpt lat="42.66169" lon="1.60415">
        <ele>1997</ele>
        <time>2021-07-01T09:08:18Z</time>
      </trkpt>
      <trkpt lat="42.66171" lon="1.60412">
        <ele>1997</ele>
        <time>2021-07-01T09:08:25Z</time>
      </trkpt>
      <trkpt lat="42.66173" lon="1.60413">
        <ele>1996</ele>
        <time>2021-07-01T09:08:33Z</time>
      </trkpt>
      <trkpt lat="42.66173" lon="1.60408">
        <ele>1997</ele>
        <time>2021-07-01T09:08:44Z</time>
      </trkpt>
      <trkpt lat="42.66176" lon="1.60407">
        <ele>2000</ele>
        <time>2021-07-01T09:08:54Z</time>
      </trkpt>
      <trkpt lat="42.66179" lon="1.60406">
        <ele>2001</ele>
        <time>2021-07-01T09:09:00Z</time>
      </trkpt>
      <trkpt lat="42.6618" lon="1.60402">
        <ele>2002</ele>
        <time>2021-07-01T09:09:06Z</time>
      </trkpt>
      <trkpt lat="42.66182" lon="1.60399">
        <ele>2003</ele>
        <time>2021-07-01T09:09:15Z</time>
      </trkpt>
      <trkpt lat="42.66185" lon="1.604">
        <ele>2003</ele>
        <time>2021-07-01T09:09:22Z</time>
      </trkpt>
      <trkpt lat="42.66188" lon="1.604">
        <ele>2002</ele>
        <time>2021-07-01T09:09:29Z</time>
      </trkpt>
      <trkpt lat="42.66199" lon="1.60401">
        <ele>2004</ele>
        <time>2021-07-01T09:09:41Z</time>
      </trkpt>
      <trkpt lat="42.66203" lon="1.60397">
        <ele>2005</ele>
        <time>2021-07-01T09:09:48Z</time>
      </trkpt>
      <trkpt lat="42.66207" lon="1.60397">
        <ele>2006</ele>
        <time>2021-07-01T09:10:02Z</time>
      </trkpt>
      <trkpt lat="42.66211" lon="1.60399">
        <ele>2009</ele>
        <time>2021-07-01T09:10:09Z</time>
      </trkpt>
      <trkpt lat="42.66214" lon="1.60399">
        <ele>2009</ele>
        <time>2021-07-01T09:10:14Z</time>
      </trkpt>
      <trkpt lat="42.66218" lon="1.60396">
        <ele>2010</ele>
        <time>2021-07-01T09:10:20Z</time>
      </trkpt>
      <trkpt lat="42.66221" lon="1.60396">
        <ele>2008</ele>
        <time>2021-07-01T09:10:24Z</time>
      </trkpt>
      <trkpt lat="42.66223" lon="1.60391">
        <ele>2009</ele>
        <time>2021-07-01T09:10:33Z</time>
      </trkpt>
      <trkpt lat="42.66226" lon="1.60387">
        <ele>2012</ele>
        <time>2021-07-01T09:10:39Z</time>
      </trkpt>
      <trkpt lat="42.66231" lon="1.60376">
        <ele>2014</ele>
        <time>2021-07-01T09:10:51Z</time>
      </trkpt>
      <trkpt lat="42.66232" lon="1.60371">
        <ele>2015</ele>
        <time>2021-07-01T09:10:56Z</time>
      </trkpt>
      <trkpt lat="42.66233" lon="1.60368">
        <ele>2016</ele>
        <time>2021-07-01T09:11:01Z</time>
      </trkpt>
      <trkpt lat="42.66234" lon="1.60364">
        <ele>2016</ele>
        <time>2021-07-01T09:11:05Z</time>
      </trkpt>
      <trkpt lat="42.66235" lon="1.60361">
        <ele>2017</ele>
        <time>2021-07-01T09:11:09Z</time>
      </trkpt>
      <trkpt lat="42.66236" lon="1.60358">
        <ele>2017</ele>
        <time>2021-07-01T09:11:13Z</time>
      </trkpt>
      <trkpt lat="42.66238" lon="1.60354">
        <ele>2018</ele>
        <time>2021-07-01T09:11:20Z</time>
      </trkpt>
      <trkpt lat="42.66239" lon="1.60349">
        <ele>2018</ele>
        <time>2021-07-01T09:11:24Z</time>
      </trkpt>
      <trkpt lat="42.66241" lon="1.60346">
        <ele>2018</ele>
        <time>2021-07-01T09:11:30Z</time>
      </trkpt>
      <trkpt lat="42.66242" lon="1.60343">
        <ele>2019</ele>
        <time>2021-07-01T09:11:36Z</time>
      </trkpt>
      <trkpt lat="42.66244" lon="1.6034">
        <ele>2019</ele>
        <time>2021-07-01T09:11:40Z</time>
      </trkpt>
      <trkpt lat="42.66245" lon="1.60338">
        <ele>2019</ele>
        <time>2021-07-01T09:11:43Z</time>
      </trkpt>
      <trkpt lat="42.66246" lon="1.60334">
        <ele>2018</ele>
        <time>2021-07-01T09:11:47Z</time>
      </trkpt>
      <trkpt lat="42.66253" lon="1.60319">
        <ele>2019</ele>
        <time>2021-07-01T09:12:02Z</time>
      </trkpt>
      <trkpt lat="42.66256" lon="1.60307">
        <ele>2020</ele>
        <time>2021-07-01T09:12:14Z</time>
      </trkpt>
      <trkpt lat="42.66259" lon="1.60303">
        <ele>2019</ele>
        <time>2021-07-01T09:12:19Z</time>
      </trkpt>
      <trkpt lat="42.66257" lon="1.60299">
        <ele>2020</ele>
        <time>2021-07-01T09:12:23Z</time>
      </trkpt>
      <trkpt lat="42.66257" lon="1.60292">
        <ele>2020</ele>
        <time>2021-07-01T09:12:30Z</time>
      </trkpt>
      <trkpt lat="42.66256" lon="1.60287">
        <ele>2021</ele>
        <time>2021-07-01T09:12:37Z</time>
      </trkpt>
      <trkpt lat="42.66257" lon="1.60283">
        <ele>2021</ele>
        <time>2021-07-01T09:12:41Z</time>
      </trkpt>
      <trkpt lat="42.66258" lon="1.60274">
        <ele>2021</ele>
        <time>2021-07-01T09:12:50Z</time>
      </trkpt>
      <trkpt lat="42.66259" lon="1.60269">
        <ele>2021</ele>
        <time>2021-07-01T09:12:55Z</time>
      </trkpt>
      <trkpt lat="42.66261" lon="1.60266">
        <ele>2022</ele>
        <time>2021-07-01T09:12:59Z</time>
      </trkpt>
      <trkpt lat="42.66262" lon="1.60262">
        <ele>2022</ele>
        <time>2021-07-01T09:13:02Z</time>
      </trkpt>
      <trkpt lat="42.66273" lon="1.60247">
        <ele>2024</ele>
        <time>2021-07-01T09:13:22Z</time>
      </trkpt>
      <trkpt lat="42.66278" lon="1.60226">
        <ele>2027</ele>
        <time>2021-07-01T09:13:38Z</time>
      </trkpt>
      <trkpt lat="42.66281" lon="1.60219">
        <ele>2028</ele>
        <time>2021-07-01T09:13:44Z</time>
      </trkpt>
      <trkpt lat="42.66282" lon="1.60215">
        <ele>2027</ele>
        <time>2021-07-01T09:13:47Z</time>
      </trkpt>
      <trkpt lat="42.66282" lon="1.60211">
        <ele>2027</ele>
        <time>2021-07-01T09:13:50Z</time>
      </trkpt>
      <trkpt lat="42.66281" lon="1.60208">
        <ele>2028</ele>
        <time>2021-07-01T09:13:55Z</time>
      </trkpt>
      <trkpt lat="42.66282" lon="1.60204">
        <ele>2028</ele>
        <time>2021-07-01T09:14:17Z</time>
      </trkpt>
      <trkpt lat="42.66285" lon="1.60197">
        <ele>2028</ele>
        <time>2021-07-01T09:14:26Z</time>
      </trkpt>
      <trkpt lat="42.66286" lon="1.60194">
        <ele>2029</ele>
        <time>2021-07-01T09:14:33Z</time>
      </trkpt>
      <trkpt lat="42.66289" lon="1.60193">
        <ele>2030</ele>
        <time>2021-07-01T09:14:48Z</time>
      </trkpt>
      <trkpt lat="42.66292" lon="1.60195">
        <ele>2030</ele>
        <time>2021-07-01T09:14:53Z</time>
      </trkpt>
      <trkpt lat="42.66295" lon="1.60196">
        <ele>2031</ele>
        <time>2021-07-01T09:14:58Z</time>
      </trkpt>
      <trkpt lat="42.66297" lon="1.60192">
        <ele>2032</ele>
        <time>2021-07-01T09:15:03Z</time>
      </trkpt>
      <trkpt lat="42.66298" lon="1.60189">
        <ele>2032</ele>
        <time>2021-07-01T09:15:08Z</time>
      </trkpt>
      <trkpt lat="42.66302" lon="1.60189">
        <ele>2032</ele>
        <time>2021-07-01T09:15:30Z</time>
      </trkpt>
      <trkpt lat="42.66306" lon="1.60192">
        <ele>2031</ele>
        <time>2021-07-01T09:15:35Z</time>
      </trkpt>
      <trkpt lat="42.6631" lon="1.60191">
        <ele>2031</ele>
        <time>2021-07-01T09:15:38Z</time>
      </trkpt>
      <trkpt lat="42.66313" lon="1.60194">
        <ele>2033</ele>
        <time>2021-07-01T09:15:43Z</time>
      </trkpt>
      <trkpt lat="42.66316" lon="1.60192">
        <ele>2033</ele>
        <time>2021-07-01T09:15:49Z</time>
      </trkpt>
      <trkpt lat="42.66319" lon="1.60191">
        <ele>2034</ele>
        <time>2021-07-01T09:15:53Z</time>
      </trkpt>
      <trkpt lat="42.6632" lon="1.60186">
        <ele>2034</ele>
        <time>2021-07-01T09:15:56Z</time>
      </trkpt>
      <trkpt lat="42.66322" lon="1.60185">
        <ele>2034</ele>
        <time>2021-07-01T09:15:59Z</time>
      </trkpt>
      <trkpt lat="42.66323" lon="1.60181">
        <ele>2034</ele>
        <time>2021-07-01T09:16:09Z</time>
      </trkpt>
      <trkpt lat="42.66325" lon="1.60178">
        <ele>2035</ele>
        <time>2021-07-01T09:16:14Z</time>
      </trkpt>
      <trkpt lat="42.66331" lon="1.60175">
        <ele>2037</ele>
        <time>2021-07-01T09:16:24Z</time>
      </trkpt>
      <trkpt lat="42.66332" lon="1.60171">
        <ele>2037</ele>
        <time>2021-07-01T09:16:35Z</time>
      </trkpt>
      <trkpt lat="42.66333" lon="1.60168">
        <ele>2037</ele>
        <time>2021-07-01T09:16:42Z</time>
      </trkpt>
      <trkpt lat="42.66335" lon="1.60161">
        <ele>2039</ele>
        <time>2021-07-01T09:16:53Z</time>
      </trkpt>
      <trkpt lat="42.66338" lon="1.60153">
        <ele>2040</ele>
        <time>2021-07-01T09:17:09Z</time>
      </trkpt>
      <trkpt lat="42.66341" lon="1.60152">
        <ele>2042</ele>
        <time>2021-07-01T09:17:21Z</time>
      </trkpt>
      <trkpt lat="42.66343" lon="1.60151">
        <ele>2042</ele>
        <time>2021-07-01T09:17:26Z</time>
      </trkpt>
      <trkpt lat="42.66344" lon="1.60147">
        <ele>2042</ele>
        <time>2021-07-01T09:17:31Z</time>
      </trkpt>
      <trkpt lat="42.66346" lon="1.60143">
        <ele>2042</ele>
        <time>2021-07-01T09:17:38Z</time>
      </trkpt>
      <trkpt lat="42.6635" lon="1.60137">
        <ele>2043</ele>
        <time>2021-07-01T09:17:51Z</time>
      </trkpt>
      <trkpt lat="42.66352" lon="1.60133">
        <ele>2044</ele>
        <time>2021-07-01T09:17:59Z</time>
      </trkpt>
      <trkpt lat="42.66354" lon="1.6013">
        <ele>2044</ele>
        <time>2021-07-01T09:18:07Z</time>
      </trkpt>
      <trkpt lat="42.66356" lon="1.60127">
        <ele>2045</ele>
        <time>2021-07-01T09:18:11Z</time>
      </trkpt>
      <trkpt lat="42.66361" lon="1.60125">
        <ele>2046</ele>
        <time>2021-07-01T09:18:28Z</time>
      </trkpt>
      <trkpt lat="42.66366" lon="1.6013">
        <ele>2050</ele>
        <time>2021-07-01T09:18:59Z</time>
      </trkpt>
      <trkpt lat="42.6637" lon="1.60131">
        <ele>2051</ele>
        <time>2021-07-01T09:19:06Z</time>
      </trkpt>
      <trkpt lat="42.66371" lon="1.60126">
        <ele>2051</ele>
        <time>2021-07-01T09:19:17Z</time>
      </trkpt>
      <trkpt lat="42.66373" lon="1.60122">
        <ele>2052</ele>
        <time>2021-07-01T09:19:25Z</time>
      </trkpt>
      <trkpt lat="42.66374" lon="1.60118">
        <ele>2052</ele>
        <time>2021-07-01T09:19:30Z</time>
      </trkpt>
      <trkpt lat="42.66378" lon="1.60117">
        <ele>2052</ele>
        <time>2021-07-01T09:19:42Z</time>
      </trkpt>
      <trkpt lat="42.66383" lon="1.60117">
        <ele>2053</ele>
        <time>2021-07-01T09:20:27Z</time>
      </trkpt>
      <trkpt lat="42.66384" lon="1.60122">
        <ele>2057</ele>
        <time>2021-07-01T09:20:43Z</time>
      </trkpt>
      <trkpt lat="42.66385" lon="1.60126">
        <ele>2059</ele>
        <time>2021-07-01T09:20:49Z</time>
      </trkpt>
      <trkpt lat="42.66387" lon="1.60128">
        <ele>2060</ele>
        <time>2021-07-01T09:20:54Z</time>
      </trkpt>
      <trkpt lat="42.6639" lon="1.60126">
        <ele>2061</ele>
        <time>2021-07-01T09:21:01Z</time>
      </trkpt>
      <trkpt lat="42.66399" lon="1.60122">
        <ele>2061</ele>
        <time>2021-07-01T09:21:40Z</time>
      </trkpt>
      <trkpt lat="42.66403" lon="1.6012">
        <ele>2061</ele>
        <time>2021-07-01T09:21:50Z</time>
      </trkpt>
      <trkpt lat="42.66406" lon="1.60122">
        <ele>2062</ele>
        <time>2021-07-01T09:22:06Z</time>
      </trkpt>
      <trkpt lat="42.66409" lon="1.60125">
        <ele>2065</ele>
        <time>2021-07-01T09:22:14Z</time>
      </trkpt>
      <trkpt lat="42.66414" lon="1.60124">
        <ele>2067</ele>
        <time>2021-07-01T09:23:02Z</time>
      </trkpt>
      <trkpt lat="42.66417" lon="1.60125">
        <ele>2067</ele>
        <time>2021-07-01T09:23:07Z</time>
      </trkpt>
      <trkpt lat="42.66421" lon="1.60124">
        <ele>2068</ele>
        <time>2021-07-01T09:23:11Z</time>
      </trkpt>
      <trkpt lat="42.66426" lon="1.60124">
        <ele>2068</ele>
        <time>2021-07-01T09:23:18Z</time>
      </trkpt>
      <trkpt lat="42.66429" lon="1.60124">
        <ele>2067</ele>
        <time>2021-07-01T09:23:23Z</time>
      </trkpt>
      <trkpt lat="42.66432" lon="1.60126">
        <ele>2068</ele>
        <time>2021-07-01T09:23:30Z</time>
      </trkpt>
      <trkpt lat="42.66434" lon="1.60131">
        <ele>2069</ele>
        <time>2021-07-01T09:23:36Z</time>
      </trkpt>
      <trkpt lat="42.66445" lon="1.60133">
        <ele>2069</ele>
        <time>2021-07-01T09:23:55Z</time>
      </trkpt>
      <trkpt lat="42.66448" lon="1.60133">
        <ele>2069</ele>
        <time>2021-07-01T09:23:59Z</time>
      </trkpt>
      <trkpt lat="42.66451" lon="1.60135">
        <ele>2070</ele>
        <time>2021-07-01T09:24:06Z</time>
      </trkpt>
      <trkpt lat="42.66454" lon="1.60133">
        <ele>2071</ele>
        <time>2021-07-01T09:24:55Z</time>
      </trkpt>
      <trkpt lat="42.66461" lon="1.60132">
        <ele>2070</ele>
        <time>2021-07-01T09:25:07Z</time>
      </trkpt>
      <trkpt lat="42.66466" lon="1.6013">
        <ele>2070</ele>
        <time>2021-07-01T09:25:14Z</time>
      </trkpt>
      <trkpt lat="42.66469" lon="1.6013">
        <ele>2069</ele>
        <time>2021-07-01T09:25:20Z</time>
      </trkpt>
      <trkpt lat="42.66474" lon="1.60134">
        <ele>2070</ele>
        <time>2021-07-01T09:25:33Z</time>
      </trkpt>
      <trkpt lat="42.66477" lon="1.60132">
        <ele>2073</ele>
        <time>2021-07-01T09:25:43Z</time>
      </trkpt>
      <trkpt lat="42.66478" lon="1.60137">
        <ele>2075</ele>
        <time>2021-07-01T09:25:54Z</time>
      </trkpt>
      <trkpt lat="42.66481" lon="1.6014">
        <ele>2078</ele>
        <time>2021-07-01T09:25:59Z</time>
      </trkpt>
      <trkpt lat="42.66484" lon="1.60141">
        <ele>2079</ele>
        <time>2021-07-01T09:26:11Z</time>
      </trkpt>
      <trkpt lat="42.66486" lon="1.60145">
        <ele>2082</ele>
        <time>2021-07-01T09:26:18Z</time>
      </trkpt>
      <trkpt lat="42.66489" lon="1.60141">
        <ele>2082</ele>
        <time>2021-07-01T09:26:51Z</time>
      </trkpt>
      <trkpt lat="42.66496" lon="1.6014">
        <ele>2086</ele>
        <time>2021-07-01T09:27:08Z</time>
      </trkpt>
      <trkpt lat="42.66499" lon="1.6014">
        <ele>2086</ele>
        <time>2021-07-01T09:27:14Z</time>
      </trkpt>
      <trkpt lat="42.665" lon="1.60135">
        <ele>2087</ele>
        <time>2021-07-01T09:27:18Z</time>
      </trkpt>
      <trkpt lat="42.66501" lon="1.60132">
        <ele>2088</ele>
        <time>2021-07-01T09:27:22Z</time>
      </trkpt>
      <trkpt lat="42.66504" lon="1.60134">
        <ele>2087</ele>
        <time>2021-07-01T09:27:32Z</time>
      </trkpt>
      <trkpt lat="42.66511" lon="1.60135">
        <ele>2088</ele>
        <time>2021-07-01T09:27:43Z</time>
      </trkpt>
      <trkpt lat="42.66515" lon="1.60138">
        <ele>2089</ele>
        <time>2021-07-01T09:27:50Z</time>
      </trkpt>
      <trkpt lat="42.66517" lon="1.60141">
        <ele>2089</ele>
        <time>2021-07-01T09:27:55Z</time>
      </trkpt>
      <trkpt lat="42.66519" lon="1.6014">
        <ele>2089</ele>
        <time>2021-07-01T09:28:01Z</time>
      </trkpt>
      <trkpt lat="42.66522" lon="1.6014">
        <ele>2089</ele>
        <time>2021-07-01T09:28:06Z</time>
      </trkpt>
      <trkpt lat="42.66525" lon="1.60139">
        <ele>2091</ele>
        <time>2021-07-01T09:28:13Z</time>
      </trkpt>
      <trkpt lat="42.66526" lon="1.60135">
        <ele>2091</ele>
        <time>2021-07-01T09:28:17Z</time>
      </trkpt>
      <trkpt lat="42.66529" lon="1.60136">
        <ele>2092</ele>
        <time>2021-07-01T09:29:00Z</time>
      </trkpt>
      <trkpt lat="42.66531" lon="1.60139">
        <ele>2095</ele>
        <time>2021-07-01T09:29:12Z</time>
      </trkpt>
      <trkpt lat="42.66537" lon="1.60135">
        <ele>2099</ele>
        <time>2021-07-01T09:29:26Z</time>
      </trkpt>
      <trkpt lat="42.6654" lon="1.60134">
        <ele>2100</ele>
        <time>2021-07-01T09:29:29Z</time>
      </trkpt>
      <trkpt lat="42.66541" lon="1.60129">
        <ele>2099</ele>
        <time>2021-07-01T09:29:34Z</time>
      </trkpt>
      <trkpt lat="42.66542" lon="1.60126">
        <ele>2100</ele>
        <time>2021-07-01T09:29:43Z</time>
      </trkpt>
      <trkpt lat="42.66545" lon="1.60124">
        <ele>2101</ele>
        <time>2021-07-01T09:29:51Z</time>
      </trkpt>
      <trkpt lat="42.66556" lon="1.60114">
        <ele>2102</ele>
        <time>2021-07-01T09:30:14Z</time>
      </trkpt>
      <trkpt lat="42.6656" lon="1.60114">
        <ele>2104</ele>
        <time>2021-07-01T09:30:24Z</time>
      </trkpt>
      <trkpt lat="42.66562" lon="1.60118">
        <ele>2104</ele>
        <time>2021-07-01T09:30:37Z</time>
      </trkpt>
      <trkpt lat="42.66565" lon="1.60119">
        <ele>2104</ele>
        <time>2021-07-01T09:30:41Z</time>
      </trkpt>
      <trkpt lat="42.66571" lon="1.60129">
        <ele>2107</ele>
        <time>2021-07-01T09:31:04Z</time>
      </trkpt>
      <trkpt lat="42.66574" lon="1.60125">
        <ele>2108</ele>
        <time>2021-07-01T09:31:19Z</time>
      </trkpt>
      <trkpt lat="42.66577" lon="1.60124">
        <ele>2112</ele>
        <time>2021-07-01T09:31:29Z</time>
      </trkpt>
      <trkpt lat="42.66586" lon="1.60124">
        <ele>2112</ele>
        <time>2021-07-01T09:31:54Z</time>
      </trkpt>
      <trkpt lat="42.66589" lon="1.60128">
        <ele>2112</ele>
        <time>2021-07-01T09:32:03Z</time>
      </trkpt>
      <trkpt lat="42.66591" lon="1.60132">
        <ele>2113</ele>
        <time>2021-07-01T09:32:10Z</time>
      </trkpt>
      <trkpt lat="42.66594" lon="1.60135">
        <ele>2114</ele>
        <time>2021-07-01T09:32:16Z</time>
      </trkpt>
      <trkpt lat="42.66596" lon="1.60139">
        <ele>2116</ele>
        <time>2021-07-01T09:32:27Z</time>
      </trkpt>
      <trkpt lat="42.66601" lon="1.60146">
        <ele>2116</ele>
        <time>2021-07-01T09:32:37Z</time>
      </trkpt>
      <trkpt lat="42.66604" lon="1.60149">
        <ele>2115</ele>
        <time>2021-07-01T09:32:43Z</time>
      </trkpt>
      <trkpt lat="42.66609" lon="1.60155">
        <ele>2116</ele>
        <time>2021-07-01T09:32:51Z</time>
      </trkpt>
      <trkpt lat="42.66616" lon="1.60156">
        <ele>2117</ele>
        <time>2021-07-01T09:33:16Z</time>
      </trkpt>
      <trkpt lat="42.66619" lon="1.60157">
        <ele>2117</ele>
        <time>2021-07-01T09:33:37Z</time>
      </trkpt>
      <trkpt lat="42.66625" lon="1.60164">
        <ele>2116</ele>
        <time>2021-07-01T09:33:51Z</time>
      </trkpt>
      <trkpt lat="42.66632" lon="1.60164">
        <ele>2119</ele>
        <time>2021-07-01T09:34:02Z</time>
      </trkpt>
      <trkpt lat="42.66635" lon="1.60166">
        <ele>2120</ele>
        <time>2021-07-01T09:34:12Z</time>
      </trkpt>
      <trkpt lat="42.66638" lon="1.60165">
        <ele>2122</ele>
        <time>2021-07-01T09:34:26Z</time>
      </trkpt>
      <trkpt lat="42.66641" lon="1.60168">
        <ele>2123</ele>
        <time>2021-07-01T09:34:31Z</time>
      </trkpt>
      <trkpt lat="42.66643" lon="1.60172">
        <ele>2125</ele>
        <time>2021-07-01T09:34:39Z</time>
      </trkpt>
      <trkpt lat="42.66647" lon="1.60176">
        <ele>2127</ele>
        <time>2021-07-01T09:34:55Z</time>
      </trkpt>
      <trkpt lat="42.6665" lon="1.60178">
        <ele>2128</ele>
        <time>2021-07-01T09:35:02Z</time>
      </trkpt>
      <trkpt lat="42.66653" lon="1.60181">
        <ele>2129</ele>
        <time>2021-07-01T09:35:13Z</time>
      </trkpt>
      <trkpt lat="42.66655" lon="1.60185">
        <ele>2133</ele>
        <time>2021-07-01T09:35:27Z</time>
      </trkpt>
      <trkpt lat="42.66663" lon="1.60192">
        <ele>2133</ele>
        <time>2021-07-01T09:35:47Z</time>
      </trkpt>
      <trkpt lat="42.66665" lon="1.60197">
        <ele>2134</ele>
        <time>2021-07-01T09:35:57Z</time>
      </trkpt>
      <trkpt lat="42.66669" lon="1.602">
        <ele>2134</ele>
        <time>2021-07-01T09:36:26Z</time>
      </trkpt>
      <trkpt lat="42.66672" lon="1.60205">
        <ele>2135</ele>
        <time>2021-07-01T09:36:35Z</time>
      </trkpt>
      <trkpt lat="42.66672" lon="1.6021">
        <ele>2135</ele>
        <time>2021-07-01T09:36:43Z</time>
      </trkpt>
      <trkpt lat="42.66675" lon="1.60214">
        <ele>2138</ele>
        <time>2021-07-01T09:36:52Z</time>
      </trkpt>
      <trkpt lat="42.66681" lon="1.60221">
        <ele>2140</ele>
        <time>2021-07-01T09:37:07Z</time>
      </trkpt>
      <trkpt lat="42.66683" lon="1.60226">
        <ele>2140</ele>
        <time>2021-07-01T09:37:17Z</time>
      </trkpt>
      <trkpt lat="42.66684" lon="1.60231">
        <ele>2140</ele>
        <time>2021-07-01T09:37:26Z</time>
      </trkpt>
      <trkpt lat="42.66687" lon="1.60235">
        <ele>2141</ele>
        <time>2021-07-01T09:37:33Z</time>
      </trkpt>
      <trkpt lat="42.6669" lon="1.60239">
        <ele>2142</ele>
        <time>2021-07-01T09:37:42Z</time>
      </trkpt>
      <trkpt lat="42.66698" lon="1.60259">
        <ele>2146</ele>
        <time>2021-07-01T09:38:14Z</time>
      </trkpt>
      <trkpt lat="42.66703" lon="1.60268">
        <ele>2149</ele>
        <time>2021-07-01T09:38:35Z</time>
      </trkpt>
      <trkpt lat="42.66704" lon="1.60274">
        <ele>2150</ele>
        <time>2021-07-01T09:38:49Z</time>
      </trkpt>
      <trkpt lat="42.66706" lon="1.60283">
        <ele>2152</ele>
        <time>2021-07-01T09:39:01Z</time>
      </trkpt>
      <trkpt lat="42.66707" lon="1.60289">
        <ele>2152</ele>
        <time>2021-07-01T09:39:09Z</time>
      </trkpt>
      <trkpt lat="42.66708" lon="1.60294">
        <ele>2154</ele>
        <time>2021-07-01T09:39:26Z</time>
      </trkpt>
      <trkpt lat="42.66711" lon="1.60298">
        <ele>2154</ele>
        <time>2021-07-01T09:39:38Z</time>
      </trkpt>
      <trkpt lat="42.66712" lon="1.60303">
        <ele>2155</ele>
        <time>2021-07-01T09:39:48Z</time>
      </trkpt>
      <trkpt lat="42.66711" lon="1.60307">
        <ele>2155</ele>
        <time>2021-07-01T09:39:57Z</time>
      </trkpt>
      <trkpt lat="42.66715" lon="1.60308">
        <ele>2157</ele>
        <time>2021-07-01T09:40:27Z</time>
      </trkpt>
      <trkpt lat="42.66719" lon="1.60311">
        <ele>2159</ele>
        <time>2021-07-01T09:40:44Z</time>
      </trkpt>
      <trkpt lat="42.66721" lon="1.60315">
        <ele>2160</ele>
        <time>2021-07-01T09:40:56Z</time>
      </trkpt>
      <trkpt lat="42.66725" lon="1.60311">
        <ele>2163</ele>
        <time>2021-07-01T09:41:13Z</time>
      </trkpt>
      <trkpt lat="42.66728" lon="1.60314">
        <ele>2164</ele>
        <time>2021-07-01T09:41:23Z</time>
      </trkpt>
      <trkpt lat="42.6673" lon="1.6032">
        <ele>2167</ele>
        <time>2021-07-01T09:41:57Z</time>
      </trkpt>
      <trkpt lat="42.66731" lon="1.60326">
        <ele>2168</ele>
        <time>2021-07-01T09:42:08Z</time>
      </trkpt>
      <trkpt lat="42.66735" lon="1.60329">
        <ele>2170</ele>
        <time>2021-07-01T09:42:33Z</time>
      </trkpt>
      <trkpt lat="42.66741" lon="1.60333">
        <ele>2172</ele>
        <time>2021-07-01T09:43:21Z</time>
      </trkpt>
      <trkpt lat="42.66749" lon="1.60339">
        <ele>2175</ele>
        <time>2021-07-01T09:43:50Z</time>
      </trkpt>
      <trkpt lat="42.6675" lon="1.60345">
        <ele>2176</ele>
        <time>2021-07-01T09:44:01Z</time>
      </trkpt>
      <trkpt lat="42.66753" lon="1.60355">
        <ele>2183</ele>
        <time>2021-07-01T09:45:48Z</time>
      </trkpt>
      <trkpt lat="42.66757" lon="1.60353">
        <ele>2185</ele>
        <time>2021-07-01T09:46:04Z</time>
      </trkpt>
      <trkpt lat="42.6676" lon="1.60357">
        <ele>2189</ele>
        <time>2021-07-01T09:46:37Z</time>
      </trkpt>
      <trkpt lat="42.66768" lon="1.60364">
        <ele>2196</ele>
        <time>2021-07-01T09:47:32Z</time>
      </trkpt>
      <trkpt lat="42.66771" lon="1.60371">
        <ele>2197</ele>
        <time>2021-07-01T09:47:46Z</time>
      </trkpt>
      <trkpt lat="42.66775" lon="1.60375">
        <ele>2199</ele>
        <time>2021-07-01T09:48:05Z</time>
      </trkpt>
      <trkpt lat="42.66779" lon="1.60378">
        <ele>2200</ele>
        <time>2021-07-01T09:48:26Z</time>
      </trkpt>
      <trkpt lat="42.66783" lon="1.60381">
        <ele>2202</ele>
        <time>2021-07-01T09:48:53Z</time>
      </trkpt>
      <trkpt lat="42.66787" lon="1.60385">
        <ele>2212</ele>
        <time>2021-07-01T09:50:37Z</time>
      </trkpt>
      <trkpt lat="42.66791" lon="1.60387">
        <ele>2213</ele>
        <time>2021-07-01T09:50:50Z</time>
      </trkpt>
      <trkpt lat="42.66795" lon="1.60385">
        <ele>2218</ele>
        <time>2021-07-01T09:51:11Z</time>
      </trkpt>
      <trkpt lat="42.668" lon="1.60388">
        <ele>2220</ele>
        <time>2021-07-01T09:51:48Z</time>
      </trkpt>
      <trkpt lat="42.66804" lon="1.60387">
        <ele>2221</ele>
        <time>2021-07-01T09:51:59Z</time>
      </trkpt>
      <trkpt lat="42.66808" lon="1.60389">
        <ele>2221</ele>
        <time>2021-07-01T09:52:12Z</time>
      </trkpt>
      <trkpt lat="42.66813" lon="1.6039">
        <ele>2225</ele>
        <time>2021-07-01T09:52:55Z</time>
      </trkpt>
      <trkpt lat="42.66817" lon="1.60394">
        <ele>2227</ele>
        <time>2021-07-01T09:53:47Z</time>
      </trkpt>
      <trkpt lat="42.66821" lon="1.60396">
        <ele>2232</ele>
        <time>2021-07-01T09:54:06Z</time>
      </trkpt>
      <trkpt lat="42.66826" lon="1.60397">
        <ele>2234</ele>
        <time>2021-07-01T09:54:38Z</time>
      </trkpt>
      <trkpt lat="42.6683" lon="1.60392">
        <ele>2243</ele>
        <time>2021-07-01T09:55:19Z</time>
      </trkpt>
      <trkpt lat="42.66836" lon="1.60391">
        <ele>2245</ele>
        <time>2021-07-01T09:56:31Z</time>
      </trkpt>
      <trkpt lat="42.66847" lon="1.60392">
        <ele>2258</ele>
        <time>2021-07-01T09:57:55Z</time>
      </trkpt>
      <trkpt lat="42.66851" lon="1.60391">
        <ele>2259</ele>
        <time>2021-07-01T09:58:12Z</time>
      </trkpt>
      <trkpt lat="42.66855" lon="1.60394">
        <ele>2262</ele>
        <time>2021-07-01T09:58:26Z</time>
      </trkpt>
      <trkpt lat="42.66859" lon="1.60391">
        <ele>2264</ele>
        <time>2021-07-01T09:59:20Z</time>
      </trkpt>
      <trkpt lat="42.66864" lon="1.60391">
        <ele>2264</ele>
        <time>2021-07-01T09:59:29Z</time>
      </trkpt>
      <trkpt lat="42.66865" lon="1.60395">
        <ele>2266</ele>
        <time>2021-07-01T10:00:24Z</time>
      </trkpt>
      <trkpt lat="42.66869" lon="1.60395">
        <ele>2267</ele>
        <time>2021-07-01T10:00:36Z</time>
      </trkpt>
      <trkpt lat="42.66873" lon="1.60394">
        <ele>2272</ele>
        <time>2021-07-01T10:00:45Z</time>
      </trkpt>
      <trkpt lat="42.66878" lon="1.60394">
        <ele>2274</ele>
        <time>2021-07-01T10:01:33Z</time>
      </trkpt>
      <trkpt lat="42.66882" lon="1.60397">
        <ele>2278</ele>
        <time>2021-07-01T10:01:56Z</time>
      </trkpt>
      <trkpt lat="42.66887" lon="1.60395">
        <ele>2279</ele>
        <time>2021-07-01T10:02:13Z</time>
      </trkpt>
      <trkpt lat="42.66889" lon="1.604">
        <ele>2282</ele>
        <time>2021-07-01T10:02:32Z</time>
      </trkpt>
      <trkpt lat="42.66892" lon="1.60397">
        <ele>2288</ele>
        <time>2021-07-01T10:03:34Z</time>
      </trkpt>
      <trkpt lat="42.66895" lon="1.60395">
        <ele>2289</ele>
        <time>2021-07-01T10:03:49Z</time>
      </trkpt>
      <trkpt lat="42.66898" lon="1.604">
        <ele>2293</ele>
        <time>2021-07-01T10:04:10Z</time>
      </trkpt>
      <trkpt lat="42.66903" lon="1.60401">
        <ele>2293</ele>
        <time>2021-07-01T10:04:30Z</time>
      </trkpt>
      <trkpt lat="42.66907" lon="1.60404">
        <ele>2294</ele>
        <time>2021-07-01T10:05:10Z</time>
      </trkpt>
      <trkpt lat="42.66909" lon="1.6041">
        <ele>2295</ele>
        <time>2021-07-01T10:05:31Z</time>
      </trkpt>
      <trkpt lat="42.66912" lon="1.60414">
        <ele>2300</ele>
        <time>2021-07-01T10:05:53Z</time>
      </trkpt>
      <trkpt lat="42.66913" lon="1.60416">
        <ele>2309</ele>
        <time>2021-07-01T10:07:15Z</time>
      </trkpt>
      <trkpt lat="42.66917" lon="1.60418">
        <ele>2309</ele>
        <time>2021-07-01T10:07:22Z</time>
      </trkpt>
      <trkpt lat="42.66925" lon="1.60416">
        <ele>2316</ele>
        <time>2021-07-01T10:08:05Z</time>
      </trkpt>
      <trkpt lat="42.6693" lon="1.60417">
        <ele>2318</ele>
        <time>2021-07-01T10:08:32Z</time>
      </trkpt>
      <trkpt lat="42.66934" lon="1.60416">
        <ele>2325</ele>
        <time>2021-07-01T10:09:22Z</time>
      </trkpt>
      <trkpt lat="42.66935" lon="1.60409">
        <ele>2327</ele>
        <time>2021-07-01T10:09:51Z</time>
      </trkpt>
      <trkpt lat="42.66938" lon="1.60406">
        <ele>2329</ele>
        <time>2021-07-01T10:10:09Z</time>
      </trkpt>
      <trkpt lat="42.66941" lon="1.60403">
        <ele>2331</ele>
        <time>2021-07-01T10:10:28Z</time>
      </trkpt>
      <trkpt lat="42.66945" lon="1.604">
        <ele>2335</ele>
        <time>2021-07-01T10:11:20Z</time>
      </trkpt>
      <trkpt lat="42.66947" lon="1.60399">
        <ele>2337</ele>
        <time>2021-07-01T10:11:50Z</time>
      </trkpt>
      <trkpt lat="42.66949" lon="1.60404">
        <ele>2338</ele>
        <time>2021-07-01T10:12:04Z</time>
      </trkpt>
      <trkpt lat="42.66954" lon="1.60408">
        <ele>2339</ele>
        <time>2021-07-01T10:12:18Z</time>
      </trkpt>
      <trkpt lat="42.66958" lon="1.60405">
        <ele>2340</ele>
        <time>2021-07-01T10:13:11Z</time>
      </trkpt>
      <trkpt lat="42.6696" lon="1.60412">
        <ele>2341</ele>
        <time>2021-07-01T10:13:35Z</time>
      </trkpt>
      <trkpt lat="42.66964" lon="1.60411">
        <ele>2344</ele>
        <time>2021-07-01T10:14:03Z</time>
      </trkpt>
      <trkpt lat="42.66966" lon="1.60407">
        <ele>2350</ele>
        <time>2021-07-01T10:14:25Z</time>
      </trkpt>
      <trkpt lat="42.6697" lon="1.6041">
        <ele>2351</ele>
        <time>2021-07-01T10:15:07Z</time>
      </trkpt>
      <trkpt lat="42.66974" lon="1.6041">
        <ele>2352</ele>
        <time>2021-07-01T10:15:40Z</time>
      </trkpt>
      <trkpt lat="42.66977" lon="1.60416">
        <ele>2352</ele>
        <time>2021-07-01T10:16:06Z</time>
      </trkpt>
      <trkpt lat="42.66982" lon="1.60414">
        <ele>2355</ele>
        <time>2021-07-01T10:16:44Z</time>
      </trkpt>
      <trkpt lat="42.66983" lon="1.60421">
        <ele>2356</ele>
        <time>2021-07-01T10:17:48Z</time>
      </trkpt>
      <trkpt lat="42.66986" lon="1.60426">
        <ele>2356</ele>
        <time>2021-07-01T10:18:14Z</time>
      </trkpt>
      <trkpt lat="42.66986" lon="1.60434">
        <ele>2355</ele>
        <time>2021-07-01T10:18:24Z</time>
      </trkpt>
      <trkpt lat="42.66989" lon="1.60437">
        <ele>2360</ele>
        <time>2021-07-01T10:18:39Z</time>
      </trkpt>
      <trkpt lat="42.66994" lon="1.60441">
        <ele>2365</ele>
        <time>2021-07-01T10:19:35Z</time>
      </trkpt>
      <trkpt lat="42.66997" lon="1.60446">
        <ele>2373</ele>
        <time>2021-07-01T10:20:18Z</time>
      </trkpt>
      <trkpt lat="42.67002" lon="1.60448">
        <ele>2374</ele>
        <time>2021-07-01T10:20:31Z</time>
      </trkpt>
      <trkpt lat="42.67006" lon="1.6045">
        <ele>2377</ele>
        <time>2021-07-01T10:21:07Z</time>
      </trkpt>
      <trkpt lat="42.67007" lon="1.60457">
        <ele>2380</ele>
        <time>2021-07-01T10:21:25Z</time>
      </trkpt>
      <trkpt lat="42.67009" lon="1.60463">
        <ele>2382</ele>
        <time>2021-07-01T10:22:32Z</time>
      </trkpt>
      <trkpt lat="42.67013" lon="1.60464">
        <ele>2382</ele>
        <time>2021-07-01T10:23:12Z</time>
      </trkpt>
      <trkpt lat="42.67012" lon="1.60476">
        <ele>2387</ele>
        <time>2021-07-01T10:23:49Z</time>
      </trkpt>
      <trkpt lat="42.67013" lon="1.60482">
        <ele>2391</ele>
        <time>2021-07-01T10:24:22Z</time>
      </trkpt>
      <trkpt lat="42.67017" lon="1.60486">
        <ele>2394</ele>
        <time>2021-07-01T10:24:38Z</time>
      </trkpt>
      <trkpt lat="42.67018" lon="1.60491">
        <ele>2397</ele>
        <time>2021-07-01T10:25:52Z</time>
      </trkpt>
      <trkpt lat="42.67021" lon="1.60491">
        <ele>2401</ele>
        <time>2021-07-01T10:26:16Z</time>
      </trkpt>
      <trkpt lat="42.67024" lon="1.60494">
        <ele>2402</ele>
        <time>2021-07-01T10:26:47Z</time>
      </trkpt>
      <trkpt lat="42.67023" lon="1.60504">
        <ele>2407</ele>
        <time>2021-07-01T10:27:39Z</time>
      </trkpt>
      <trkpt lat="42.67027" lon="1.60513">
        <ele>2408</ele>
        <time>2021-07-01T10:28:32Z</time>
      </trkpt>
      <trkpt lat="42.67032" lon="1.60513">
        <ele>2409</ele>
        <time>2021-07-01T10:28:43Z</time>
      </trkpt>
      <trkpt lat="42.67035" lon="1.6051">
        <ele>2417</ele>
        <time>2021-07-01T10:28:56Z</time>
      </trkpt>
      <trkpt lat="42.67042" lon="1.6051">
        <ele>2421</ele>
        <time>2021-07-01T10:29:12Z</time>
      </trkpt>
      <trkpt lat="42.67044" lon="1.60513">
        <ele>2423</ele>
        <time>2021-07-01T10:29:42Z</time>
      </trkpt>
      <trkpt lat="42.67047" lon="1.60515">
        <ele>2427</ele>
        <time>2021-07-01T10:29:55Z</time>
      </trkpt>
      <trkpt lat="42.67051" lon="1.60516">
        <ele>2426</ele>
        <time>2021-07-01T10:30:00Z</time>
      </trkpt>
      <trkpt lat="42.67053" lon="1.60519">
        <ele>2426</ele>
        <time>2021-07-01T10:30:22Z</time>
      </trkpt>
      <trkpt lat="42.67056" lon="1.60519">
        <ele>2426</ele>
        <time>2021-07-01T10:30:45Z</time>
      </trkpt>
      <trkpt lat="42.67059" lon="1.60519">
        <ele>2427</ele>
        <time>2021-07-01T10:30:50Z</time>
      </trkpt>
      <trkpt lat="42.67062" lon="1.60518">
        <ele>2428</ele>
        <time>2021-07-01T10:30:57Z</time>
      </trkpt>
      <trkpt lat="42.6707" lon="1.60516">
        <ele>2429</ele>
        <time>2021-07-01T10:31:07Z</time>
      </trkpt>
      <trkpt lat="42.6708" lon="1.60511">
        <ele>2430</ele>
        <time>2021-07-01T10:31:23Z</time>
      </trkpt>
      <trkpt lat="42.67089" lon="1.60508">
        <ele>2430</ele>
        <time>2021-07-01T10:31:32Z</time>
      </trkpt>
      <trkpt lat="42.67087" lon="1.60503">
        <ele>2431</ele>
        <time>2021-07-01T10:31:43Z</time>
      </trkpt>
      <trkpt lat="42.67092" lon="1.60504">
        <ele>2431</ele>
        <time>2021-07-01T10:34:11Z</time>
      </trkpt>
      <trkpt lat="42.6709" lon="1.60499">
        <ele>2433</ele>
        <time>2021-07-01T10:34:29Z</time>
      </trkpt>
      <trkpt lat="42.67087" lon="1.60497">
        <ele>2434</ele>
        <time>2021-07-01T10:34:44Z</time>
      </trkpt>
      <trkpt lat="42.67087" lon="1.60491">
        <ele>2438</ele>
        <time>2021-07-01T10:35:30Z</time>
      </trkpt>
      <trkpt lat="42.67088" lon="1.60486">
        <ele>2438</ele>
        <time>2021-07-01T10:35:36Z</time>
      </trkpt>
      <trkpt lat="42.6709" lon="1.6048">
        <ele>2439</ele>
        <time>2021-07-01T10:35:48Z</time>
      </trkpt>
      <trkpt lat="42.67093" lon="1.60477">
        <ele>2441</ele>
        <time>2021-07-01T10:35:53Z</time>
      </trkpt>
      <trkpt lat="42.67093" lon="1.60473">
        <ele>2442</ele>
        <time>2021-07-01T10:36:04Z</time>
      </trkpt>
      <trkpt lat="42.67095" lon="1.60469">
        <ele>2443</ele>
        <time>2021-07-01T10:36:14Z</time>
      </trkpt>
      <trkpt lat="42.67094" lon="1.60464">
        <ele>2444</ele>
        <time>2021-07-01T10:37:02Z</time>
      </trkpt>
      <trkpt lat="42.67095" lon="1.60458">
        <ele>2446</ele>
        <time>2021-07-01T10:37:13Z</time>
      </trkpt>
      <trkpt lat="42.671" lon="1.60449">
        <ele>2447</ele>
        <time>2021-07-01T10:37:50Z</time>
      </trkpt>
      <trkpt lat="42.67101" lon="1.60445">
        <ele>2449</ele>
        <time>2021-07-01T10:38:00Z</time>
      </trkpt>
      <trkpt lat="42.67107" lon="1.60437">
        <ele>2449</ele>
        <time>2021-07-01T10:38:50Z</time>
      </trkpt>
      <trkpt lat="42.67109" lon="1.60432">
        <ele>2453</ele>
        <time>2021-07-01T10:39:00Z</time>
      </trkpt>
      <trkpt lat="42.67112" lon="1.60429">
        <ele>2453</ele>
        <time>2021-07-01T10:39:11Z</time>
      </trkpt>
      <trkpt lat="42.67115" lon="1.60426">
        <ele>2455</ele>
        <time>2021-07-01T10:39:18Z</time>
      </trkpt>
      <trkpt lat="42.67121" lon="1.6042">
        <ele>2456</ele>
        <time>2021-07-01T10:39:34Z</time>
      </trkpt>
      <trkpt lat="42.67123" lon="1.60416">
        <ele>2458</ele>
        <time>2021-07-01T10:39:43Z</time>
      </trkpt>
      <trkpt lat="42.67126" lon="1.60412">
        <ele>2458</ele>
        <time>2021-07-01T10:40:15Z</time>
      </trkpt>
      <trkpt lat="42.67132" lon="1.604">
        <ele>2461</ele>
        <time>2021-07-01T10:40:46Z</time>
      </trkpt>
      <trkpt lat="42.67137" lon="1.60399">
        <ele>2463</ele>
        <time>2021-07-01T10:41:22Z</time>
      </trkpt>
      <trkpt lat="42.67139" lon="1.60394">
        <ele>2465</ele>
        <time>2021-07-01T10:41:29Z</time>
      </trkpt>
      <trkpt lat="42.67137" lon="1.6039">
        <ele>2467</ele>
        <time>2021-07-01T10:41:42Z</time>
      </trkpt>
      <trkpt lat="42.67134" lon="1.60386">
        <ele>2467</ele>
        <time>2021-07-01T10:41:54Z</time>
      </trkpt>
      <trkpt lat="42.67132" lon="1.60382">
        <ele>2467</ele>
        <time>2021-07-01T10:41:59Z</time>
      </trkpt>
      <trkpt lat="42.67129" lon="1.60379">
        <ele>2468</ele>
        <time>2021-07-01T10:42:13Z</time>
      </trkpt>
      <trkpt lat="42.67128" lon="1.60375">
        <ele>2468</ele>
        <time>2021-07-01T10:42:50Z</time>
      </trkpt>
      <trkpt lat="42.67131" lon="1.6037">
        <ele>2470</ele>
        <time>2021-07-01T10:42:58Z</time>
      </trkpt>
      <trkpt lat="42.67131" lon="1.60365">
        <ele>2472</ele>
        <time>2021-07-01T10:43:08Z</time>
      </trkpt>
      <trkpt lat="42.67132" lon="1.6036">
        <ele>2474</ele>
        <time>2021-07-01T10:43:17Z</time>
      </trkpt>
      <trkpt lat="42.67136" lon="1.60357">
        <ele>2475</ele>
        <time>2021-07-01T10:43:28Z</time>
      </trkpt>
      <trkpt lat="42.67139" lon="1.60353">
        <ele>2476</ele>
        <time>2021-07-01T10:43:38Z</time>
      </trkpt>
      <trkpt lat="42.67136" lon="1.60351">
        <ele>2477</ele>
        <time>2021-07-01T10:44:12Z</time>
      </trkpt>
      <trkpt lat="42.67132" lon="1.6035">
        <ele>2478</ele>
        <time>2021-07-01T10:44:17Z</time>
      </trkpt>
      <trkpt lat="42.6713" lon="1.60346">
        <ele>2479</ele>
        <time>2021-07-01T10:44:27Z</time>
      </trkpt>
      <trkpt lat="42.67131" lon="1.6034">
        <ele>2478</ele>
        <time>2021-07-01T10:44:35Z</time>
      </trkpt>
      <trkpt lat="42.6713" lon="1.60335">
        <ele>2479</ele>
        <time>2021-07-01T10:44:53Z</time>
      </trkpt>
      <trkpt lat="42.6713" lon="1.60331">
        <ele>2481</ele>
        <time>2021-07-01T10:45:04Z</time>
      </trkpt>
      <trkpt lat="42.67127" lon="1.60325">
        <ele>2483</ele>
        <time>2021-07-01T10:45:37Z</time>
      </trkpt>
      <trkpt lat="42.67128" lon="1.6032">
        <ele>2486</ele>
        <time>2021-07-01T10:45:49Z</time>
      </trkpt>
      <trkpt lat="42.6713" lon="1.60314">
        <ele>2487</ele>
        <time>2021-07-01T10:45:58Z</time>
      </trkpt>
      <trkpt lat="42.67131" lon="1.60309">
        <ele>2490</ele>
        <time>2021-07-01T10:46:07Z</time>
      </trkpt>
      <trkpt lat="42.67133" lon="1.60305">
        <ele>2492</ele>
        <time>2021-07-01T10:46:39Z</time>
      </trkpt>
      <trkpt lat="42.67137" lon="1.60302">
        <ele>2492</ele>
        <time>2021-07-01T10:47:04Z</time>
      </trkpt>
      <trkpt lat="42.67137" lon="1.60297">
        <ele>2493</ele>
        <time>2021-07-01T10:47:15Z</time>
      </trkpt>
      <trkpt lat="42.67138" lon="1.60293">
        <ele>2497</ele>
        <time>2021-07-01T10:47:26Z</time>
      </trkpt>
      <trkpt lat="42.67138" lon="1.60288">
        <ele>2498</ele>
        <time>2021-07-01T10:47:41Z</time>
      </trkpt>
      <trkpt lat="42.67138" lon="1.60283">
        <ele>2502</ele>
        <time>2021-07-01T10:48:33Z</time>
      </trkpt>
      <trkpt lat="42.67139" lon="1.60278">
        <ele>2503</ele>
        <time>2021-07-01T10:48:42Z</time>
      </trkpt>
      <trkpt lat="42.67141" lon="1.60273">
        <ele>2504</ele>
        <time>2021-07-01T10:48:49Z</time>
      </trkpt>
      <trkpt lat="42.67141" lon="1.60269">
        <ele>2506</ele>
        <time>2021-07-01T10:49:21Z</time>
      </trkpt>
      <trkpt lat="42.67144" lon="1.60265">
        <ele>2508</ele>
        <time>2021-07-01T10:49:57Z</time>
      </trkpt>
      <trkpt lat="42.67137" lon="1.60258">
        <ele>2510</ele>
        <time>2021-07-01T10:50:22Z</time>
      </trkpt>
      <trkpt lat="42.67133" lon="1.60257">
        <ele>2510</ele>
        <time>2021-07-01T10:50:33Z</time>
      </trkpt>
      <trkpt lat="42.67131" lon="1.60254">
        <ele>2508</ele>
        <time>2021-07-01T10:50:40Z</time>
      </trkpt>
      <trkpt lat="42.67129" lon="1.6025">
        <ele>2509</ele>
        <time>2021-07-01T10:50:53Z</time>
      </trkpt>
      <trkpt lat="42.67128" lon="1.60245">
        <ele>2510</ele>
        <time>2021-07-01T10:51:41Z</time>
      </trkpt>
      <trkpt lat="42.67126" lon="1.6024">
        <ele>2510</ele>
        <time>2021-07-01T10:51:50Z</time>
      </trkpt>
      <trkpt lat="42.67126" lon="1.60235">
        <ele>2512</ele>
        <time>2021-07-01T10:52:01Z</time>
      </trkpt>
      <trkpt lat="42.67127" lon="1.60229">
        <ele>2514</ele>
        <time>2021-07-01T10:52:36Z</time>
      </trkpt>
      <trkpt lat="42.67126" lon="1.60223">
        <ele>2516</ele>
        <time>2021-07-01T10:52:46Z</time>
      </trkpt>
      <trkpt lat="42.67129" lon="1.6022">
        <ele>2516</ele>
        <time>2021-07-01T10:52:55Z</time>
      </trkpt>
      <trkpt lat="42.67127" lon="1.60218">
        <ele>2520</ele>
        <time>2021-07-01T10:53:08Z</time>
      </trkpt>
      <trkpt lat="42.67127" lon="1.60213">
        <ele>2521</ele>
        <time>2021-07-01T10:54:02Z</time>
      </trkpt>
      <trkpt lat="42.67125" lon="1.60206">
        <ele>2522</ele>
        <time>2021-07-01T10:54:25Z</time>
      </trkpt>
      <trkpt lat="42.67123" lon="1.60202">
        <ele>2525</ele>
        <time>2021-07-01T10:54:37Z</time>
      </trkpt>
      <trkpt lat="42.6712" lon="1.602">
        <ele>2526</ele>
        <time>2021-07-01T10:54:44Z</time>
      </trkpt>
      <trkpt lat="42.6712" lon="1.60196">
        <ele>2528</ele>
        <time>2021-07-01T10:55:12Z</time>
      </trkpt>
      <trkpt lat="42.67118" lon="1.60192">
        <ele>2529</ele>
        <time>2021-07-01T10:55:19Z</time>
      </trkpt>
      <trkpt lat="42.67118" lon="1.60188">
        <ele>2530</ele>
        <time>2021-07-01T10:55:28Z</time>
      </trkpt>
      <trkpt lat="42.6712" lon="1.60183">
        <ele>2533</ele>
        <time>2021-07-01T10:55:42Z</time>
      </trkpt>
      <trkpt lat="42.67122" lon="1.60178">
        <ele>2536</ele>
        <time>2021-07-01T10:55:52Z</time>
      </trkpt>
      <trkpt lat="42.6712" lon="1.60174">
        <ele>2538</ele>
        <time>2021-07-01T10:56:44Z</time>
      </trkpt>
      <trkpt lat="42.67119" lon="1.60168">
        <ele>2538</ele>
        <time>2021-07-01T10:57:01Z</time>
      </trkpt>
      <trkpt lat="42.67121" lon="1.60163">
        <ele>2540</ele>
        <time>2021-07-01T10:57:14Z</time>
      </trkpt>
      <trkpt lat="42.67124" lon="1.6016">
        <ele>2542</ele>
        <time>2021-07-01T10:57:47Z</time>
      </trkpt>
      <trkpt lat="42.67128" lon="1.60158">
        <ele>2542</ele>
        <time>2021-07-01T10:57:55Z</time>
      </trkpt>
      <trkpt lat="42.67131" lon="1.60156">
        <ele>2543</ele>
        <time>2021-07-01T10:58:02Z</time>
      </trkpt>
      <trkpt lat="42.6713" lon="1.6015">
        <ele>2549</ele>
        <time>2021-07-01T10:59:53Z</time>
      </trkpt>
      <trkpt lat="42.67126" lon="1.60148">
        <ele>2548</ele>
        <time>2021-07-01T11:00:00Z</time>
      </trkpt>
      <trkpt lat="42.67125" lon="1.60143">
        <ele>2548</ele>
        <time>2021-07-01T11:00:12Z</time>
      </trkpt>
      <trkpt lat="42.67124" lon="1.60132">
        <ele>2550</ele>
        <time>2021-07-01T11:00:45Z</time>
      </trkpt>
      <trkpt lat="42.67124" lon="1.60127">
        <ele>2551</ele>
        <time>2021-07-01T11:01:01Z</time>
      </trkpt>
      <trkpt lat="42.67123" lon="1.60122">
        <ele>2553</ele>
        <time>2021-07-01T11:01:15Z</time>
      </trkpt>
      <trkpt lat="42.6712" lon="1.6012">
        <ele>2557</ele>
        <time>2021-07-01T11:01:38Z</time>
      </trkpt>
      <trkpt lat="42.6712" lon="1.60115">
        <ele>2557</ele>
        <time>2021-07-01T11:01:48Z</time>
      </trkpt>
      <trkpt lat="42.67117" lon="1.60113">
        <ele>2558</ele>
        <time>2021-07-01T11:02:02Z</time>
      </trkpt>
      <trkpt lat="42.67114" lon="1.60112">
        <ele>2558</ele>
        <time>2021-07-01T11:02:10Z</time>
      </trkpt>
      <trkpt lat="42.67112" lon="1.60109">
        <ele>2557</ele>
        <time>2021-07-01T11:02:28Z</time>
      </trkpt>
      <trkpt lat="42.67111" lon="1.60106">
        <ele>2561</ele>
        <time>2021-07-01T11:05:01Z</time>
      </trkpt>
      <trkpt lat="42.67111" lon="1.60103">
        <ele>2562</ele>
        <time>2021-07-01T11:05:05Z</time>
      </trkpt>
      <trkpt lat="42.67112" lon="1.60098">
        <ele>2563</ele>
        <time>2021-07-01T11:05:15Z</time>
      </trkpt>
      <trkpt lat="42.6711" lon="1.60096">
        <ele>2565</ele>
        <time>2021-07-01T11:07:51Z</time>
      </trkpt>
      <trkpt lat="42.67109" lon="1.60096">
        <ele>2568</ele>
        <time>2021-07-01T11:08:50Z</time>
      </trkpt>
      <trkpt lat="42.67117" lon="1.60175">
        <ele>2540</ele>
        <time>2021-07-01T11:33:03Z</time>
      </trkpt>
      <trkpt lat="42.67117" lon="1.60181">
        <ele>2541</ele>
        <time>2021-07-01T11:33:12Z</time>
      </trkpt>
      <trkpt lat="42.67116" lon="1.60186">
        <ele>2541</ele>
        <time>2021-07-01T11:33:15Z</time>
      </trkpt>
      <trkpt lat="42.67117" lon="1.60189">
        <ele>2540</ele>
        <time>2021-07-01T11:33:19Z</time>
      </trkpt>
      <trkpt lat="42.6712" lon="1.60193">
        <ele>2536</ele>
        <time>2021-07-01T11:33:26Z</time>
      </trkpt>
      <trkpt lat="42.67121" lon="1.60195">
        <ele>2535</ele>
        <time>2021-07-01T11:33:30Z</time>
      </trkpt>
      <trkpt lat="42.67124" lon="1.60196">
        <ele>2534</ele>
        <time>2021-07-01T11:33:35Z</time>
      </trkpt>
      <trkpt lat="42.67124" lon="1.60202">
        <ele>2532</ele>
        <time>2021-07-01T11:33:42Z</time>
      </trkpt>
      <trkpt lat="42.67128" lon="1.60209">
        <ele>2532</ele>
        <time>2021-07-01T11:33:51Z</time>
      </trkpt>
      <trkpt lat="42.67128" lon="1.60214">
        <ele>2532</ele>
        <time>2021-07-01T11:34:00Z</time>
      </trkpt>
      <trkpt lat="42.67127" lon="1.60217">
        <ele>2531</ele>
        <time>2021-07-01T11:34:05Z</time>
      </trkpt>
      <trkpt lat="42.67127" lon="1.6022">
        <ele>2530</ele>
        <time>2021-07-01T11:34:12Z</time>
      </trkpt>
      <trkpt lat="42.67127" lon="1.60223">
        <ele>2529</ele>
        <time>2021-07-01T11:34:26Z</time>
      </trkpt>
      <trkpt lat="42.67127" lon="1.60225">
        <ele>2529</ele>
        <time>2021-07-01T11:34:30Z</time>
      </trkpt>
      <trkpt lat="42.67125" lon="1.60227">
        <ele>2529</ele>
        <time>2021-07-01T11:34:33Z</time>
      </trkpt>
      <trkpt lat="42.67124" lon="1.60229">
        <ele>2528</ele>
        <time>2021-07-01T11:34:37Z</time>
      </trkpt>
      <trkpt lat="42.67124" lon="1.60232">
        <ele>2527</ele>
        <time>2021-07-01T11:34:40Z</time>
      </trkpt>
      <trkpt lat="42.67124" lon="1.60238">
        <ele>2524</ele>
        <time>2021-07-01T11:34:48Z</time>
      </trkpt>
      <trkpt lat="42.67124" lon="1.60241">
        <ele>2523</ele>
        <time>2021-07-01T11:34:51Z</time>
      </trkpt>
      <trkpt lat="42.67126" lon="1.60247">
        <ele>2520</ele>
        <time>2021-07-01T11:35:05Z</time>
      </trkpt>
      <trkpt lat="42.67127" lon="1.60248">
        <ele>2520</ele>
        <time>2021-07-01T11:35:09Z</time>
      </trkpt>
      <trkpt lat="42.67129" lon="1.60251">
        <ele>2519</ele>
        <time>2021-07-01T11:35:12Z</time>
      </trkpt>
      <trkpt lat="42.67131" lon="1.60252">
        <ele>2519</ele>
        <time>2021-07-01T11:35:16Z</time>
      </trkpt>
      <trkpt lat="42.67132" lon="1.60254">
        <ele>2518</ele>
        <time>2021-07-01T11:35:19Z</time>
      </trkpt>
      <trkpt lat="42.67131" lon="1.60256">
        <ele>2517</ele>
        <time>2021-07-01T11:35:24Z</time>
      </trkpt>
      <trkpt lat="42.67133" lon="1.60259">
        <ele>2516</ele>
        <time>2021-07-01T11:35:28Z</time>
      </trkpt>
      <trkpt lat="42.67135" lon="1.60267">
        <ele>2514</ele>
        <time>2021-07-01T11:35:38Z</time>
      </trkpt>
      <trkpt lat="42.67136" lon="1.60268">
        <ele>2513</ele>
        <time>2021-07-01T11:35:41Z</time>
      </trkpt>
      <trkpt lat="42.67135" lon="1.60271">
        <ele>2513</ele>
        <time>2021-07-01T11:35:46Z</time>
      </trkpt>
      <trkpt lat="42.67134" lon="1.60274">
        <ele>2512</ele>
        <time>2021-07-01T11:35:49Z</time>
      </trkpt>
      <trkpt lat="42.67135" lon="1.60281">
        <ele>2510</ele>
        <time>2021-07-01T11:36:00Z</time>
      </trkpt>
      <trkpt lat="42.67134" lon="1.60283">
        <ele>2509</ele>
        <time>2021-07-01T11:36:03Z</time>
      </trkpt>
      <trkpt lat="42.67135" lon="1.60286">
        <ele>2507</ele>
        <time>2021-07-01T11:36:07Z</time>
      </trkpt>
      <trkpt lat="42.67135" lon="1.60289">
        <ele>2506</ele>
        <time>2021-07-01T11:36:11Z</time>
      </trkpt>
      <trkpt lat="42.67135" lon="1.60291">
        <ele>2505</ele>
        <time>2021-07-01T11:36:14Z</time>
      </trkpt>
      <trkpt lat="42.67136" lon="1.60295">
        <ele>2504</ele>
        <time>2021-07-01T11:36:18Z</time>
      </trkpt>
      <trkpt lat="42.67137" lon="1.603">
        <ele>2504</ele>
        <time>2021-07-01T11:36:23Z</time>
      </trkpt>
      <trkpt lat="42.67137" lon="1.60302">
        <ele>2504</ele>
        <time>2021-07-01T11:36:26Z</time>
      </trkpt>
      <trkpt lat="42.67135" lon="1.60303">
        <ele>2504</ele>
        <time>2021-07-01T11:36:29Z</time>
      </trkpt>
      <trkpt lat="42.67134" lon="1.60306">
        <ele>2503</ele>
        <time>2021-07-01T11:36:32Z</time>
      </trkpt>
      <trkpt lat="42.67131" lon="1.60309">
        <ele>2503</ele>
        <time>2021-07-01T11:36:36Z</time>
      </trkpt>
      <trkpt lat="42.67129" lon="1.60311">
        <ele>2503</ele>
        <time>2021-07-01T11:36:38Z</time>
      </trkpt>
      <trkpt lat="42.6713" lon="1.60313">
        <ele>2503</ele>
        <time>2021-07-01T11:36:40Z</time>
      </trkpt>
      <trkpt lat="42.6713" lon="1.60315">
        <ele>2503</ele>
        <time>2021-07-01T11:36:43Z</time>
      </trkpt>
      <trkpt lat="42.67129" lon="1.60318">
        <ele>2502</ele>
        <time>2021-07-01T11:36:46Z</time>
      </trkpt>
      <trkpt lat="42.67129" lon="1.60323">
        <ele>2500</ele>
        <time>2021-07-01T11:36:54Z</time>
      </trkpt>
      <trkpt lat="42.67129" lon="1.60326">
        <ele>2500</ele>
        <time>2021-07-01T11:36:58Z</time>
      </trkpt>
      <trkpt lat="42.6713" lon="1.60328">
        <ele>2498</ele>
        <time>2021-07-01T11:37:02Z</time>
      </trkpt>
      <trkpt lat="42.67129" lon="1.60331">
        <ele>2498</ele>
        <time>2021-07-01T11:37:06Z</time>
      </trkpt>
      <trkpt lat="42.67129" lon="1.60333">
        <ele>2497</ele>
        <time>2021-07-01T11:37:09Z</time>
      </trkpt>
      <trkpt lat="42.67129" lon="1.60335">
        <ele>2496</ele>
        <time>2021-07-01T11:37:12Z</time>
      </trkpt>
      <trkpt lat="42.67129" lon="1.60337">
        <ele>2495</ele>
        <time>2021-07-01T11:37:14Z</time>
      </trkpt>
      <trkpt lat="42.67129" lon="1.6034">
        <ele>2494</ele>
        <time>2021-07-01T11:37:17Z</time>
      </trkpt>
      <trkpt lat="42.67128" lon="1.60342">
        <ele>2493</ele>
        <time>2021-07-01T11:37:21Z</time>
      </trkpt>
      <trkpt lat="42.67129" lon="1.60348">
        <ele>2492</ele>
        <time>2021-07-01T11:37:28Z</time>
      </trkpt>
      <trkpt lat="42.67128" lon="1.60355">
        <ele>2489</ele>
        <time>2021-07-01T11:37:37Z</time>
      </trkpt>
      <trkpt lat="42.67129" lon="1.60359">
        <ele>2488</ele>
        <time>2021-07-01T11:37:42Z</time>
      </trkpt>
      <trkpt lat="42.67129" lon="1.60367">
        <ele>2484</ele>
        <time>2021-07-01T11:37:51Z</time>
      </trkpt>
      <trkpt lat="42.67127" lon="1.60376">
        <ele>2482</ele>
        <time>2021-07-01T11:38:00Z</time>
      </trkpt>
      <trkpt lat="42.67127" lon="1.60379">
        <ele>2480</ele>
        <time>2021-07-01T11:38:03Z</time>
      </trkpt>
      <trkpt lat="42.67128" lon="1.60381">
        <ele>2480</ele>
        <time>2021-07-01T11:38:06Z</time>
      </trkpt>
      <trkpt lat="42.67127" lon="1.60387">
        <ele>2478</ele>
        <time>2021-07-01T11:38:13Z</time>
      </trkpt>
      <trkpt lat="42.67126" lon="1.6039">
        <ele>2477</ele>
        <time>2021-07-01T11:38:16Z</time>
      </trkpt>
      <trkpt lat="42.67125" lon="1.60391">
        <ele>2477</ele>
        <time>2021-07-01T11:38:18Z</time>
      </trkpt>
      <trkpt lat="42.67124" lon="1.60396">
        <ele>2476</ele>
        <time>2021-07-01T11:38:24Z</time>
      </trkpt>
      <trkpt lat="42.67124" lon="1.60402">
        <ele>2475</ele>
        <time>2021-07-01T11:38:31Z</time>
      </trkpt>
      <trkpt lat="42.67123" lon="1.60405">
        <ele>2475</ele>
        <time>2021-07-01T11:38:34Z</time>
      </trkpt>
      <trkpt lat="42.67121" lon="1.60408">
        <ele>2473</ele>
        <time>2021-07-01T11:38:38Z</time>
      </trkpt>
      <trkpt lat="42.67119" lon="1.60414">
        <ele>2472</ele>
        <time>2021-07-01T11:38:44Z</time>
      </trkpt>
      <trkpt lat="42.67119" lon="1.60418">
        <ele>2471</ele>
        <time>2021-07-01T11:38:48Z</time>
      </trkpt>
      <trkpt lat="42.67118" lon="1.6042">
        <ele>2471</ele>
        <time>2021-07-01T11:38:51Z</time>
      </trkpt>
      <trkpt lat="42.67117" lon="1.60422">
        <ele>2470</ele>
        <time>2021-07-01T11:38:53Z</time>
      </trkpt>
      <trkpt lat="42.67115" lon="1.60427">
        <ele>2469</ele>
        <time>2021-07-01T11:39:00Z</time>
      </trkpt>
      <trkpt lat="42.67116" lon="1.6043">
        <ele>2468</ele>
        <time>2021-07-01T11:39:04Z</time>
      </trkpt>
      <trkpt lat="42.67116" lon="1.60436">
        <ele>2466</ele>
        <time>2021-07-01T11:39:14Z</time>
      </trkpt>
      <trkpt lat="42.67118" lon="1.60443">
        <ele>2462</ele>
        <time>2021-07-01T11:39:25Z</time>
      </trkpt>
      <trkpt lat="42.6712" lon="1.60449">
        <ele>2459</ele>
        <time>2021-07-01T11:39:35Z</time>
      </trkpt>
      <trkpt lat="42.67122" lon="1.60451">
        <ele>2458</ele>
        <time>2021-07-01T11:39:39Z</time>
      </trkpt>
      <trkpt lat="42.67124" lon="1.60451">
        <ele>2458</ele>
        <time>2021-07-01T11:39:42Z</time>
      </trkpt>
      <trkpt lat="42.67125" lon="1.60454">
        <ele>2458</ele>
        <time>2021-07-01T11:39:44Z</time>
      </trkpt>
      <trkpt lat="42.67128" lon="1.60455">
        <ele>2457</ele>
        <time>2021-07-01T11:39:49Z</time>
      </trkpt>
      <trkpt lat="42.67128" lon="1.60458">
        <ele>2457</ele>
        <time>2021-07-01T11:39:54Z</time>
      </trkpt>
      <trkpt lat="42.67129" lon="1.60465">
        <ele>2454</ele>
        <time>2021-07-01T11:40:03Z</time>
      </trkpt>
      <trkpt lat="42.67131" lon="1.60468">
        <ele>2453</ele>
        <time>2021-07-01T11:40:07Z</time>
      </trkpt>
      <trkpt lat="42.67132" lon="1.6047">
        <ele>2451</ele>
        <time>2021-07-01T11:40:11Z</time>
      </trkpt>
      <trkpt lat="42.67133" lon="1.60472">
        <ele>2451</ele>
        <time>2021-07-01T11:40:14Z</time>
      </trkpt>
      <trkpt lat="42.67135" lon="1.60473">
        <ele>2450</ele>
        <time>2021-07-01T11:40:16Z</time>
      </trkpt>
      <trkpt lat="42.67137" lon="1.60474">
        <ele>2449</ele>
        <time>2021-07-01T11:40:20Z</time>
      </trkpt>
      <trkpt lat="42.67138" lon="1.60477">
        <ele>2449</ele>
        <time>2021-07-01T11:40:24Z</time>
      </trkpt>
      <trkpt lat="42.67139" lon="1.60479">
        <ele>2448</ele>
        <time>2021-07-01T11:40:26Z</time>
      </trkpt>
      <trkpt lat="42.6714" lon="1.60481">
        <ele>2448</ele>
        <time>2021-07-01T11:40:30Z</time>
      </trkpt>
      <trkpt lat="42.67151" lon="1.60499">
        <ele>2437</ele>
        <time>2021-07-01T11:41:03Z</time>
      </trkpt>
      <trkpt lat="42.67152" lon="1.605">
        <ele>2436</ele>
        <time>2021-07-01T11:41:06Z</time>
      </trkpt>
      <trkpt lat="42.67154" lon="1.60506">
        <ele>2435</ele>
        <time>2021-07-01T11:41:15Z</time>
      </trkpt>
      <trkpt lat="42.67156" lon="1.60514">
        <ele>2431</ele>
        <time>2021-07-01T11:41:25Z</time>
      </trkpt>
      <trkpt lat="42.67162" lon="1.60523">
        <ele>2427</ele>
        <time>2021-07-01T11:41:39Z</time>
      </trkpt>
      <trkpt lat="42.67166" lon="1.6053">
        <ele>2424</ele>
        <time>2021-07-01T11:41:50Z</time>
      </trkpt>
      <trkpt lat="42.67166" lon="1.60534">
        <ele>2424</ele>
        <time>2021-07-01T11:41:54Z</time>
      </trkpt>
      <trkpt lat="42.67169" lon="1.6054">
        <ele>2422</ele>
        <time>2021-07-01T11:42:03Z</time>
      </trkpt>
      <trkpt lat="42.67169" lon="1.60543">
        <ele>2421</ele>
        <time>2021-07-01T11:42:07Z</time>
      </trkpt>
      <trkpt lat="42.67174" lon="1.60552">
        <ele>2417</ele>
        <time>2021-07-01T11:42:21Z</time>
      </trkpt>
      <trkpt lat="42.67175" lon="1.60555">
        <ele>2416</ele>
        <time>2021-07-01T11:42:26Z</time>
      </trkpt>
      <trkpt lat="42.67175" lon="1.60558">
        <ele>2416</ele>
        <time>2021-07-01T11:42:30Z</time>
      </trkpt>
      <trkpt lat="42.67177" lon="1.6056">
        <ele>2414</ele>
        <time>2021-07-01T11:42:34Z</time>
      </trkpt>
      <trkpt lat="42.67177" lon="1.60563">
        <ele>2413</ele>
        <time>2021-07-01T11:42:38Z</time>
      </trkpt>
      <trkpt lat="42.67177" lon="1.60567">
        <ele>2412</ele>
        <time>2021-07-01T11:42:43Z</time>
      </trkpt>
      <trkpt lat="42.67177" lon="1.6057">
        <ele>2411</ele>
        <time>2021-07-01T11:42:47Z</time>
      </trkpt>
      <trkpt lat="42.67178" lon="1.60573">
        <ele>2410</ele>
        <time>2021-07-01T11:42:51Z</time>
      </trkpt>
      <trkpt lat="42.67178" lon="1.60576">
        <ele>2410</ele>
        <time>2021-07-01T11:42:55Z</time>
      </trkpt>
      <trkpt lat="42.67178" lon="1.60578">
        <ele>2410</ele>
        <time>2021-07-01T11:43:00Z</time>
      </trkpt>
      <trkpt lat="42.67179" lon="1.60581">
        <ele>2409</ele>
        <time>2021-07-01T11:43:04Z</time>
      </trkpt>
      <trkpt lat="42.6718" lon="1.60583">
        <ele>2408</ele>
        <time>2021-07-01T11:43:08Z</time>
      </trkpt>
      <trkpt lat="42.67181" lon="1.60589">
        <ele>2406</ele>
        <time>2021-07-01T11:43:14Z</time>
      </trkpt>
      <trkpt lat="42.67182" lon="1.60594">
        <ele>2404</ele>
        <time>2021-07-01T11:43:20Z</time>
      </trkpt>
      <trkpt lat="42.67182" lon="1.60597">
        <ele>2404</ele>
        <time>2021-07-01T11:43:23Z</time>
      </trkpt>
      <trkpt lat="42.67182" lon="1.606">
        <ele>2403</ele>
        <time>2021-07-01T11:43:27Z</time>
      </trkpt>
      <trkpt lat="42.67181" lon="1.60603">
        <ele>2402</ele>
        <time>2021-07-01T11:43:30Z</time>
      </trkpt>
      <trkpt lat="42.6718" lon="1.60607">
        <ele>2402</ele>
        <time>2021-07-01T11:43:36Z</time>
      </trkpt>
      <trkpt lat="42.67181" lon="1.6061">
        <ele>2401</ele>
        <time>2021-07-01T11:43:55Z</time>
      </trkpt>
      <trkpt lat="42.67182" lon="1.60613">
        <ele>2400</ele>
        <time>2021-07-01T11:43:58Z</time>
      </trkpt>
      <trkpt lat="42.67181" lon="1.60616">
        <ele>2400</ele>
        <time>2021-07-01T11:44:04Z</time>
      </trkpt>
      <trkpt lat="42.67182" lon="1.60619">
        <ele>2398</ele>
        <time>2021-07-01T11:44:14Z</time>
      </trkpt>
      <trkpt lat="42.67184" lon="1.6062">
        <ele>2397</ele>
        <time>2021-07-01T11:44:17Z</time>
      </trkpt>
      <trkpt lat="42.67185" lon="1.60623">
        <ele>2396</ele>
        <time>2021-07-01T11:44:21Z</time>
      </trkpt>
      <trkpt lat="42.67187" lon="1.60624">
        <ele>2396</ele>
        <time>2021-07-01T11:44:25Z</time>
      </trkpt>
      <trkpt lat="42.67189" lon="1.60626">
        <ele>2395</ele>
        <time>2021-07-01T11:44:29Z</time>
      </trkpt>
      <trkpt lat="42.6719" lon="1.60628">
        <ele>2393</ele>
        <time>2021-07-01T11:44:31Z</time>
      </trkpt>
      <trkpt lat="42.67194" lon="1.60639">
        <ele>2390</ele>
        <time>2021-07-01T11:44:44Z</time>
      </trkpt>
      <trkpt lat="42.67197" lon="1.60641">
        <ele>2389</ele>
        <time>2021-07-01T11:44:51Z</time>
      </trkpt>
      <trkpt lat="42.67199" lon="1.60643">
        <ele>2388</ele>
        <time>2021-07-01T11:45:02Z</time>
      </trkpt>
      <trkpt lat="42.67207" lon="1.60644">
        <ele>2387</ele>
        <time>2021-07-01T11:45:16Z</time>
      </trkpt>
      <trkpt lat="42.67209" lon="1.60641">
        <ele>2387</ele>
        <time>2021-07-01T11:45:32Z</time>
      </trkpt>
      <trkpt lat="42.67211" lon="1.6064">
        <ele>2386</ele>
        <time>2021-07-01T11:45:35Z</time>
      </trkpt>
      <trkpt lat="42.67213" lon="1.60638">
        <ele>2386</ele>
        <time>2021-07-01T11:45:37Z</time>
      </trkpt>
      <trkpt lat="42.67215" lon="1.60638">
        <ele>2386</ele>
        <time>2021-07-01T11:45:41Z</time>
      </trkpt>
      <trkpt lat="42.67218" lon="1.60634">
        <ele>2384</ele>
        <time>2021-07-01T11:45:53Z</time>
      </trkpt>
      <trkpt lat="42.6722" lon="1.60633">
        <ele>2384</ele>
        <time>2021-07-01T11:45:56Z</time>
      </trkpt>
      <trkpt lat="42.67222" lon="1.60634">
        <ele>2382</ele>
        <time>2021-07-01T11:47:01Z</time>
      </trkpt>
      <trkpt lat="42.67224" lon="1.60633">
        <ele>2383</ele>
        <time>2021-07-01T11:47:35Z</time>
      </trkpt>
      <trkpt lat="42.67226" lon="1.60633">
        <ele>2383</ele>
        <time>2021-07-01T11:47:40Z</time>
      </trkpt>
      <trkpt lat="42.67231" lon="1.60631">
        <ele>2378</ele>
        <time>2021-07-01T11:48:01Z</time>
      </trkpt>
      <trkpt lat="42.67233" lon="1.60631">
        <ele>2376</ele>
        <time>2021-07-01T11:48:20Z</time>
      </trkpt>
      <trkpt lat="42.67235" lon="1.60632">
        <ele>2373</ele>
        <time>2021-07-01T11:48:24Z</time>
      </trkpt>
      <trkpt lat="42.67242" lon="1.60638">
        <ele>2367</ele>
        <time>2021-07-01T11:48:54Z</time>
      </trkpt>
      <trkpt lat="42.67243" lon="1.6064">
        <ele>2365</ele>
        <time>2021-07-01T11:48:58Z</time>
      </trkpt>
      <trkpt lat="42.67245" lon="1.60641">
        <ele>2364</ele>
        <time>2021-07-01T11:49:01Z</time>
      </trkpt>
      <trkpt lat="42.67246" lon="1.60644">
        <ele>2363</ele>
        <time>2021-07-01T11:49:11Z</time>
      </trkpt>
      <trkpt lat="42.67247" lon="1.60645">
        <ele>2362</ele>
        <time>2021-07-01T11:49:16Z</time>
      </trkpt>
      <trkpt lat="42.67249" lon="1.60646">
        <ele>2359</ele>
        <time>2021-07-01T11:49:23Z</time>
      </trkpt>
      <trkpt lat="42.6725" lon="1.60648">
        <ele>2359</ele>
        <time>2021-07-01T11:49:27Z</time>
      </trkpt>
      <trkpt lat="42.67251" lon="1.60651">
        <ele>2358</ele>
        <time>2021-07-01T11:49:32Z</time>
      </trkpt>
      <trkpt lat="42.67249" lon="1.60654">
        <ele>2357</ele>
        <time>2021-07-01T11:49:37Z</time>
      </trkpt>
      <trkpt lat="42.67251" lon="1.60656">
        <ele>2356</ele>
        <time>2021-07-01T11:49:44Z</time>
      </trkpt>
      <trkpt lat="42.67253" lon="1.60658">
        <ele>2354</ele>
        <time>2021-07-01T11:50:09Z</time>
      </trkpt>
      <trkpt lat="42.67255" lon="1.60658">
        <ele>2353</ele>
        <time>2021-07-01T11:50:18Z</time>
      </trkpt>
      <trkpt lat="42.67256" lon="1.60662">
        <ele>2350</ele>
        <time>2021-07-01T11:50:26Z</time>
      </trkpt>
      <trkpt lat="42.67257" lon="1.60666">
        <ele>2349</ele>
        <time>2021-07-01T11:50:31Z</time>
      </trkpt>
      <trkpt lat="42.67259" lon="1.60665">
        <ele>2346</ele>
        <time>2021-07-01T11:50:35Z</time>
      </trkpt>
      <trkpt lat="42.67259" lon="1.60668">
        <ele>2345</ele>
        <time>2021-07-01T11:50:44Z</time>
      </trkpt>
      <trkpt lat="42.67261" lon="1.60669">
        <ele>2344</ele>
        <time>2021-07-01T11:50:49Z</time>
      </trkpt>
      <trkpt lat="42.67263" lon="1.60671">
        <ele>2342</ele>
        <time>2021-07-01T11:50:56Z</time>
      </trkpt>
      <trkpt lat="42.67265" lon="1.60674">
        <ele>2341</ele>
        <time>2021-07-01T11:51:05Z</time>
      </trkpt>
      <trkpt lat="42.6727" lon="1.60679">
        <ele>2337</ele>
        <time>2021-07-01T11:51:20Z</time>
      </trkpt>
      <trkpt lat="42.6727" lon="1.60682">
        <ele>2336</ele>
        <time>2021-07-01T11:51:25Z</time>
      </trkpt>
      <trkpt lat="42.67269" lon="1.60685">
        <ele>2333</ele>
        <time>2021-07-01T11:51:38Z</time>
      </trkpt>
      <trkpt lat="42.6727" lon="1.60688">
        <ele>2331</ele>
        <time>2021-07-01T11:51:43Z</time>
      </trkpt>
      <trkpt lat="42.67272" lon="1.60691">
        <ele>2328</ele>
        <time>2021-07-01T11:51:51Z</time>
      </trkpt>
      <trkpt lat="42.67273" lon="1.60694">
        <ele>2327</ele>
        <time>2021-07-01T11:51:57Z</time>
      </trkpt>
      <trkpt lat="42.67275" lon="1.60695">
        <ele>2323</ele>
        <time>2021-07-01T11:52:03Z</time>
      </trkpt>
      <trkpt lat="42.67278" lon="1.60696">
        <ele>2322</ele>
        <time>2021-07-01T11:52:08Z</time>
      </trkpt>
      <trkpt lat="42.67279" lon="1.60698">
        <ele>2320</ele>
        <time>2021-07-01T11:52:13Z</time>
      </trkpt>
      <trkpt lat="42.67279" lon="1.60702">
        <ele>2319</ele>
        <time>2021-07-01T11:52:18Z</time>
      </trkpt>
      <trkpt lat="42.67281" lon="1.60706">
        <ele>2315</ele>
        <time>2021-07-01T11:52:29Z</time>
      </trkpt>
      <trkpt lat="42.67284" lon="1.60707">
        <ele>2312</ele>
        <time>2021-07-01T11:52:35Z</time>
      </trkpt>
      <trkpt lat="42.67286" lon="1.60709">
        <ele>2312</ele>
        <time>2021-07-01T11:52:41Z</time>
      </trkpt>
      <trkpt lat="42.67287" lon="1.60712">
        <ele>2310</ele>
        <time>2021-07-01T11:52:45Z</time>
      </trkpt>
      <trkpt lat="42.67289" lon="1.60714">
        <ele>2309</ele>
        <time>2021-07-01T11:52:50Z</time>
      </trkpt>
      <trkpt lat="42.67289" lon="1.60718">
        <ele>2308</ele>
        <time>2021-07-01T11:52:55Z</time>
      </trkpt>
      <trkpt lat="42.67291" lon="1.60724">
        <ele>2304</ele>
        <time>2021-07-01T11:53:03Z</time>
      </trkpt>
      <trkpt lat="42.67293" lon="1.60726">
        <ele>2303</ele>
        <time>2021-07-01T11:53:08Z</time>
      </trkpt>
      <trkpt lat="42.67294" lon="1.60729">
        <ele>2303</ele>
        <time>2021-07-01T11:53:12Z</time>
      </trkpt>
      <trkpt lat="42.67294" lon="1.60733">
        <ele>2300</ele>
        <time>2021-07-01T11:53:17Z</time>
      </trkpt>
      <trkpt lat="42.67296" lon="1.60738">
        <ele>2298</ele>
        <time>2021-07-01T11:53:24Z</time>
      </trkpt>
      <trkpt lat="42.67298" lon="1.6074">
        <ele>2297</ele>
        <time>2021-07-01T11:53:28Z</time>
      </trkpt>
      <trkpt lat="42.67299" lon="1.60743">
        <ele>2296</ele>
        <time>2021-07-01T11:53:31Z</time>
      </trkpt>
      <trkpt lat="42.67296" lon="1.60745">
        <ele>2296</ele>
        <time>2021-07-01T11:53:34Z</time>
      </trkpt>
      <trkpt lat="42.67297" lon="1.60751">
        <ele>2294</ele>
        <time>2021-07-01T11:53:40Z</time>
      </trkpt>
      <trkpt lat="42.67297" lon="1.60753">
        <ele>2293</ele>
        <time>2021-07-01T11:53:44Z</time>
      </trkpt>
      <trkpt lat="42.67298" lon="1.60756">
        <ele>2292</ele>
        <time>2021-07-01T11:53:47Z</time>
      </trkpt>
      <trkpt lat="42.673" lon="1.60758">
        <ele>2291</ele>
        <time>2021-07-01T11:53:50Z</time>
      </trkpt>
      <trkpt lat="42.67304" lon="1.60759">
        <ele>2289</ele>
        <time>2021-07-01T11:53:56Z</time>
      </trkpt>
      <trkpt lat="42.67306" lon="1.60765">
        <ele>2287</ele>
        <time>2021-07-01T11:54:04Z</time>
      </trkpt>
      <trkpt lat="42.67307" lon="1.60768">
        <ele>2287</ele>
        <time>2021-07-01T11:54:07Z</time>
      </trkpt>
      <trkpt lat="42.67311" lon="1.60772">
        <ele>2286</ele>
        <time>2021-07-01T11:54:14Z</time>
      </trkpt>
      <trkpt lat="42.67314" lon="1.60772">
        <ele>2283</ele>
        <time>2021-07-01T11:54:18Z</time>
      </trkpt>
      <trkpt lat="42.67316" lon="1.60774">
        <ele>2283</ele>
        <time>2021-07-01T11:54:22Z</time>
      </trkpt>
      <trkpt lat="42.67318" lon="1.60777">
        <ele>2282</ele>
        <time>2021-07-01T11:54:25Z</time>
      </trkpt>
      <trkpt lat="42.6732" lon="1.60779">
        <ele>2281</ele>
        <time>2021-07-01T11:54:28Z</time>
      </trkpt>
      <trkpt lat="42.67322" lon="1.60782">
        <ele>2280</ele>
        <time>2021-07-01T11:54:32Z</time>
      </trkpt>
      <trkpt lat="42.67322" lon="1.60786">
        <ele>2280</ele>
        <time>2021-07-01T11:54:35Z</time>
      </trkpt>
      <trkpt lat="42.67335" lon="1.60808">
        <ele>2276</ele>
        <time>2021-07-01T11:55:00Z</time>
      </trkpt>
      <trkpt lat="42.67336" lon="1.60812">
        <ele>2276</ele>
        <time>2021-07-01T11:55:04Z</time>
      </trkpt>
      <trkpt lat="42.67341" lon="1.60816">
        <ele>2275</ele>
        <time>2021-07-01T11:55:15Z</time>
      </trkpt>
      <trkpt lat="42.67343" lon="1.60818">
        <ele>2275</ele>
        <time>2021-07-01T11:55:19Z</time>
      </trkpt>
      <trkpt lat="42.67345" lon="1.60828">
        <ele>2274</ele>
        <time>2021-07-01T11:55:28Z</time>
      </trkpt>
      <trkpt lat="42.67347" lon="1.60831">
        <ele>2273</ele>
        <time>2021-07-01T11:55:32Z</time>
      </trkpt>
      <trkpt lat="42.67349" lon="1.60832">
        <ele>2273</ele>
        <time>2021-07-01T11:55:35Z</time>
      </trkpt>
      <trkpt lat="42.67348" lon="1.6084">
        <ele>2272</ele>
        <time>2021-07-01T11:55:42Z</time>
      </trkpt>
      <trkpt lat="42.67347" lon="1.60845">
        <ele>2271</ele>
        <time>2021-07-01T11:55:45Z</time>
      </trkpt>
      <trkpt lat="42.67348" lon="1.60849">
        <ele>2270</ele>
        <time>2021-07-01T11:55:48Z</time>
      </trkpt>
      <trkpt lat="42.67349" lon="1.60854">
        <ele>2270</ele>
        <time>2021-07-01T11:55:52Z</time>
      </trkpt>
      <trkpt lat="42.67349" lon="1.60859">
        <ele>2270</ele>
        <time>2021-07-01T11:55:55Z</time>
      </trkpt>
      <trkpt lat="42.67347" lon="1.60862">
        <ele>2269</ele>
        <time>2021-07-01T11:56:16Z</time>
      </trkpt>
      <trkpt lat="42.67346" lon="1.60865">
        <ele>2268</ele>
        <time>2021-07-01T11:56:21Z</time>
      </trkpt>
      <trkpt lat="42.67344" lon="1.60873">
        <ele>2268</ele>
        <time>2021-07-01T11:56:28Z</time>
      </trkpt>
      <trkpt lat="42.67343" lon="1.60875">
        <ele>2268</ele>
        <time>2021-07-01T11:56:32Z</time>
      </trkpt>
      <trkpt lat="42.67342" lon="1.60878">
        <ele>2267</ele>
        <time>2021-07-01T11:56:34Z</time>
      </trkpt>
      <trkpt lat="42.67341" lon="1.60881">
        <ele>2267</ele>
        <time>2021-07-01T11:56:37Z</time>
      </trkpt>
      <trkpt lat="42.67341" lon="1.60886">
        <ele>2266</ele>
        <time>2021-07-01T11:56:42Z</time>
      </trkpt>
      <trkpt lat="42.67342" lon="1.60889">
        <ele>2265</ele>
        <time>2021-07-01T11:56:47Z</time>
      </trkpt>
      <trkpt lat="42.67344" lon="1.609">
        <ele>2262</ele>
        <time>2021-07-01T11:56:58Z</time>
      </trkpt>
      <trkpt lat="42.67345" lon="1.60904">
        <ele>2261</ele>
        <time>2021-07-01T11:57:01Z</time>
      </trkpt>
      <trkpt lat="42.67347" lon="1.6091">
        <ele>2259</ele>
        <time>2021-07-01T11:57:08Z</time>
      </trkpt>
      <trkpt lat="42.67348" lon="1.60914">
        <ele>2259</ele>
        <time>2021-07-01T11:57:12Z</time>
      </trkpt>
      <trkpt lat="42.67355" lon="1.60926">
        <ele>2257</ele>
        <time>2021-07-01T11:57:26Z</time>
      </trkpt>
      <trkpt lat="42.6736" lon="1.60935">
        <ele>2255</ele>
        <time>2021-07-01T11:57:37Z</time>
      </trkpt>
      <trkpt lat="42.67361" lon="1.60939">
        <ele>2254</ele>
        <time>2021-07-01T11:57:42Z</time>
      </trkpt>
      <trkpt lat="42.67365" lon="1.60945">
        <ele>2252</ele>
        <time>2021-07-01T11:57:53Z</time>
      </trkpt>
      <trkpt lat="42.67366" lon="1.60946">
        <ele>2251</ele>
        <time>2021-07-01T11:57:55Z</time>
      </trkpt>
      <trkpt lat="42.67368" lon="1.60948">
        <ele>2250</ele>
        <time>2021-07-01T11:57:59Z</time>
      </trkpt>
      <trkpt lat="42.67369" lon="1.60952">
        <ele>2249</ele>
        <time>2021-07-01T11:58:06Z</time>
      </trkpt>
      <trkpt lat="42.67369" lon="1.60955">
        <ele>2247</ele>
        <time>2021-07-01T11:58:09Z</time>
      </trkpt>
      <trkpt lat="42.6737" lon="1.60958">
        <ele>2245</ele>
        <time>2021-07-01T11:58:13Z</time>
      </trkpt>
      <trkpt lat="42.67371" lon="1.60961">
        <ele>2244</ele>
        <time>2021-07-01T11:58:17Z</time>
      </trkpt>
      <trkpt lat="42.67373" lon="1.60963">
        <ele>2244</ele>
        <time>2021-07-01T11:58:21Z</time>
      </trkpt>
      <trkpt lat="42.67386" lon="1.60981">
        <ele>2237</ele>
        <time>2021-07-01T11:58:45Z</time>
      </trkpt>
      <trkpt lat="42.67391" lon="1.60989">
        <ele>2235</ele>
        <time>2021-07-01T11:58:55Z</time>
      </trkpt>
      <trkpt lat="42.67392" lon="1.60992">
        <ele>2235</ele>
        <time>2021-07-01T11:59:06Z</time>
      </trkpt>
      <trkpt lat="42.67392" lon="1.60994">
        <ele>2235</ele>
        <time>2021-07-01T11:59:08Z</time>
      </trkpt>
      <trkpt lat="42.67392" lon="1.60996">
        <ele>2234</ele>
        <time>2021-07-01T11:59:10Z</time>
      </trkpt>
      <trkpt lat="42.67393" lon="1.61006">
        <ele>2232</ele>
        <time>2021-07-01T11:59:19Z</time>
      </trkpt>
      <trkpt lat="42.67395" lon="1.61009">
        <ele>2231</ele>
        <time>2021-07-01T11:59:31Z</time>
      </trkpt>
      <trkpt lat="42.67392" lon="1.6101">
        <ele>2231</ele>
        <time>2021-07-01T11:59:41Z</time>
      </trkpt>
      <trkpt lat="42.67389" lon="1.6101">
        <ele>2231</ele>
        <time>2021-07-01T11:59:45Z</time>
      </trkpt>
      <trkpt lat="42.67387" lon="1.61012">
        <ele>2230</ele>
        <time>2021-07-01T11:59:49Z</time>
      </trkpt>
      <trkpt lat="42.67385" lon="1.61015">
        <ele>2230</ele>
        <time>2021-07-01T11:59:52Z</time>
      </trkpt>
      <trkpt lat="42.67385" lon="1.6102">
        <ele>2229</ele>
        <time>2021-07-01T11:59:57Z</time>
      </trkpt>
      <trkpt lat="42.67386" lon="1.61023">
        <ele>2228</ele>
        <time>2021-07-01T12:00:02Z</time>
      </trkpt>
      <trkpt lat="42.67387" lon="1.61027">
        <ele>2228</ele>
        <time>2021-07-01T12:00:07Z</time>
      </trkpt>
      <trkpt lat="42.67387" lon="1.61034">
        <ele>2226</ele>
        <time>2021-07-01T12:00:19Z</time>
      </trkpt>
      <trkpt lat="42.67386" lon="1.61037">
        <ele>2226</ele>
        <time>2021-07-01T12:00:25Z</time>
      </trkpt>
      <trkpt lat="42.67387" lon="1.61041">
        <ele>2224</ele>
        <time>2021-07-01T12:00:30Z</time>
      </trkpt>
      <trkpt lat="42.67386" lon="1.61043">
        <ele>2222</ele>
        <time>2021-07-01T12:00:34Z</time>
      </trkpt>
      <trkpt lat="42.67388" lon="1.61044">
        <ele>2221</ele>
        <time>2021-07-01T12:00:42Z</time>
      </trkpt>
      <trkpt lat="42.67388" lon="1.61048">
        <ele>2218</ele>
        <time>2021-07-01T12:00:53Z</time>
      </trkpt>
      <trkpt lat="42.67389" lon="1.61051">
        <ele>2216</ele>
        <time>2021-07-01T12:01:01Z</time>
      </trkpt>
      <trkpt lat="42.67393" lon="1.61057">
        <ele>2214</ele>
        <time>2021-07-01T12:01:12Z</time>
      </trkpt>
      <trkpt lat="42.67395" lon="1.61059">
        <ele>2213</ele>
        <time>2021-07-01T12:01:16Z</time>
      </trkpt>
      <trkpt lat="42.67395" lon="1.61062">
        <ele>2213</ele>
        <time>2021-07-01T12:01:20Z</time>
      </trkpt>
      <trkpt lat="42.67394" lon="1.61064">
        <ele>2211</ele>
        <time>2021-07-01T12:01:23Z</time>
      </trkpt>
      <trkpt lat="42.67393" lon="1.61067">
        <ele>2210</ele>
        <time>2021-07-01T12:01:27Z</time>
      </trkpt>
      <trkpt lat="42.67395" lon="1.61079">
        <ele>2204</ele>
        <time>2021-07-01T12:01:46Z</time>
      </trkpt>
      <trkpt lat="42.67395" lon="1.61081">
        <ele>2202</ele>
        <time>2021-07-01T12:01:52Z</time>
      </trkpt>
      <trkpt lat="42.67395" lon="1.61084">
        <ele>2201</ele>
        <time>2021-07-01T12:01:55Z</time>
      </trkpt>
      <trkpt lat="42.67396" lon="1.61087">
        <ele>2200</ele>
        <time>2021-07-01T12:01:59Z</time>
      </trkpt>
      <trkpt lat="42.67396" lon="1.6109">
        <ele>2200</ele>
        <time>2021-07-01T12:02:04Z</time>
      </trkpt>
      <trkpt lat="42.67396" lon="1.61093">
        <ele>2198</ele>
        <time>2021-07-01T12:02:07Z</time>
      </trkpt>
      <trkpt lat="42.67397" lon="1.61097">
        <ele>2197</ele>
        <time>2021-07-01T12:02:12Z</time>
      </trkpt>
      <trkpt lat="42.67398" lon="1.611">
        <ele>2196</ele>
        <time>2021-07-01T12:02:16Z</time>
      </trkpt>
      <trkpt lat="42.674" lon="1.61103">
        <ele>2195</ele>
        <time>2021-07-01T12:02:20Z</time>
      </trkpt>
      <trkpt lat="42.67401" lon="1.6111">
        <ele>2193</ele>
        <time>2021-07-01T12:02:28Z</time>
      </trkpt>
      <trkpt lat="42.67402" lon="1.61113">
        <ele>2192</ele>
        <time>2021-07-01T12:02:32Z</time>
      </trkpt>
      <trkpt lat="42.67403" lon="1.61117">
        <ele>2191</ele>
        <time>2021-07-01T12:02:36Z</time>
      </trkpt>
      <trkpt lat="42.67403" lon="1.61123">
        <ele>2190</ele>
        <time>2021-07-01T12:02:43Z</time>
      </trkpt>
      <trkpt lat="42.67404" lon="1.61126">
        <ele>2189</ele>
        <time>2021-07-01T12:02:46Z</time>
      </trkpt>
      <trkpt lat="42.67406" lon="1.61128">
        <ele>2188</ele>
        <time>2021-07-01T12:02:50Z</time>
      </trkpt>
      <trkpt lat="42.67406" lon="1.61145">
        <ele>2183</ele>
        <time>2021-07-01T12:03:07Z</time>
      </trkpt>
      <trkpt lat="42.67407" lon="1.61152">
        <ele>2181</ele>
        <time>2021-07-01T12:03:14Z</time>
      </trkpt>
      <trkpt lat="42.67408" lon="1.61156">
        <ele>2180</ele>
        <time>2021-07-01T12:03:18Z</time>
      </trkpt>
      <trkpt lat="42.67408" lon="1.61159">
        <ele>2179</ele>
        <time>2021-07-01T12:03:21Z</time>
      </trkpt>
      <trkpt lat="42.67406" lon="1.61166">
        <ele>2178</ele>
        <time>2021-07-01T12:03:26Z</time>
      </trkpt>
      <trkpt lat="42.67403" lon="1.61168">
        <ele>2177</ele>
        <time>2021-07-01T12:03:28Z</time>
      </trkpt>
      <trkpt lat="42.67401" lon="1.61175">
        <ele>2176</ele>
        <time>2021-07-01T12:03:34Z</time>
      </trkpt>
      <trkpt lat="42.67401" lon="1.61179">
        <ele>2175</ele>
        <time>2021-07-01T12:03:36Z</time>
      </trkpt>
      <trkpt lat="42.67401" lon="1.61183">
        <ele>2175</ele>
        <time>2021-07-01T12:03:39Z</time>
      </trkpt>
      <trkpt lat="42.67401" lon="1.61191">
        <ele>2174</ele>
        <time>2021-07-01T12:03:45Z</time>
      </trkpt>
      <trkpt lat="42.67403" lon="1.61201">
        <ele>2174</ele>
        <time>2021-07-01T12:03:53Z</time>
      </trkpt>
      <trkpt lat="42.67404" lon="1.61208">
        <ele>2172</ele>
        <time>2021-07-01T12:03:58Z</time>
      </trkpt>
      <trkpt lat="42.67403" lon="1.61211">
        <ele>2172</ele>
        <time>2021-07-01T12:04:00Z</time>
      </trkpt>
      <trkpt lat="42.67401" lon="1.61213">
        <ele>2172</ele>
        <time>2021-07-01T12:04:06Z</time>
      </trkpt>
      <trkpt lat="42.67401" lon="1.61216">
        <ele>2171</ele>
        <time>2021-07-01T12:04:08Z</time>
      </trkpt>
      <trkpt lat="42.674" lon="1.61227">
        <ele>2170</ele>
        <time>2021-07-01T12:04:16Z</time>
      </trkpt>
      <trkpt lat="42.67402" lon="1.61239">
        <ele>2170</ele>
        <time>2021-07-01T12:04:25Z</time>
      </trkpt>
      <trkpt lat="42.67401" lon="1.61242">
        <ele>2170</ele>
        <time>2021-07-01T12:04:28Z</time>
      </trkpt>
      <trkpt lat="42.67402" lon="1.61245">
        <ele>2170</ele>
        <time>2021-07-01T12:04:30Z</time>
      </trkpt>
      <trkpt lat="42.67402" lon="1.6125">
        <ele>2170</ele>
        <time>2021-07-01T12:04:34Z</time>
      </trkpt>
      <trkpt lat="42.67402" lon="1.61253">
        <ele>2170</ele>
        <time>2021-07-01T12:04:37Z</time>
      </trkpt>
      <trkpt lat="42.67401" lon="1.61255">
        <ele>2170</ele>
        <time>2021-07-01T12:04:41Z</time>
      </trkpt>
      <trkpt lat="42.67399" lon="1.61262">
        <ele>2167</ele>
        <time>2021-07-01T12:04:48Z</time>
      </trkpt>
      <trkpt lat="42.67398" lon="1.61265">
        <ele>2167</ele>
        <time>2021-07-01T12:04:52Z</time>
      </trkpt>
      <trkpt lat="42.67397" lon="1.61272">
        <ele>2166</ele>
        <time>2021-07-01T12:05:00Z</time>
      </trkpt>
      <trkpt lat="42.67399" lon="1.61275">
        <ele>2165</ele>
        <time>2021-07-01T12:05:03Z</time>
      </trkpt>
      <trkpt lat="42.674" lon="1.61285">
        <ele>2165</ele>
        <time>2021-07-01T12:05:11Z</time>
      </trkpt>
      <trkpt lat="42.67401" lon="1.61288">
        <ele>2164</ele>
        <time>2021-07-01T12:05:14Z</time>
      </trkpt>
      <trkpt lat="42.67401" lon="1.61305">
        <ele>2163</ele>
        <time>2021-07-01T12:05:27Z</time>
      </trkpt>
      <trkpt lat="42.674" lon="1.61308">
        <ele>2163</ele>
        <time>2021-07-01T12:05:29Z</time>
      </trkpt>
      <trkpt lat="42.67399" lon="1.61311">
        <ele>2163</ele>
        <time>2021-07-01T12:05:32Z</time>
      </trkpt>
      <trkpt lat="42.67399" lon="1.61315">
        <ele>2162</ele>
        <time>2021-07-01T12:05:35Z</time>
      </trkpt>
      <trkpt lat="42.67399" lon="1.61319">
        <ele>2162</ele>
        <time>2021-07-01T12:05:38Z</time>
      </trkpt>
      <trkpt lat="42.67401" lon="1.61325">
        <ele>2162</ele>
        <time>2021-07-01T12:05:45Z</time>
      </trkpt>
      <trkpt lat="42.67402" lon="1.61328">
        <ele>2161</ele>
        <time>2021-07-01T12:05:48Z</time>
      </trkpt>
      <trkpt lat="42.67401" lon="1.61331">
        <ele>2161</ele>
        <time>2021-07-01T12:05:51Z</time>
      </trkpt>
      <trkpt lat="42.67402" lon="1.61334">
        <ele>2160</ele>
        <time>2021-07-01T12:05:54Z</time>
      </trkpt>
      <trkpt lat="42.67403" lon="1.61341">
        <ele>2159</ele>
        <time>2021-07-01T12:05:59Z</time>
      </trkpt>
      <trkpt lat="42.67404" lon="1.61344">
        <ele>2159</ele>
        <time>2021-07-01T12:06:02Z</time>
      </trkpt>
      <trkpt lat="42.67406" lon="1.61347">
        <ele>2158</ele>
        <time>2021-07-01T12:06:05Z</time>
      </trkpt>
      <trkpt lat="42.67401" lon="1.61349">
        <ele>2157</ele>
        <time>2021-07-01T12:06:12Z</time>
      </trkpt>
      <trkpt lat="42.67399" lon="1.6135">
        <ele>2156</ele>
        <time>2021-07-01T12:06:15Z</time>
      </trkpt>
      <trkpt lat="42.674" lon="1.61352">
        <ele>2156</ele>
        <time>2021-07-01T12:06:25Z</time>
      </trkpt>
      <trkpt lat="42.67401" lon="1.61354">
        <ele>2155</ele>
        <time>2021-07-01T12:06:28Z</time>
      </trkpt>
      <trkpt lat="42.67402" lon="1.6136">
        <ele>2154</ele>
        <time>2021-07-01T12:06:34Z</time>
      </trkpt>
      <trkpt lat="42.674" lon="1.61358">
        <ele>2154</ele>
        <time>2021-07-01T12:06:45Z</time>
      </trkpt>
      <trkpt lat="42.67398" lon="1.61357">
        <ele>2153</ele>
        <time>2021-07-01T12:06:47Z</time>
      </trkpt>
      <trkpt lat="42.67395" lon="1.61358">
        <ele>2152</ele>
        <time>2021-07-01T12:06:53Z</time>
      </trkpt>
      <trkpt lat="42.67392" lon="1.61358">
        <ele>2151</ele>
        <time>2021-07-01T12:07:04Z</time>
      </trkpt>
      <trkpt lat="42.6739" lon="1.61357">
        <ele>2150</ele>
        <time>2021-07-01T12:07:08Z</time>
      </trkpt>
      <trkpt lat="42.67388" lon="1.61359">
        <ele>2149</ele>
        <time>2021-07-01T12:07:13Z</time>
      </trkpt>
      <trkpt lat="42.67386" lon="1.6136">
        <ele>2147</ele>
        <time>2021-07-01T12:07:17Z</time>
      </trkpt>
      <trkpt lat="42.67385" lon="1.61359">
        <ele>2147</ele>
        <time>2021-07-01T12:07:21Z</time>
      </trkpt>
      <trkpt lat="42.67383" lon="1.61361">
        <ele>2145</ele>
        <time>2021-07-01T12:07:26Z</time>
      </trkpt>
      <trkpt lat="42.67382" lon="1.61364">
        <ele>2144</ele>
        <time>2021-07-01T12:07:29Z</time>
      </trkpt>
      <trkpt lat="42.67381" lon="1.61366">
        <ele>2144</ele>
        <time>2021-07-01T12:07:33Z</time>
      </trkpt>
      <trkpt lat="42.67379" lon="1.61367">
        <ele>2143</ele>
        <time>2021-07-01T12:07:36Z</time>
      </trkpt>
      <trkpt lat="42.67376" lon="1.61372">
        <ele>2142</ele>
        <time>2021-07-01T12:07:47Z</time>
      </trkpt>
      <trkpt lat="42.67375" lon="1.61374">
        <ele>2140</ele>
        <time>2021-07-01T12:07:55Z</time>
      </trkpt>
      <trkpt lat="42.67373" lon="1.61375">
        <ele>2140</ele>
        <time>2021-07-01T12:07:58Z</time>
      </trkpt>
      <trkpt lat="42.67373" lon="1.61378">
        <ele>2139</ele>
        <time>2021-07-01T12:08:01Z</time>
      </trkpt>
      <trkpt lat="42.67371" lon="1.61379">
        <ele>2138</ele>
        <time>2021-07-01T12:08:10Z</time>
      </trkpt>
      <trkpt lat="42.67369" lon="1.61379">
        <ele>2136</ele>
        <time>2021-07-01T12:08:14Z</time>
      </trkpt>
      <trkpt lat="42.67367" lon="1.61381">
        <ele>2136</ele>
        <time>2021-07-01T12:08:19Z</time>
      </trkpt>
      <trkpt lat="42.67365" lon="1.61382">
        <ele>2132</ele>
        <time>2021-07-01T12:08:28Z</time>
      </trkpt>
      <trkpt lat="42.67362" lon="1.61383">
        <ele>2130</ele>
        <time>2021-07-01T12:08:38Z</time>
      </trkpt>
      <trkpt lat="42.6736" lon="1.61384">
        <ele>2126</ele>
        <time>2021-07-01T12:08:46Z</time>
      </trkpt>
      <trkpt lat="42.67359" lon="1.61386">
        <ele>2125</ele>
        <time>2021-07-01T12:08:51Z</time>
      </trkpt>
      <trkpt lat="42.67358" lon="1.61389">
        <ele>2122</ele>
        <time>2021-07-01T12:08:57Z</time>
      </trkpt>
      <trkpt lat="42.67355" lon="1.61394">
        <ele>2118</ele>
        <time>2021-07-01T12:09:08Z</time>
      </trkpt>
      <trkpt lat="42.67351" lon="1.614">
        <ele>2116</ele>
        <time>2021-07-01T12:09:20Z</time>
      </trkpt>
      <trkpt lat="42.67349" lon="1.61402">
        <ele>2116</ele>
        <time>2021-07-01T12:09:24Z</time>
      </trkpt>
      <trkpt lat="42.67349" lon="1.61405">
        <ele>2115</ele>
        <time>2021-07-01T12:09:27Z</time>
      </trkpt>
      <trkpt lat="42.67348" lon="1.61408">
        <ele>2115</ele>
        <time>2021-07-01T12:09:30Z</time>
      </trkpt>
      <trkpt lat="42.67347" lon="1.61411">
        <ele>2113</ele>
        <time>2021-07-01T12:09:33Z</time>
      </trkpt>
      <trkpt lat="42.67348" lon="1.61415">
        <ele>2113</ele>
        <time>2021-07-01T12:09:37Z</time>
      </trkpt>
      <trkpt lat="42.67346" lon="1.61417">
        <ele>2111</ele>
        <time>2021-07-01T12:09:44Z</time>
      </trkpt>
      <trkpt lat="42.67342" lon="1.61416">
        <ele>2109</ele>
        <time>2021-07-01T12:09:54Z</time>
      </trkpt>
      <trkpt lat="42.67341" lon="1.61419">
        <ele>2108</ele>
        <time>2021-07-01T12:09:57Z</time>
      </trkpt>
      <trkpt lat="42.67339" lon="1.61421">
        <ele>2107</ele>
        <time>2021-07-01T12:10:01Z</time>
      </trkpt>
      <trkpt lat="42.67337" lon="1.61423">
        <ele>2106</ele>
        <time>2021-07-01T12:10:04Z</time>
      </trkpt>
      <trkpt lat="42.67336" lon="1.61427">
        <ele>2105</ele>
        <time>2021-07-01T12:10:09Z</time>
      </trkpt>
      <trkpt lat="42.67331" lon="1.61428">
        <ele>2105</ele>
        <time>2021-07-01T12:10:16Z</time>
      </trkpt>
      <trkpt lat="42.6733" lon="1.61431">
        <ele>2104</ele>
        <time>2021-07-01T12:10:19Z</time>
      </trkpt>
      <trkpt lat="42.6733" lon="1.61434">
        <ele>2104</ele>
        <time>2021-07-01T12:10:23Z</time>
      </trkpt>
      <trkpt lat="42.67329" lon="1.61438">
        <ele>2104</ele>
        <time>2021-07-01T12:10:28Z</time>
      </trkpt>
      <trkpt lat="42.67331" lon="1.61444">
        <ele>2102</ele>
        <time>2021-07-01T12:10:36Z</time>
      </trkpt>
      <trkpt lat="42.67329" lon="1.61448">
        <ele>2102</ele>
        <time>2021-07-01T12:10:40Z</time>
      </trkpt>
      <trkpt lat="42.67328" lon="1.6145">
        <ele>2102</ele>
        <time>2021-07-01T12:10:43Z</time>
      </trkpt>
      <trkpt lat="42.67327" lon="1.61452">
        <ele>2102</ele>
        <time>2021-07-01T12:10:45Z</time>
      </trkpt>
      <trkpt lat="42.67326" lon="1.61454">
        <ele>2101</ele>
        <time>2021-07-01T12:10:47Z</time>
      </trkpt>
      <trkpt lat="42.67323" lon="1.61456">
        <ele>2100</ele>
        <time>2021-07-01T12:10:51Z</time>
      </trkpt>
      <trkpt lat="42.67322" lon="1.61459">
        <ele>2099</ele>
        <time>2021-07-01T12:10:54Z</time>
      </trkpt>
      <trkpt lat="42.6732" lon="1.61461">
        <ele>2099</ele>
        <time>2021-07-01T12:10:57Z</time>
      </trkpt>
      <trkpt lat="42.67317" lon="1.61462">
        <ele>2099</ele>
        <time>2021-07-01T12:11:00Z</time>
      </trkpt>
      <trkpt lat="42.67315" lon="1.61466">
        <ele>2099</ele>
        <time>2021-07-01T12:11:03Z</time>
      </trkpt>
      <trkpt lat="42.67313" lon="1.61471">
        <ele>2098</ele>
        <time>2021-07-01T12:11:08Z</time>
      </trkpt>
      <trkpt lat="42.67313" lon="1.61476">
        <ele>2098</ele>
        <time>2021-07-01T12:11:11Z</time>
      </trkpt>
      <trkpt lat="42.67311" lon="1.61482">
        <ele>2098</ele>
        <time>2021-07-01T12:11:16Z</time>
      </trkpt>
      <trkpt lat="42.67307" lon="1.61487">
        <ele>2097</ele>
        <time>2021-07-01T12:11:21Z</time>
      </trkpt>
      <trkpt lat="42.673" lon="1.61497">
        <ele>2096</ele>
        <time>2021-07-01T12:11:31Z</time>
      </trkpt>
      <trkpt lat="42.67296" lon="1.615">
        <ele>2096</ele>
        <time>2021-07-01T12:11:38Z</time>
      </trkpt>
      <trkpt lat="42.67295" lon="1.61504">
        <ele>2096</ele>
        <time>2021-07-01T12:11:42Z</time>
      </trkpt>
      <trkpt lat="42.67295" lon="1.61505">
        <ele>2097</ele>
        <time>2021-07-01T12:12:00Z</time>
      </trkpt>
      <trkpt lat="42.67294" lon="1.61506">
        <ele>2096</ele>
        <time>2021-07-01T12:12:19Z</time>
      </trkpt>
      <trkpt lat="42.6729" lon="1.61512">
        <ele>2096</ele>
        <time>2021-07-01T12:12:26Z</time>
      </trkpt>
      <trkpt lat="42.67288" lon="1.61514">
        <ele>2095</ele>
        <time>2021-07-01T12:12:29Z</time>
      </trkpt>
      <trkpt lat="42.6728" lon="1.61518">
        <ele>2096</ele>
        <time>2021-07-01T12:12:37Z</time>
      </trkpt>
      <trkpt lat="42.67277" lon="1.6152">
        <ele>2097</ele>
        <time>2021-07-01T12:12:41Z</time>
      </trkpt>
      <trkpt lat="42.67275" lon="1.61524">
        <ele>2097</ele>
        <time>2021-07-01T12:12:45Z</time>
      </trkpt>
      <trkpt lat="42.67277" lon="1.61526">
        <ele>2097</ele>
        <time>2021-07-01T12:12:48Z</time>
      </trkpt>
      <trkpt lat="42.67276" lon="1.61529">
        <ele>2096</ele>
        <time>2021-07-01T12:12:51Z</time>
      </trkpt>
      <trkpt lat="42.67275" lon="1.61532">
        <ele>2096</ele>
        <time>2021-07-01T12:12:54Z</time>
      </trkpt>
      <trkpt lat="42.67274" lon="1.61534">
        <ele>2095</ele>
        <time>2021-07-01T12:12:57Z</time>
      </trkpt>
      <trkpt lat="42.67273" lon="1.61537">
        <ele>2095</ele>
        <time>2021-07-01T12:13:00Z</time>
      </trkpt>
      <trkpt lat="42.6727" lon="1.61541">
        <ele>2094</ele>
        <time>2021-07-01T12:13:04Z</time>
      </trkpt>
      <trkpt lat="42.67269" lon="1.61544">
        <ele>2094</ele>
        <time>2021-07-01T12:13:07Z</time>
      </trkpt>
      <trkpt lat="42.6727" lon="1.61546">
        <ele>2094</ele>
        <time>2021-07-01T12:13:13Z</time>
      </trkpt>
      <trkpt lat="42.6727" lon="1.6155">
        <ele>2093</ele>
        <time>2021-07-01T12:13:18Z</time>
      </trkpt>
      <trkpt lat="42.67269" lon="1.61556">
        <ele>2092</ele>
        <time>2021-07-01T12:13:24Z</time>
      </trkpt>
      <trkpt lat="42.67268" lon="1.61559">
        <ele>2091</ele>
        <time>2021-07-01T12:13:27Z</time>
      </trkpt>
      <trkpt lat="42.67266" lon="1.61561">
        <ele>2091</ele>
        <time>2021-07-01T12:13:32Z</time>
      </trkpt>
      <trkpt lat="42.67264" lon="1.6157">
        <ele>2089</ele>
        <time>2021-07-01T12:13:54Z</time>
      </trkpt>
      <trkpt lat="42.67262" lon="1.61571">
        <ele>2089</ele>
        <time>2021-07-01T12:13:58Z</time>
      </trkpt>
      <trkpt lat="42.6726" lon="1.61572">
        <ele>2090</ele>
        <time>2021-07-01T12:14:01Z</time>
      </trkpt>
      <trkpt lat="42.67259" lon="1.61578">
        <ele>2089</ele>
        <time>2021-07-01T12:14:10Z</time>
      </trkpt>
      <trkpt lat="42.67258" lon="1.61581">
        <ele>2088</ele>
        <time>2021-07-01T12:14:15Z</time>
      </trkpt>
      <trkpt lat="42.67257" lon="1.61584">
        <ele>2088</ele>
        <time>2021-07-01T12:14:20Z</time>
      </trkpt>
      <trkpt lat="42.67257" lon="1.61587">
        <ele>2087</ele>
        <time>2021-07-01T12:14:23Z</time>
      </trkpt>
      <trkpt lat="42.67258" lon="1.6159">
        <ele>2086</ele>
        <time>2021-07-01T12:14:27Z</time>
      </trkpt>
      <trkpt lat="42.67257" lon="1.61593">
        <ele>2086</ele>
        <time>2021-07-01T12:14:30Z</time>
      </trkpt>
      <trkpt lat="42.67257" lon="1.61595">
        <ele>2086</ele>
        <time>2021-07-01T12:16:27Z</time>
      </trkpt>
      <trkpt lat="42.67257" lon="1.61598">
        <ele>2085</ele>
        <time>2021-07-01T12:16:31Z</time>
      </trkpt>
      <trkpt lat="42.67253" lon="1.61602">
        <ele>2080</ele>
        <time>2021-07-01T12:16:41Z</time>
      </trkpt>
      <trkpt lat="42.67252" lon="1.61604">
        <ele>2079</ele>
        <time>2021-07-01T12:16:44Z</time>
      </trkpt>
      <trkpt lat="42.67251" lon="1.61612">
        <ele>2077</ele>
        <time>2021-07-01T12:16:56Z</time>
      </trkpt>
      <trkpt lat="42.67249" lon="1.61614">
        <ele>2076</ele>
        <time>2021-07-01T12:16:59Z</time>
      </trkpt>
      <trkpt lat="42.67249" lon="1.61616">
        <ele>2076</ele>
        <time>2021-07-01T12:17:03Z</time>
      </trkpt>
      <trkpt lat="42.67248" lon="1.61619">
        <ele>2075</ele>
        <time>2021-07-01T12:17:07Z</time>
      </trkpt>
      <trkpt lat="42.67248" lon="1.61622">
        <ele>2073</ele>
        <time>2021-07-01T12:17:10Z</time>
      </trkpt>
      <trkpt lat="42.67247" lon="1.61625">
        <ele>2072</ele>
        <time>2021-07-01T12:17:13Z</time>
      </trkpt>
      <trkpt lat="42.67247" lon="1.61628">
        <ele>2072</ele>
        <time>2021-07-01T12:17:17Z</time>
      </trkpt>
      <trkpt lat="42.67246" lon="1.6163">
        <ele>2071</ele>
        <time>2021-07-01T12:18:05Z</time>
      </trkpt>
      <trkpt lat="42.67244" lon="1.61633">
        <ele>2071</ele>
        <time>2021-07-01T12:18:45Z</time>
      </trkpt>
      <trkpt lat="42.67242" lon="1.61636">
        <ele>2071</ele>
        <time>2021-07-01T12:18:49Z</time>
      </trkpt>
      <trkpt lat="42.6724" lon="1.61637">
        <ele>2071</ele>
        <time>2021-07-01T12:18:52Z</time>
      </trkpt>
      <trkpt lat="42.67237" lon="1.61642">
        <ele>2070</ele>
        <time>2021-07-01T12:18:58Z</time>
      </trkpt>
      <trkpt lat="42.67236" lon="1.61644">
        <ele>2070</ele>
        <time>2021-07-01T12:19:01Z</time>
      </trkpt>
      <trkpt lat="42.67235" lon="1.61647">
        <ele>2069</ele>
        <time>2021-07-01T12:19:04Z</time>
      </trkpt>
      <trkpt lat="42.67233" lon="1.6165">
        <ele>2069</ele>
        <time>2021-07-01T12:19:09Z</time>
      </trkpt>
      <trkpt lat="42.67233" lon="1.61654">
        <ele>2069</ele>
        <time>2021-07-01T12:19:13Z</time>
      </trkpt>
      <trkpt lat="42.67232" lon="1.61657">
        <ele>2069</ele>
        <time>2021-07-01T12:19:16Z</time>
      </trkpt>
      <trkpt lat="42.67229" lon="1.61663">
        <ele>2069</ele>
        <time>2021-07-01T12:19:22Z</time>
      </trkpt>
      <trkpt lat="42.67227" lon="1.61665">
        <ele>2069</ele>
        <time>2021-07-01T12:19:24Z</time>
      </trkpt>
      <trkpt lat="42.67226" lon="1.61668">
        <ele>2069</ele>
        <time>2021-07-01T12:19:27Z</time>
      </trkpt>
      <trkpt lat="42.67225" lon="1.61671">
        <ele>2068</ele>
        <time>2021-07-01T12:19:30Z</time>
      </trkpt>
      <trkpt lat="42.67224" lon="1.61674">
        <ele>2068</ele>
        <time>2021-07-01T12:19:33Z</time>
      </trkpt>
      <trkpt lat="42.67222" lon="1.61676">
        <ele>2067</ele>
        <time>2021-07-01T12:19:36Z</time>
      </trkpt>
      <trkpt lat="42.67219" lon="1.61682">
        <ele>2067</ele>
        <time>2021-07-01T12:19:41Z</time>
      </trkpt>
      <trkpt lat="42.67219" lon="1.61685">
        <ele>2067</ele>
        <time>2021-07-01T12:19:44Z</time>
      </trkpt>
      <trkpt lat="42.67219" lon="1.61689">
        <ele>2067</ele>
        <time>2021-07-01T12:19:47Z</time>
      </trkpt>
      <trkpt lat="42.67221" lon="1.61692">
        <ele>2068</ele>
        <time>2021-07-01T12:19:50Z</time>
      </trkpt>
      <trkpt lat="42.67221" lon="1.617">
        <ele>2068</ele>
        <time>2021-07-01T12:19:59Z</time>
      </trkpt>
      <trkpt lat="42.67221" lon="1.61703">
        <ele>2068</ele>
        <time>2021-07-01T12:20:03Z</time>
      </trkpt>
      <trkpt lat="42.67222" lon="1.61711">
        <ele>2067</ele>
        <time>2021-07-01T12:20:10Z</time>
      </trkpt>
      <trkpt lat="42.6722" lon="1.61715">
        <ele>2067</ele>
        <time>2021-07-01T12:20:13Z</time>
      </trkpt>
      <trkpt lat="42.6722" lon="1.61719">
        <ele>2067</ele>
        <time>2021-07-01T12:20:19Z</time>
      </trkpt>
      <trkpt lat="42.67218" lon="1.61723">
        <ele>2068</ele>
        <time>2021-07-01T12:20:53Z</time>
      </trkpt>
      <trkpt lat="42.67217" lon="1.61724">
        <ele>2068</ele>
        <time>2021-07-01T12:20:56Z</time>
      </trkpt>
      <trkpt lat="42.67217" lon="1.61728">
        <ele>2067</ele>
        <time>2021-07-01T12:21:20Z</time>
      </trkpt>
      <trkpt lat="42.67216" lon="1.61733">
        <ele>2067</ele>
        <time>2021-07-01T12:21:27Z</time>
      </trkpt>
      <trkpt lat="42.67215" lon="1.61735">
        <ele>2066</ele>
        <time>2021-07-01T12:21:35Z</time>
      </trkpt>
      <trkpt lat="42.67213" lon="1.6174">
        <ele>2065</ele>
        <time>2021-07-01T12:21:39Z</time>
      </trkpt>
      <trkpt lat="42.67213" lon="1.61742">
        <ele>2065</ele>
        <time>2021-07-01T12:22:01Z</time>
      </trkpt>
      <trkpt lat="42.67212" lon="1.61744">
        <ele>2064</ele>
        <time>2021-07-01T12:22:06Z</time>
      </trkpt>
      <trkpt lat="42.67211" lon="1.61748">
        <ele>2063</ele>
        <time>2021-07-01T12:22:11Z</time>
      </trkpt>
      <trkpt lat="42.67207" lon="1.61752">
        <ele>2060</ele>
        <time>2021-07-01T12:22:28Z</time>
      </trkpt>
      <trkpt lat="42.67205" lon="1.61755">
        <ele>2058</ele>
        <time>2021-07-01T12:22:31Z</time>
      </trkpt>
      <trkpt lat="42.67206" lon="1.61758">
        <ele>2057</ele>
        <time>2021-07-01T12:22:35Z</time>
      </trkpt>
      <trkpt lat="42.67207" lon="1.61761">
        <ele>2055</ele>
        <time>2021-07-01T12:22:40Z</time>
      </trkpt>
      <trkpt lat="42.67205" lon="1.61764">
        <ele>2055</ele>
        <time>2021-07-01T12:22:52Z</time>
      </trkpt>
      <trkpt lat="42.67204" lon="1.61767">
        <ele>2051</ele>
        <time>2021-07-01T12:23:00Z</time>
      </trkpt>
      <trkpt lat="42.67202" lon="1.61773">
        <ele>2048</ele>
        <time>2021-07-01T12:23:20Z</time>
      </trkpt>
      <trkpt lat="42.67199" lon="1.61773">
        <ele>2047</ele>
        <time>2021-07-01T12:23:25Z</time>
      </trkpt>
      <trkpt lat="42.67198" lon="1.61775">
        <ele>2045</ele>
        <time>2021-07-01T12:23:33Z</time>
      </trkpt>
      <trkpt lat="42.67198" lon="1.61778">
        <ele>2042</ele>
        <time>2021-07-01T12:23:40Z</time>
      </trkpt>
      <trkpt lat="42.67195" lon="1.61781">
        <ele>2041</ele>
        <time>2021-07-01T12:23:49Z</time>
      </trkpt>
      <trkpt lat="42.67194" lon="1.61784">
        <ele>2038</ele>
        <time>2021-07-01T12:23:57Z</time>
      </trkpt>
      <trkpt lat="42.67194" lon="1.61788">
        <ele>2038</ele>
        <time>2021-07-01T12:24:01Z</time>
      </trkpt>
      <trkpt lat="42.67192" lon="1.61789">
        <ele>2035</ele>
        <time>2021-07-01T12:24:17Z</time>
      </trkpt>
      <trkpt lat="42.67191" lon="1.61792">
        <ele>2032</ele>
        <time>2021-07-01T12:24:25Z</time>
      </trkpt>
      <trkpt lat="42.67189" lon="1.61796">
        <ele>2030</ele>
        <time>2021-07-01T12:24:33Z</time>
      </trkpt>
      <trkpt lat="42.67187" lon="1.61796">
        <ele>2027</ele>
        <time>2021-07-01T12:24:51Z</time>
      </trkpt>
      <trkpt lat="42.67186" lon="1.618">
        <ele>2026</ele>
        <time>2021-07-01T12:25:04Z</time>
      </trkpt>
      <trkpt lat="42.67186" lon="1.61804">
        <ele>2025</ele>
        <time>2021-07-01T12:25:08Z</time>
      </trkpt>
      <trkpt lat="42.67184" lon="1.61807">
        <ele>2024</ele>
        <time>2021-07-01T12:25:18Z</time>
      </trkpt>
      <trkpt lat="42.67182" lon="1.61811">
        <ele>2021</ele>
        <time>2021-07-01T12:25:28Z</time>
      </trkpt>
      <trkpt lat="42.67179" lon="1.61812">
        <ele>2020</ele>
        <time>2021-07-01T12:25:40Z</time>
      </trkpt>
      <trkpt lat="42.67177" lon="1.61813">
        <ele>2015</ele>
        <time>2021-07-01T12:25:55Z</time>
      </trkpt>
      <trkpt lat="42.67179" lon="1.6182">
        <ele>2014</ele>
        <time>2021-07-01T12:26:06Z</time>
      </trkpt>
      <trkpt lat="42.67178" lon="1.61828">
        <ele>2012</ele>
        <time>2021-07-01T12:26:23Z</time>
      </trkpt>
      <trkpt lat="42.67178" lon="1.61831">
        <ele>2012</ele>
        <time>2021-07-01T12:26:38Z</time>
      </trkpt>
      <trkpt lat="42.67175" lon="1.61834">
        <ele>2011</ele>
        <time>2021-07-01T12:26:44Z</time>
      </trkpt>
      <trkpt lat="42.67174" lon="1.61836">
        <ele>2010</ele>
        <time>2021-07-01T12:26:59Z</time>
      </trkpt>
      <trkpt lat="42.67173" lon="1.61838">
        <ele>2008</ele>
        <time>2021-07-01T12:27:04Z</time>
      </trkpt>
      <trkpt lat="42.67168" lon="1.61843">
        <ele>2005</ele>
        <time>2021-07-01T12:27:15Z</time>
      </trkpt>
      <trkpt lat="42.67167" lon="1.61846">
        <ele>2005</ele>
        <time>2021-07-01T12:27:18Z</time>
      </trkpt>
      <trkpt lat="42.67165" lon="1.61848">
        <ele>2004</ele>
        <time>2021-07-01T12:27:23Z</time>
      </trkpt>
      <trkpt lat="42.67165" lon="1.61852">
        <ele>2003</ele>
        <time>2021-07-01T12:27:32Z</time>
      </trkpt>
      <trkpt lat="42.67166" lon="1.61855">
        <ele>2003</ele>
        <time>2021-07-01T12:27:36Z</time>
      </trkpt>
      <trkpt lat="42.67165" lon="1.61859">
        <ele>2002</ele>
        <time>2021-07-01T12:27:42Z</time>
      </trkpt>
      <trkpt lat="42.67166" lon="1.61863">
        <ele>2002</ele>
        <time>2021-07-01T12:27:46Z</time>
      </trkpt>
      <trkpt lat="42.67163" lon="1.61872">
        <ele>2000</ele>
        <time>2021-07-01T12:27:57Z</time>
      </trkpt>
      <trkpt lat="42.67161" lon="1.61879">
        <ele>1999</ele>
        <time>2021-07-01T12:28:04Z</time>
      </trkpt>
      <trkpt lat="42.6716" lon="1.61882">
        <ele>1999</ele>
        <time>2021-07-01T12:28:08Z</time>
      </trkpt>
      <trkpt lat="42.67153" lon="1.61901">
        <ele>1994</ele>
        <time>2021-07-01T12:28:38Z</time>
      </trkpt>
      <trkpt lat="42.67152" lon="1.61904">
        <ele>1993</ele>
        <time>2021-07-01T12:28:42Z</time>
      </trkpt>
      <trkpt lat="42.67146" lon="1.61919">
        <ele>1989</ele>
        <time>2021-07-01T12:28:58Z</time>
      </trkpt>
      <trkpt lat="42.67144" lon="1.61921">
        <ele>1989</ele>
        <time>2021-07-01T12:29:02Z</time>
      </trkpt>
      <trkpt lat="42.67142" lon="1.61929">
        <ele>1988</ele>
        <time>2021-07-01T12:29:14Z</time>
      </trkpt>
      <trkpt lat="42.67141" lon="1.61933">
        <ele>1988</ele>
        <time>2021-07-01T12:29:18Z</time>
      </trkpt>
      <trkpt lat="42.67138" lon="1.61935">
        <ele>1988</ele>
        <time>2021-07-01T12:29:21Z</time>
      </trkpt>
      <trkpt lat="42.67136" lon="1.61943">
        <ele>1985</ele>
        <time>2021-07-01T12:29:30Z</time>
      </trkpt>
      <trkpt lat="42.67133" lon="1.61945">
        <ele>1985</ele>
        <time>2021-07-01T12:29:33Z</time>
      </trkpt>
      <trkpt lat="42.67131" lon="1.61948">
        <ele>1984</ele>
        <time>2021-07-01T12:29:36Z</time>
      </trkpt>
      <trkpt lat="42.67129" lon="1.61955">
        <ele>1983</ele>
        <time>2021-07-01T12:29:42Z</time>
      </trkpt>
      <trkpt lat="42.67125" lon="1.6196">
        <ele>1983</ele>
        <time>2021-07-01T12:29:47Z</time>
      </trkpt>
      <trkpt lat="42.67118" lon="1.61969">
        <ele>1983</ele>
        <time>2021-07-01T12:29:57Z</time>
      </trkpt>
      <trkpt lat="42.67116" lon="1.6197">
        <ele>1984</ele>
        <time>2021-07-01T12:30:00Z</time>
      </trkpt>
      <trkpt lat="42.67114" lon="1.61977">
        <ele>1983</ele>
        <time>2021-07-01T12:30:08Z</time>
      </trkpt>
      <trkpt lat="42.67114" lon="1.61981">
        <ele>1983</ele>
        <time>2021-07-01T12:30:11Z</time>
      </trkpt>
      <trkpt lat="42.67112" lon="1.61984">
        <ele>1983</ele>
        <time>2021-07-01T12:30:13Z</time>
      </trkpt>
      <trkpt lat="42.67111" lon="1.61988">
        <ele>1983</ele>
        <time>2021-07-01T12:30:16Z</time>
      </trkpt>
      <trkpt lat="42.67109" lon="1.6199">
        <ele>1983</ele>
        <time>2021-07-01T12:30:24Z</time>
      </trkpt>
      <trkpt lat="42.67108" lon="1.61993">
        <ele>1983</ele>
        <time>2021-07-01T12:30:28Z</time>
      </trkpt>
      <trkpt lat="42.67106" lon="1.61995">
        <ele>1983</ele>
        <time>2021-07-01T12:30:40Z</time>
      </trkpt>
      <trkpt lat="42.67105" lon="1.61998">
        <ele>1983</ele>
        <time>2021-07-01T12:30:42Z</time>
      </trkpt>
      <trkpt lat="42.67104" lon="1.62001">
        <ele>1983</ele>
        <time>2021-07-01T12:30:46Z</time>
      </trkpt>
      <trkpt lat="42.67102" lon="1.62004">
        <ele>1983</ele>
        <time>2021-07-01T12:30:51Z</time>
      </trkpt>
      <trkpt lat="42.67099" lon="1.6201">
        <ele>1984</ele>
        <time>2021-07-01T12:30:58Z</time>
      </trkpt>
      <trkpt lat="42.67097" lon="1.62013">
        <ele>1984</ele>
        <time>2021-07-01T12:31:00Z</time>
      </trkpt>
      <trkpt lat="42.67097" lon="1.62015">
        <ele>1984</ele>
        <time>2021-07-01T12:31:03Z</time>
      </trkpt>
      <trkpt lat="42.67096" lon="1.62018">
        <ele>1985</ele>
        <time>2021-07-01T12:31:07Z</time>
      </trkpt>
      <trkpt lat="42.67093" lon="1.62025">
        <ele>1985</ele>
        <time>2021-07-01T12:31:15Z</time>
      </trkpt>
      <trkpt lat="42.6709" lon="1.6203">
        <ele>1985</ele>
        <time>2021-07-01T12:31:21Z</time>
      </trkpt>
      <trkpt lat="42.6709" lon="1.62034">
        <ele>1984</ele>
        <time>2021-07-01T12:31:25Z</time>
      </trkpt>
      <trkpt lat="42.67087" lon="1.62035">
        <ele>1984</ele>
        <time>2021-07-01T12:31:28Z</time>
      </trkpt>
      <trkpt lat="42.67085" lon="1.62038">
        <ele>1983</ele>
        <time>2021-07-01T12:31:31Z</time>
      </trkpt>
      <trkpt lat="42.67083" lon="1.62038">
        <ele>1985</ele>
        <time>2021-07-01T12:31:47Z</time>
      </trkpt>
      <trkpt lat="42.67081" lon="1.6204">
        <ele>1985</ele>
        <time>2021-07-01T12:31:50Z</time>
      </trkpt>
      <trkpt lat="42.67079" lon="1.62042">
        <ele>1985</ele>
        <time>2021-07-01T12:31:52Z</time>
      </trkpt>
      <trkpt lat="42.67076" lon="1.6205">
        <ele>1984</ele>
        <time>2021-07-01T12:31:58Z</time>
      </trkpt>
      <trkpt lat="42.67074" lon="1.62059">
        <ele>1983</ele>
        <time>2021-07-01T12:32:05Z</time>
      </trkpt>
      <trkpt lat="42.67072" lon="1.62061">
        <ele>1983</ele>
        <time>2021-07-01T12:32:08Z</time>
      </trkpt>
      <trkpt lat="42.67071" lon="1.62067">
        <ele>1983</ele>
        <time>2021-07-01T12:32:14Z</time>
      </trkpt>
      <trkpt lat="42.67069" lon="1.6207">
        <ele>1984</ele>
        <time>2021-07-01T12:32:18Z</time>
      </trkpt>
      <trkpt lat="42.67068" lon="1.62072">
        <ele>1983</ele>
        <time>2021-07-01T12:32:22Z</time>
      </trkpt>
      <trkpt lat="42.67069" lon="1.62075">
        <ele>1983</ele>
        <time>2021-07-01T12:32:27Z</time>
      </trkpt>
      <trkpt lat="42.67069" lon="1.62078">
        <ele>1982</ele>
        <time>2021-07-01T12:32:31Z</time>
      </trkpt>
      <trkpt lat="42.67068" lon="1.6208">
        <ele>1982</ele>
        <time>2021-07-01T12:32:34Z</time>
      </trkpt>
      <trkpt lat="42.67067" lon="1.62083">
        <ele>1982</ele>
        <time>2021-07-01T12:32:37Z</time>
      </trkpt>
      <trkpt lat="42.67067" lon="1.62087">
        <ele>1982</ele>
        <time>2021-07-01T12:32:41Z</time>
      </trkpt>
      <trkpt lat="42.67066" lon="1.62089">
        <ele>1982</ele>
        <time>2021-07-01T12:32:44Z</time>
      </trkpt>
      <trkpt lat="42.67066" lon="1.62095">
        <ele>1983</ele>
        <time>2021-07-01T12:32:53Z</time>
      </trkpt>
      <trkpt lat="42.67066" lon="1.62098">
        <ele>1983</ele>
        <time>2021-07-01T12:32:57Z</time>
      </trkpt>
      <trkpt lat="42.67065" lon="1.62101">
        <ele>1983</ele>
        <time>2021-07-01T12:33:03Z</time>
      </trkpt>
      <trkpt lat="42.67063" lon="1.62106">
        <ele>1982</ele>
        <time>2021-07-01T12:33:11Z</time>
      </trkpt>
      <trkpt lat="42.67064" lon="1.62109">
        <ele>1981</ele>
        <time>2021-07-01T12:33:14Z</time>
      </trkpt>
      <trkpt lat="42.67062" lon="1.6211">
        <ele>1981</ele>
        <time>2021-07-01T12:33:19Z</time>
      </trkpt>
      <trkpt lat="42.67061" lon="1.62112">
        <ele>1981</ele>
        <time>2021-07-01T12:33:22Z</time>
      </trkpt>
      <trkpt lat="42.6706" lon="1.62114">
        <ele>1980</ele>
        <time>2021-07-01T12:33:24Z</time>
      </trkpt>
      <trkpt lat="42.67059" lon="1.62116">
        <ele>1980</ele>
        <time>2021-07-01T12:33:27Z</time>
      </trkpt>
      <trkpt lat="42.67057" lon="1.6212">
        <ele>1980</ele>
        <time>2021-07-01T12:33:35Z</time>
      </trkpt>
      <trkpt lat="42.67054" lon="1.62125">
        <ele>1980</ele>
        <time>2021-07-01T12:33:43Z</time>
      </trkpt>
      <trkpt lat="42.67051" lon="1.62127">
        <ele>1979</ele>
        <time>2021-07-01T12:33:48Z</time>
      </trkpt>
      <trkpt lat="42.67049" lon="1.62129">
        <ele>1979</ele>
        <time>2021-07-01T12:33:51Z</time>
      </trkpt>
      <trkpt lat="42.67048" lon="1.62131">
        <ele>1978</ele>
        <time>2021-07-01T12:33:55Z</time>
      </trkpt>
      <trkpt lat="42.67046" lon="1.62132">
        <ele>1978</ele>
        <time>2021-07-01T12:33:57Z</time>
      </trkpt>
      <trkpt lat="42.67045" lon="1.62135">
        <ele>1977</ele>
        <time>2021-07-01T12:34:00Z</time>
      </trkpt>
      <trkpt lat="42.67046" lon="1.62139">
        <ele>1976</ele>
        <time>2021-07-01T12:34:03Z</time>
      </trkpt>
      <trkpt lat="42.67045" lon="1.62141">
        <ele>1976</ele>
        <time>2021-07-01T12:34:06Z</time>
      </trkpt>
      <trkpt lat="42.67043" lon="1.62143">
        <ele>1975</ele>
        <time>2021-07-01T12:34:11Z</time>
      </trkpt>
      <trkpt lat="42.67039" lon="1.62142">
        <ele>1973</ele>
        <time>2021-07-01T12:34:17Z</time>
      </trkpt>
      <trkpt lat="42.67036" lon="1.62144">
        <ele>1975</ele>
        <time>2021-07-01T12:34:20Z</time>
      </trkpt>
      <trkpt lat="42.67034" lon="1.62146">
        <ele>1975</ele>
        <time>2021-07-01T12:34:24Z</time>
      </trkpt>
      <trkpt lat="42.67031" lon="1.62147">
        <ele>1974</ele>
        <time>2021-07-01T12:34:29Z</time>
      </trkpt>
      <trkpt lat="42.67029" lon="1.62149">
        <ele>1974</ele>
        <time>2021-07-01T12:34:34Z</time>
      </trkpt>
      <trkpt lat="42.67027" lon="1.62147">
        <ele>1975</ele>
        <time>2021-07-01T12:34:39Z</time>
      </trkpt>
      <trkpt lat="42.67024" lon="1.62145">
        <ele>1975</ele>
        <time>2021-07-01T12:34:42Z</time>
      </trkpt>
      <trkpt lat="42.67022" lon="1.62146">
        <ele>1976</ele>
        <time>2021-07-01T12:34:45Z</time>
      </trkpt>
      <trkpt lat="42.6702" lon="1.62148">
        <ele>1975</ele>
        <time>2021-07-01T12:34:48Z</time>
      </trkpt>
      <trkpt lat="42.67018" lon="1.62152">
        <ele>1975</ele>
        <time>2021-07-01T12:34:54Z</time>
      </trkpt>
      <trkpt lat="42.67017" lon="1.62154">
        <ele>1975</ele>
        <time>2021-07-01T12:34:58Z</time>
      </trkpt>
      <trkpt lat="42.67016" lon="1.62157">
        <ele>1974</ele>
        <time>2021-07-01T12:35:01Z</time>
      </trkpt>
      <trkpt lat="42.67014" lon="1.62159">
        <ele>1973</ele>
        <time>2021-07-01T12:35:04Z</time>
      </trkpt>
      <trkpt lat="42.67005" lon="1.62165">
        <ele>1972</ele>
        <time>2021-07-01T12:35:15Z</time>
      </trkpt>
      <trkpt lat="42.67002" lon="1.62165">
        <ele>1971</ele>
        <time>2021-07-01T12:35:18Z</time>
      </trkpt>
      <trkpt lat="42.66999" lon="1.62166">
        <ele>1971</ele>
        <time>2021-07-01T12:35:21Z</time>
      </trkpt>
      <trkpt lat="42.66995" lon="1.62169">
        <ele>1971</ele>
        <time>2021-07-01T12:35:25Z</time>
      </trkpt>
      <trkpt lat="42.66993" lon="1.6217">
        <ele>1971</ele>
        <time>2021-07-01T12:35:28Z</time>
      </trkpt>
      <trkpt lat="42.6699" lon="1.62171">
        <ele>1971</ele>
        <time>2021-07-01T12:35:32Z</time>
      </trkpt>
      <trkpt lat="42.66988" lon="1.62173">
        <ele>1971</ele>
        <time>2021-07-01T12:35:34Z</time>
      </trkpt>
      <trkpt lat="42.66983" lon="1.62177">
        <ele>1970</ele>
        <time>2021-07-01T12:35:40Z</time>
      </trkpt>
      <trkpt lat="42.66983" lon="1.62179">
        <ele>1970</ele>
        <time>2021-07-01T12:35:45Z</time>
      </trkpt>
      <trkpt lat="42.66983" lon="1.62181">
        <ele>1970</ele>
        <time>2021-07-01T12:35:49Z</time>
      </trkpt>
      <trkpt lat="42.66983" lon="1.62184">
        <ele>1971</ele>
        <time>2021-07-01T12:35:53Z</time>
      </trkpt>
      <trkpt lat="42.66982" lon="1.62187">
        <ele>1971</ele>
        <time>2021-07-01T12:35:57Z</time>
      </trkpt>
      <trkpt lat="42.6698" lon="1.62188">
        <ele>1971</ele>
        <time>2021-07-01T12:36:05Z</time>
      </trkpt>
      <trkpt lat="42.6697" lon="1.622">
        <ele>1971</ele>
        <time>2021-07-01T12:36:20Z</time>
      </trkpt>
      <trkpt lat="42.66972" lon="1.62202">
        <ele>1971</ele>
        <time>2021-07-01T12:36:37Z</time>
      </trkpt>
      <trkpt lat="42.66972" lon="1.62205">
        <ele>1970</ele>
        <time>2021-07-01T12:36:40Z</time>
      </trkpt>
      <trkpt lat="42.66973" lon="1.62209">
        <ele>1970</ele>
        <time>2021-07-01T12:36:44Z</time>
      </trkpt>
      <trkpt lat="42.66977" lon="1.62214">
        <ele>1970</ele>
        <time>2021-07-01T12:36:53Z</time>
      </trkpt>
      <trkpt lat="42.66979" lon="1.62216">
        <ele>1969</ele>
        <time>2021-07-01T12:36:57Z</time>
      </trkpt>
      <trkpt lat="42.66982" lon="1.62217">
        <ele>1970</ele>
        <time>2021-07-01T12:37:01Z</time>
      </trkpt>
      <trkpt lat="42.66984" lon="1.62218">
        <ele>1970</ele>
        <time>2021-07-01T12:37:07Z</time>
      </trkpt>
      <trkpt lat="42.66985" lon="1.62215">
        <ele>1969</ele>
        <time>2021-07-01T12:37:14Z</time>
      </trkpt>
      <trkpt lat="42.66987" lon="1.62213">
        <ele>1969</ele>
        <time>2021-07-01T12:37:20Z</time>
      </trkpt>
      <trkpt lat="42.6699" lon="1.62213">
        <ele>1969</ele>
        <time>2021-07-01T12:37:25Z</time>
      </trkpt>
      <trkpt lat="42.66992" lon="1.62214">
        <ele>1968</ele>
        <time>2021-07-01T12:37:27Z</time>
      </trkpt>
      <trkpt lat="42.66994" lon="1.62216">
        <ele>1968</ele>
        <time>2021-07-01T12:37:33Z</time>
      </trkpt>
      <trkpt lat="42.66996" lon="1.62218">
        <ele>1968</ele>
        <time>2021-07-01T12:37:36Z</time>
      </trkpt>
      <trkpt lat="42.66998" lon="1.62221">
        <ele>1968</ele>
        <time>2021-07-01T12:37:40Z</time>
      </trkpt>
      <trkpt lat="42.66998" lon="1.62224">
        <ele>1968</ele>
        <time>2021-07-01T12:37:44Z</time>
      </trkpt>
      <trkpt lat="42.66998" lon="1.62227">
        <ele>1968</ele>
        <time>2021-07-01T12:37:47Z</time>
      </trkpt>
      <trkpt lat="42.66996" lon="1.62229">
        <ele>1968</ele>
        <time>2021-07-01T12:37:50Z</time>
      </trkpt>
      <trkpt lat="42.66995" lon="1.62232">
        <ele>1969</ele>
        <time>2021-07-01T12:37:53Z</time>
      </trkpt>
      <trkpt lat="42.66994" lon="1.62235">
        <ele>1970</ele>
        <time>2021-07-01T12:37:56Z</time>
      </trkpt>
      <trkpt lat="42.66993" lon="1.62237">
        <ele>1969</ele>
        <time>2021-07-01T12:38:00Z</time>
      </trkpt>
      <trkpt lat="42.66993" lon="1.6224">
        <ele>1968</ele>
        <time>2021-07-01T12:38:03Z</time>
      </trkpt>
      <trkpt lat="42.66989" lon="1.62243">
        <ele>1966</ele>
        <time>2021-07-01T12:38:11Z</time>
      </trkpt>
      <trkpt lat="42.66987" lon="1.62245">
        <ele>1966</ele>
        <time>2021-07-01T12:38:14Z</time>
      </trkpt>
      <trkpt lat="42.66986" lon="1.62246">
        <ele>1965</ele>
        <time>2021-07-01T12:38:18Z</time>
      </trkpt>
      <trkpt lat="42.66984" lon="1.62248">
        <ele>1965</ele>
        <time>2021-07-01T12:38:22Z</time>
      </trkpt>
      <trkpt lat="42.6698" lon="1.62253">
        <ele>1965</ele>
        <time>2021-07-01T12:38:29Z</time>
      </trkpt>
      <trkpt lat="42.66977" lon="1.62258">
        <ele>1963</ele>
        <time>2021-07-01T12:38:38Z</time>
      </trkpt>
      <trkpt lat="42.66973" lon="1.62259">
        <ele>1961</ele>
        <time>2021-07-01T12:38:44Z</time>
      </trkpt>
      <trkpt lat="42.66972" lon="1.6226">
        <ele>1961</ele>
        <time>2021-07-01T12:38:46Z</time>
      </trkpt>
      <trkpt lat="42.6697" lon="1.62262">
        <ele>1961</ele>
        <time>2021-07-01T12:38:49Z</time>
      </trkpt>
      <trkpt lat="42.66968" lon="1.62262">
        <ele>1960</ele>
        <time>2021-07-01T12:38:52Z</time>
      </trkpt>
      <trkpt lat="42.66966" lon="1.62267">
        <ele>1958</ele>
        <time>2021-07-01T12:38:57Z</time>
      </trkpt>
      <trkpt lat="42.6696" lon="1.62274">
        <ele>1957</ele>
        <time>2021-07-01T12:39:08Z</time>
      </trkpt>
      <trkpt lat="42.66958" lon="1.62274">
        <ele>1957</ele>
        <time>2021-07-01T12:39:11Z</time>
      </trkpt>
      <trkpt lat="42.66956" lon="1.62276">
        <ele>1956</ele>
        <time>2021-07-01T12:39:13Z</time>
      </trkpt>
      <trkpt lat="42.66955" lon="1.62279">
        <ele>1955</ele>
        <time>2021-07-01T12:39:16Z</time>
      </trkpt>
      <trkpt lat="42.66954" lon="1.6228">
        <ele>1954</ele>
        <time>2021-07-01T12:39:20Z</time>
      </trkpt>
      <trkpt lat="42.66952" lon="1.62281">
        <ele>1953</ele>
        <time>2021-07-01T12:39:24Z</time>
      </trkpt>
      <trkpt lat="42.66951" lon="1.62282">
        <ele>1953</ele>
        <time>2021-07-01T12:39:26Z</time>
      </trkpt>
      <trkpt lat="42.66947" lon="1.62285">
        <ele>1953</ele>
        <time>2021-07-01T12:39:34Z</time>
      </trkpt>
      <trkpt lat="42.66945" lon="1.62287">
        <ele>1953</ele>
        <time>2021-07-01T12:39:37Z</time>
      </trkpt>
      <trkpt lat="42.66944" lon="1.6229">
        <ele>1952</ele>
        <time>2021-07-01T12:39:40Z</time>
      </trkpt>
      <trkpt lat="42.66942" lon="1.62295">
        <ele>1951</ele>
        <time>2021-07-01T12:39:45Z</time>
      </trkpt>
      <trkpt lat="42.66941" lon="1.62298">
        <ele>1951</ele>
        <time>2021-07-01T12:39:48Z</time>
      </trkpt>
      <trkpt lat="42.6694" lon="1.62301">
        <ele>1949</ele>
        <time>2021-07-01T12:39:51Z</time>
      </trkpt>
      <trkpt lat="42.66939" lon="1.62305">
        <ele>1949</ele>
        <time>2021-07-01T12:39:54Z</time>
      </trkpt>
      <trkpt lat="42.66941" lon="1.62309">
        <ele>1948</ele>
        <time>2021-07-01T12:39:58Z</time>
      </trkpt>
      <trkpt lat="42.6694" lon="1.62312">
        <ele>1948</ele>
        <time>2021-07-01T12:40:02Z</time>
      </trkpt>
      <trkpt lat="42.66938" lon="1.62323">
        <ele>1947</ele>
        <time>2021-07-01T12:40:09Z</time>
      </trkpt>
      <trkpt lat="42.66938" lon="1.62327">
        <ele>1947</ele>
        <time>2021-07-01T12:40:12Z</time>
      </trkpt>
      <trkpt lat="42.66937" lon="1.62334">
        <ele>1947</ele>
        <time>2021-07-01T12:40:18Z</time>
      </trkpt>
      <trkpt lat="42.66935" lon="1.62337">
        <ele>1947</ele>
        <time>2021-07-01T12:40:21Z</time>
      </trkpt>
      <trkpt lat="42.66934" lon="1.6234">
        <ele>1947</ele>
        <time>2021-07-01T12:40:30Z</time>
      </trkpt>
      <trkpt lat="42.66932" lon="1.62342">
        <ele>1949</ele>
        <time>2021-07-01T12:41:19Z</time>
      </trkpt>
      <trkpt lat="42.66931" lon="1.62344">
        <ele>1946</ele>
        <time>2021-07-01T12:41:24Z</time>
      </trkpt>
      <trkpt lat="42.66929" lon="1.62344">
        <ele>1946</ele>
        <time>2021-07-01T12:41:29Z</time>
      </trkpt>
      <trkpt lat="42.66928" lon="1.62346">
        <ele>1945</ele>
        <time>2021-07-01T12:41:33Z</time>
      </trkpt>
      <trkpt lat="42.66926" lon="1.62348">
        <ele>1944</ele>
        <time>2021-07-01T12:41:36Z</time>
      </trkpt>
      <trkpt lat="42.66921" lon="1.62353">
        <ele>1943</ele>
        <time>2021-07-01T12:41:47Z</time>
      </trkpt>
      <trkpt lat="42.66914" lon="1.62353">
        <ele>1940</ele>
        <time>2021-07-01T12:42:00Z</time>
      </trkpt>
      <trkpt lat="42.66913" lon="1.62355">
        <ele>1938</ele>
        <time>2021-07-01T12:42:05Z</time>
      </trkpt>
      <trkpt lat="42.66911" lon="1.62354">
        <ele>1937</ele>
        <time>2021-07-01T12:42:15Z</time>
      </trkpt>
      <trkpt lat="42.66908" lon="1.62356">
        <ele>1936</ele>
        <time>2021-07-01T12:42:23Z</time>
      </trkpt>
      <trkpt lat="42.66906" lon="1.62355">
        <ele>1935</ele>
        <time>2021-07-01T12:42:29Z</time>
      </trkpt>
      <trkpt lat="42.66904" lon="1.62353">
        <ele>1933</ele>
        <time>2021-07-01T12:42:33Z</time>
      </trkpt>
      <trkpt lat="42.66903" lon="1.6235">
        <ele>1932</ele>
        <time>2021-07-01T12:42:51Z</time>
      </trkpt>
      <trkpt lat="42.669" lon="1.62351">
        <ele>1931</ele>
        <time>2021-07-01T12:42:55Z</time>
      </trkpt>
      <trkpt lat="42.66899" lon="1.62353">
        <ele>1928</ele>
        <time>2021-07-01T12:43:08Z</time>
      </trkpt>
      <trkpt lat="42.66897" lon="1.62353">
        <ele>1925</ele>
        <time>2021-07-01T12:43:14Z</time>
      </trkpt>
      <trkpt lat="42.66895" lon="1.62354">
        <ele>1924</ele>
        <time>2021-07-01T12:43:19Z</time>
      </trkpt>
      <trkpt lat="42.66894" lon="1.62355">
        <ele>1922</ele>
        <time>2021-07-01T12:43:25Z</time>
      </trkpt>
      <trkpt lat="42.66892" lon="1.62356">
        <ele>1920</ele>
        <time>2021-07-01T12:43:32Z</time>
      </trkpt>
      <trkpt lat="42.6689" lon="1.62355">
        <ele>1920</ele>
        <time>2021-07-01T12:43:35Z</time>
      </trkpt>
      <trkpt lat="42.66888" lon="1.62357">
        <ele>1920</ele>
        <time>2021-07-01T12:43:38Z</time>
      </trkpt>
      <trkpt lat="42.66889" lon="1.62359">
        <ele>1919</ele>
        <time>2021-07-01T12:43:43Z</time>
      </trkpt>
      <trkpt lat="42.66889" lon="1.62362">
        <ele>1918</ele>
        <time>2021-07-01T12:43:47Z</time>
      </trkpt>
      <trkpt lat="42.66887" lon="1.62368">
        <ele>1915</ele>
        <time>2021-07-01T12:43:58Z</time>
      </trkpt>
      <trkpt lat="42.66885" lon="1.62367">
        <ele>1915</ele>
        <time>2021-07-01T12:44:04Z</time>
      </trkpt>
      <trkpt lat="42.66883" lon="1.62368">
        <ele>1914</ele>
        <time>2021-07-01T12:44:08Z</time>
      </trkpt>
      <trkpt lat="42.66883" lon="1.6237">
        <ele>1913</ele>
        <time>2021-07-01T12:44:12Z</time>
      </trkpt>
      <trkpt lat="42.66883" lon="1.62373">
        <ele>1912</ele>
        <time>2021-07-01T12:44:16Z</time>
      </trkpt>
      <trkpt lat="42.66881" lon="1.62378">
        <ele>1909</ele>
        <time>2021-07-01T12:44:27Z</time>
      </trkpt>
      <trkpt lat="42.6688" lon="1.62381">
        <ele>1908</ele>
        <time>2021-07-01T12:44:30Z</time>
      </trkpt>
      <trkpt lat="42.6688" lon="1.62383">
        <ele>1907</ele>
        <time>2021-07-01T12:44:34Z</time>
      </trkpt>
      <trkpt lat="42.66879" lon="1.62387">
        <ele>1905</ele>
        <time>2021-07-01T12:44:39Z</time>
      </trkpt>
      <trkpt lat="42.66878" lon="1.62389">
        <ele>1905</ele>
        <time>2021-07-01T12:44:42Z</time>
      </trkpt>
      <trkpt lat="42.66877" lon="1.62391">
        <ele>1905</ele>
        <time>2021-07-01T12:44:45Z</time>
      </trkpt>
      <trkpt lat="42.66875" lon="1.62391">
        <ele>1903</ele>
        <time>2021-07-01T12:44:48Z</time>
      </trkpt>
      <trkpt lat="42.66873" lon="1.6239">
        <ele>1903</ele>
        <time>2021-07-01T12:44:51Z</time>
      </trkpt>
      <trkpt lat="42.66871" lon="1.6239">
        <ele>1903</ele>
        <time>2021-07-01T12:44:55Z</time>
      </trkpt>
      <trkpt lat="42.66869" lon="1.62389">
        <ele>1903</ele>
        <time>2021-07-01T12:44:58Z</time>
      </trkpt>
      <trkpt lat="42.66868" lon="1.62392">
        <ele>1901</ele>
        <time>2021-07-01T12:45:09Z</time>
      </trkpt>
      <trkpt lat="42.66867" lon="1.62395">
        <ele>1900</ele>
        <time>2021-07-01T12:45:13Z</time>
      </trkpt>
      <trkpt lat="42.66867" lon="1.62398">
        <ele>1898</ele>
        <time>2021-07-01T12:45:20Z</time>
      </trkpt>
      <trkpt lat="42.66867" lon="1.62401">
        <ele>1895</ele>
        <time>2021-07-01T12:45:26Z</time>
      </trkpt>
      <trkpt lat="42.66865" lon="1.62407">
        <ele>1892</ele>
        <time>2021-07-01T12:45:36Z</time>
      </trkpt>
      <trkpt lat="42.66867" lon="1.6241">
        <ele>1892</ele>
        <time>2021-07-01T12:45:40Z</time>
      </trkpt>
      <trkpt lat="42.66867" lon="1.62413">
        <ele>1891</ele>
        <time>2021-07-01T12:45:45Z</time>
      </trkpt>
      <trkpt lat="42.66865" lon="1.62416">
        <ele>1890</ele>
        <time>2021-07-01T12:46:02Z</time>
      </trkpt>
      <trkpt lat="42.66864" lon="1.62416">
        <ele>1889</ele>
        <time>2021-07-01T12:46:06Z</time>
      </trkpt>
      <trkpt lat="42.66859" lon="1.62418">
        <ele>1887</ele>
        <time>2021-07-01T12:46:16Z</time>
      </trkpt>
      <trkpt lat="42.66858" lon="1.62421">
        <ele>1886</ele>
        <time>2021-07-01T12:46:19Z</time>
      </trkpt>
      <trkpt lat="42.66857" lon="1.62422">
        <ele>1885</ele>
        <time>2021-07-01T12:46:27Z</time>
      </trkpt>
      <trkpt lat="42.66855" lon="1.62422">
        <ele>1883</ele>
        <time>2021-07-01T12:46:31Z</time>
      </trkpt>
      <trkpt lat="42.66852" lon="1.62423">
        <ele>1882</ele>
        <time>2021-07-01T12:46:34Z</time>
      </trkpt>
      <trkpt lat="42.66848" lon="1.62427">
        <ele>1881</ele>
        <time>2021-07-01T12:46:43Z</time>
      </trkpt>
      <trkpt lat="42.66847" lon="1.6243">
        <ele>1879</ele>
        <time>2021-07-01T12:46:51Z</time>
      </trkpt>
      <trkpt lat="42.66846" lon="1.62433">
        <ele>1878</ele>
        <time>2021-07-01T12:46:57Z</time>
      </trkpt>
      <trkpt lat="42.66847" lon="1.6244">
        <ele>1876</ele>
        <time>2021-07-01T12:47:04Z</time>
      </trkpt>
      <trkpt lat="42.66843" lon="1.62445">
        <ele>1875</ele>
        <time>2021-07-01T12:47:12Z</time>
      </trkpt>
      <trkpt lat="42.66839" lon="1.62448">
        <ele>1875</ele>
        <time>2021-07-01T12:47:21Z</time>
      </trkpt>
      <trkpt lat="42.66836" lon="1.62449">
        <ele>1875</ele>
        <time>2021-07-01T12:47:24Z</time>
      </trkpt>
      <trkpt lat="42.66833" lon="1.6245">
        <ele>1874</ele>
        <time>2021-07-01T12:47:27Z</time>
      </trkpt>
      <trkpt lat="42.66827" lon="1.62452">
        <ele>1874</ele>
        <time>2021-07-01T12:47:32Z</time>
      </trkpt>
      <trkpt lat="42.66825" lon="1.62453">
        <ele>1874</ele>
        <time>2021-07-01T12:47:35Z</time>
      </trkpt>
      <trkpt lat="42.66823" lon="1.62457">
        <ele>1874</ele>
        <time>2021-07-01T12:47:38Z</time>
      </trkpt>
      <trkpt lat="42.66824" lon="1.62461">
        <ele>1873</ele>
        <time>2021-07-01T12:47:41Z</time>
      </trkpt>
      <trkpt lat="42.66826" lon="1.62465">
        <ele>1872</ele>
        <time>2021-07-01T12:47:45Z</time>
      </trkpt>
      <trkpt lat="42.66827" lon="1.62468">
        <ele>1872</ele>
        <time>2021-07-01T12:47:48Z</time>
      </trkpt>
      <trkpt lat="42.66826" lon="1.62472">
        <ele>1871</ele>
        <time>2021-07-01T12:47:51Z</time>
      </trkpt>
      <trkpt lat="42.66826" lon="1.62476">
        <ele>1869</ele>
        <time>2021-07-01T12:47:54Z</time>
      </trkpt>
      <trkpt lat="42.66827" lon="1.62479">
        <ele>1869</ele>
        <time>2021-07-01T12:47:57Z</time>
      </trkpt>
      <trkpt lat="42.66827" lon="1.62482">
        <ele>1868</ele>
        <time>2021-07-01T12:48:02Z</time>
      </trkpt>
      <trkpt lat="42.66826" lon="1.62485">
        <ele>1868</ele>
        <time>2021-07-01T12:48:05Z</time>
      </trkpt>
      <trkpt lat="42.66825" lon="1.62487">
        <ele>1868</ele>
        <time>2021-07-01T12:48:46Z</time>
      </trkpt>
      <trkpt lat="42.66824" lon="1.6249">
        <ele>1868</ele>
        <time>2021-07-01T12:48:49Z</time>
      </trkpt>
      <trkpt lat="42.66823" lon="1.62493">
        <ele>1866</ele>
        <time>2021-07-01T12:48:52Z</time>
      </trkpt>
      <trkpt lat="42.66825" lon="1.62496">
        <ele>1866</ele>
        <time>2021-07-01T12:48:54Z</time>
      </trkpt>
      <trkpt lat="42.66826" lon="1.625">
        <ele>1865</ele>
        <time>2021-07-01T12:48:57Z</time>
      </trkpt>
      <trkpt lat="42.66826" lon="1.62502">
        <ele>1865</ele>
        <time>2021-07-01T12:49:00Z</time>
      </trkpt>
      <trkpt lat="42.66825" lon="1.62505">
        <ele>1865</ele>
        <time>2021-07-01T12:49:02Z</time>
      </trkpt>
      <trkpt lat="42.66822" lon="1.62523">
        <ele>1863</ele>
        <time>2021-07-01T12:49:17Z</time>
      </trkpt>
      <trkpt lat="42.66823" lon="1.62525">
        <ele>1863</ele>
        <time>2021-07-01T12:49:20Z</time>
      </trkpt>
      <trkpt lat="42.66822" lon="1.62528">
        <ele>1862</ele>
        <time>2021-07-01T12:49:22Z</time>
      </trkpt>
      <trkpt lat="42.66823" lon="1.62531">
        <ele>1862</ele>
        <time>2021-07-01T12:49:26Z</time>
      </trkpt>
      <trkpt lat="42.66822" lon="1.62534">
        <ele>1862</ele>
        <time>2021-07-01T12:49:30Z</time>
      </trkpt>
      <trkpt lat="42.66824" lon="1.62536">
        <ele>1861</ele>
        <time>2021-07-01T12:49:33Z</time>
      </trkpt>
      <trkpt lat="42.66824" lon="1.62539">
        <ele>1860</ele>
        <time>2021-07-01T12:49:36Z</time>
      </trkpt>
      <trkpt lat="42.66824" lon="1.62541">
        <ele>1860</ele>
        <time>2021-07-01T12:49:41Z</time>
      </trkpt>
      <trkpt lat="42.66825" lon="1.62544">
        <ele>1860</ele>
        <time>2021-07-01T12:50:09Z</time>
      </trkpt>
      <trkpt lat="42.66828" lon="1.62545">
        <ele>1861</ele>
        <time>2021-07-01T12:50:13Z</time>
      </trkpt>
      <trkpt lat="42.66829" lon="1.62549">
        <ele>1861</ele>
        <time>2021-07-01T12:50:18Z</time>
      </trkpt>
      <trkpt lat="42.6683" lon="1.62551">
        <ele>1861</ele>
        <time>2021-07-01T12:50:21Z</time>
      </trkpt>
      <trkpt lat="42.6683" lon="1.62553">
        <ele>1861</ele>
        <time>2021-07-01T12:50:26Z</time>
      </trkpt>
      <trkpt lat="42.66831" lon="1.62562">
        <ele>1860</ele>
        <time>2021-07-01T12:50:33Z</time>
      </trkpt>
      <trkpt lat="42.66829" lon="1.62568">
        <ele>1859</ele>
        <time>2021-07-01T12:50:42Z</time>
      </trkpt>
      <trkpt lat="42.66828" lon="1.6257">
        <ele>1858</ele>
        <time>2021-07-01T12:50:44Z</time>
      </trkpt>
      <trkpt lat="42.66828" lon="1.62573">
        <ele>1857</ele>
        <time>2021-07-01T12:50:48Z</time>
      </trkpt>
      <trkpt lat="42.66827" lon="1.62575">
        <ele>1857</ele>
        <time>2021-07-01T12:50:51Z</time>
      </trkpt>
      <trkpt lat="42.66825" lon="1.62578">
        <ele>1857</ele>
        <time>2021-07-01T12:50:56Z</time>
      </trkpt>
      <trkpt lat="42.66821" lon="1.62582">
        <ele>1855</ele>
        <time>2021-07-01T12:51:05Z</time>
      </trkpt>
      <trkpt lat="42.66819" lon="1.62585">
        <ele>1854</ele>
        <time>2021-07-01T12:51:09Z</time>
      </trkpt>
      <trkpt lat="42.6682" lon="1.62588">
        <ele>1854</ele>
        <time>2021-07-01T12:51:12Z</time>
      </trkpt>
      <trkpt lat="42.6682" lon="1.62591">
        <ele>1852</ele>
        <time>2021-07-01T12:51:17Z</time>
      </trkpt>
      <trkpt lat="42.66819" lon="1.62594">
        <ele>1851</ele>
        <time>2021-07-01T12:51:23Z</time>
      </trkpt>
      <trkpt lat="42.66819" lon="1.62597">
        <ele>1850</ele>
        <time>2021-07-01T12:51:26Z</time>
      </trkpt>
      <trkpt lat="42.66817" lon="1.62602">
        <ele>1848</ele>
        <time>2021-07-01T12:51:35Z</time>
      </trkpt>
      <trkpt lat="42.66817" lon="1.62605">
        <ele>1848</ele>
        <time>2021-07-01T12:51:37Z</time>
      </trkpt>
      <trkpt lat="42.66817" lon="1.62608">
        <ele>1847</ele>
        <time>2021-07-01T12:51:39Z</time>
      </trkpt>
      <trkpt lat="42.66817" lon="1.6261">
        <ele>1847</ele>
        <time>2021-07-01T12:51:42Z</time>
      </trkpt>
      <trkpt lat="42.66817" lon="1.62613">
        <ele>1846</ele>
        <time>2021-07-01T12:51:47Z</time>
      </trkpt>
      <trkpt lat="42.66817" lon="1.62616">
        <ele>1846</ele>
        <time>2021-07-01T12:51:53Z</time>
      </trkpt>
      <trkpt lat="42.66816" lon="1.62618">
        <ele>1846</ele>
        <time>2021-07-01T12:52:11Z</time>
      </trkpt>
      <trkpt lat="42.66817" lon="1.62621">
        <ele>1845</ele>
        <time>2021-07-01T12:52:15Z</time>
      </trkpt>
      <trkpt lat="42.66817" lon="1.62624">
        <ele>1843</ele>
        <time>2021-07-01T12:52:20Z</time>
      </trkpt>
      <trkpt lat="42.66815" lon="1.62626">
        <ele>1842</ele>
        <time>2021-07-01T12:52:23Z</time>
      </trkpt>
      <trkpt lat="42.66816" lon="1.62629">
        <ele>1842</ele>
        <time>2021-07-01T12:52:28Z</time>
      </trkpt>
      <trkpt lat="42.66817" lon="1.62633">
        <ele>1841</ele>
        <time>2021-07-01T12:52:31Z</time>
      </trkpt>
      <trkpt lat="42.66818" lon="1.62635">
        <ele>1841</ele>
        <time>2021-07-01T12:52:34Z</time>
      </trkpt>
      <trkpt lat="42.66819" lon="1.62638">
        <ele>1839</ele>
        <time>2021-07-01T12:52:42Z</time>
      </trkpt>
      <trkpt lat="42.66819" lon="1.62641">
        <ele>1838</ele>
        <time>2021-07-01T12:52:51Z</time>
      </trkpt>
      <trkpt lat="42.66818" lon="1.62643">
        <ele>1836</ele>
        <time>2021-07-01T12:52:56Z</time>
      </trkpt>
      <trkpt lat="42.66819" lon="1.62646">
        <ele>1833</ele>
        <time>2021-07-01T12:53:03Z</time>
      </trkpt>
      <trkpt lat="42.66819" lon="1.62649">
        <ele>1832</ele>
        <time>2021-07-01T12:53:11Z</time>
      </trkpt>
      <trkpt lat="42.66819" lon="1.62651">
        <ele>1830</ele>
        <time>2021-07-01T12:53:15Z</time>
      </trkpt>
      <trkpt lat="42.66817" lon="1.62651">
        <ele>1830</ele>
        <time>2021-07-01T12:53:18Z</time>
      </trkpt>
      <trkpt lat="42.66816" lon="1.62654">
        <ele>1829</ele>
        <time>2021-07-01T12:53:26Z</time>
      </trkpt>
      <trkpt lat="42.66817" lon="1.62656">
        <ele>1829</ele>
        <time>2021-07-01T12:53:31Z</time>
      </trkpt>
      <trkpt lat="42.66817" lon="1.62659">
        <ele>1828</ele>
        <time>2021-07-01T12:53:41Z</time>
      </trkpt>
      <trkpt lat="42.66818" lon="1.62663">
        <ele>1827</ele>
        <time>2021-07-01T12:53:50Z</time>
      </trkpt>
      <trkpt lat="42.6682" lon="1.62666">
        <ele>1824</ele>
        <time>2021-07-01T12:54:01Z</time>
      </trkpt>
      <trkpt lat="42.66822" lon="1.62677">
        <ele>1821</ele>
        <time>2021-07-01T12:54:17Z</time>
      </trkpt>
      <trkpt lat="42.66823" lon="1.6268">
        <ele>1821</ele>
        <time>2021-07-01T12:54:22Z</time>
      </trkpt>
      <trkpt lat="42.66824" lon="1.62683">
        <ele>1820</ele>
        <time>2021-07-01T12:54:29Z</time>
      </trkpt>
      <trkpt lat="42.66829" lon="1.62692">
        <ele>1818</ele>
        <time>2021-07-01T12:54:50Z</time>
      </trkpt>
      <trkpt lat="42.66831" lon="1.62695">
        <ele>1818</ele>
        <time>2021-07-01T12:54:56Z</time>
      </trkpt>
      <trkpt lat="42.6683" lon="1.62698">
        <ele>1816</ele>
        <time>2021-07-01T12:55:04Z</time>
      </trkpt>
      <trkpt lat="42.6683" lon="1.62704">
        <ele>1814</ele>
        <time>2021-07-01T12:55:15Z</time>
      </trkpt>
      <trkpt lat="42.66831" lon="1.62716">
        <ele>1812</ele>
        <time>2021-07-01T12:55:33Z</time>
      </trkpt>
      <trkpt lat="42.66832" lon="1.62719">
        <ele>1810</ele>
        <time>2021-07-01T12:55:41Z</time>
      </trkpt>
      <trkpt lat="42.66832" lon="1.62722">
        <ele>1810</ele>
        <time>2021-07-01T12:55:45Z</time>
      </trkpt>
      <trkpt lat="42.66833" lon="1.62735">
        <ele>1807</ele>
        <time>2021-07-01T12:56:09Z</time>
      </trkpt>
      <trkpt lat="42.66834" lon="1.62739">
        <ele>1806</ele>
        <time>2021-07-01T12:56:19Z</time>
      </trkpt>
      <trkpt lat="42.66833" lon="1.62742">
        <ele>1806</ele>
        <time>2021-07-01T12:56:25Z</time>
      </trkpt>
      <trkpt lat="42.66833" lon="1.62745">
        <ele>1805</ele>
        <time>2021-07-01T12:56:30Z</time>
      </trkpt>
      <trkpt lat="42.66833" lon="1.62748">
        <ele>1804</ele>
        <time>2021-07-01T12:56:33Z</time>
      </trkpt>
      <trkpt lat="42.66834" lon="1.62751">
        <ele>1804</ele>
        <time>2021-07-01T12:56:36Z</time>
      </trkpt>
      <trkpt lat="42.66832" lon="1.62755">
        <ele>1803</ele>
        <time>2021-07-01T12:56:43Z</time>
      </trkpt>
      <trkpt lat="42.66833" lon="1.62757">
        <ele>1803</ele>
        <time>2021-07-01T12:56:45Z</time>
      </trkpt>
      <trkpt lat="42.66832" lon="1.62761">
        <ele>1802</ele>
        <time>2021-07-01T12:56:48Z</time>
      </trkpt>
      <trkpt lat="42.66832" lon="1.62766">
        <ele>1802</ele>
        <time>2021-07-01T12:56:51Z</time>
      </trkpt>
      <trkpt lat="42.66839" lon="1.62777">
        <ele>1801</ele>
        <time>2021-07-01T12:57:05Z</time>
      </trkpt>
      <trkpt lat="42.66841" lon="1.62779">
        <ele>1801</ele>
        <time>2021-07-01T12:57:17Z</time>
      </trkpt>
      <trkpt lat="42.66843" lon="1.62781">
        <ele>1801</ele>
        <time>2021-07-01T12:57:20Z</time>
      </trkpt>
      <trkpt lat="42.66845" lon="1.62784">
        <ele>1801</ele>
        <time>2021-07-01T12:57:23Z</time>
      </trkpt>
      <trkpt lat="42.66847" lon="1.62786">
        <ele>1801</ele>
        <time>2021-07-01T12:57:27Z</time>
      </trkpt>
      <trkpt lat="42.66848" lon="1.6279">
        <ele>1800</ele>
        <time>2021-07-01T12:57:32Z</time>
      </trkpt>
      <trkpt lat="42.66855" lon="1.62795">
        <ele>1802</ele>
        <time>2021-07-01T12:57:59Z</time>
      </trkpt>
      <trkpt lat="42.66858" lon="1.62799">
        <ele>1802</ele>
        <time>2021-07-01T12:58:08Z</time>
      </trkpt>
      <trkpt lat="42.6686" lon="1.62802">
        <ele>1803</ele>
        <time>2021-07-01T12:58:18Z</time>
      </trkpt>
      <trkpt lat="42.66861" lon="1.62805">
        <ele>1804</ele>
        <time>2021-07-01T12:58:23Z</time>
      </trkpt>
      <trkpt lat="42.66863" lon="1.62807">
        <ele>1804</ele>
        <time>2021-07-01T12:58:26Z</time>
      </trkpt>
      <trkpt lat="42.66865" lon="1.62809">
        <ele>1805</ele>
        <time>2021-07-01T12:58:31Z</time>
      </trkpt>
      <trkpt lat="42.66866" lon="1.62812">
        <ele>1806</ele>
        <time>2021-07-01T12:58:37Z</time>
      </trkpt>
      <trkpt lat="42.66871" lon="1.62817">
        <ele>1808</ele>
        <time>2021-07-01T12:58:44Z</time>
      </trkpt>
      <trkpt lat="42.66873" lon="1.6282">
        <ele>1807</ele>
        <time>2021-07-01T12:58:53Z</time>
      </trkpt>
      <trkpt lat="42.66875" lon="1.62824">
        <ele>1807</ele>
        <time>2021-07-01T12:58:57Z</time>
      </trkpt>
      <trkpt lat="42.66878" lon="1.62825">
        <ele>1807</ele>
        <time>2021-07-01T12:59:01Z</time>
      </trkpt>
      <trkpt lat="42.66882" lon="1.62831">
        <ele>1809</ele>
        <time>2021-07-01T12:59:09Z</time>
      </trkpt>
      <trkpt lat="42.66885" lon="1.62832">
        <ele>1811</ele>
        <time>2021-07-01T12:59:12Z</time>
      </trkpt>
      <trkpt lat="42.66887" lon="1.62832">
        <ele>1812</ele>
        <time>2021-07-01T12:59:15Z</time>
      </trkpt>
      <trkpt lat="42.66889" lon="1.62835">
        <ele>1812</ele>
        <time>2021-07-01T12:59:19Z</time>
      </trkpt>
      <trkpt lat="42.66886" lon="1.62836">
        <ele>1812</ele>
        <time>2021-07-01T12:59:24Z</time>
      </trkpt>
      <trkpt lat="42.66882" lon="1.62837">
        <ele>1812</ele>
        <time>2021-07-01T12:59:27Z</time>
      </trkpt>
      <trkpt lat="42.66881" lon="1.62839">
        <ele>1811</ele>
        <time>2021-07-01T12:59:30Z</time>
      </trkpt>
      <trkpt lat="42.66879" lon="1.62838">
        <ele>1810</ele>
        <time>2021-07-01T13:00:12Z</time>
      </trkpt>
      <trkpt lat="42.66877" lon="1.62837">
        <ele>1810</ele>
        <time>2021-07-01T13:00:16Z</time>
      </trkpt>
      <trkpt lat="42.66875" lon="1.62836">
        <ele>1809</ele>
        <time>2021-07-01T13:00:19Z</time>
      </trkpt>
      <trkpt lat="42.66874" lon="1.62832">
        <ele>1809</ele>
        <time>2021-07-01T13:00:22Z</time>
      </trkpt>
      <trkpt lat="42.6687" lon="1.62828">
        <ele>1809</ele>
        <time>2021-07-01T13:00:30Z</time>
      </trkpt>
      <trkpt lat="42.66868" lon="1.62827">
        <ele>1807</ele>
        <time>2021-07-01T13:00:36Z</time>
      </trkpt>
      <trkpt lat="42.66866" lon="1.62827">
        <ele>1805</ele>
        <time>2021-07-01T13:00:42Z</time>
      </trkpt>
      <trkpt lat="42.66865" lon="1.62827">
        <ele>1804</ele>
        <time>2021-07-01T13:00:48Z</time>
      </trkpt>
      <trkpt lat="42.66863" lon="1.62829">
        <ele>1802</ele>
        <time>2021-07-01T13:00:52Z</time>
      </trkpt>
      <trkpt lat="42.66861" lon="1.62832">
        <ele>1801</ele>
        <time>2021-07-01T13:00:57Z</time>
      </trkpt>
      <trkpt lat="42.66863" lon="1.62838">
        <ele>1800</ele>
        <time>2021-07-01T13:01:04Z</time>
      </trkpt>
      <trkpt lat="42.66865" lon="1.62841">
        <ele>1799</ele>
        <time>2021-07-01T13:01:08Z</time>
      </trkpt>
      <trkpt lat="42.66866" lon="1.62843">
        <ele>1799</ele>
        <time>2021-07-01T13:01:11Z</time>
      </trkpt>
      <trkpt lat="42.66866" lon="1.62847">
        <ele>1800</ele>
        <time>2021-07-01T13:01:18Z</time>
      </trkpt>
      <trkpt lat="42.66873" lon="1.62869">
        <ele>1792</ele>
        <time>2021-07-01T13:01:44Z</time>
      </trkpt>
      <trkpt lat="42.66874" lon="1.62872">
        <ele>1790</ele>
        <time>2021-07-01T13:01:50Z</time>
      </trkpt>
      <trkpt lat="42.66872" lon="1.62876">
        <ele>1789</ele>
        <time>2021-07-01T13:01:59Z</time>
      </trkpt>
      <trkpt lat="42.66874" lon="1.62886">
        <ele>1785</ele>
        <time>2021-07-01T13:02:09Z</time>
      </trkpt>
      <trkpt lat="42.66873" lon="1.62889">
        <ele>1784</ele>
        <time>2021-07-01T13:02:11Z</time>
      </trkpt>
      <trkpt lat="42.66877" lon="1.62894">
        <ele>1785</ele>
        <time>2021-07-01T13:02:20Z</time>
      </trkpt>
      <trkpt lat="42.66879" lon="1.62894">
        <ele>1785</ele>
        <time>2021-07-01T13:02:23Z</time>
      </trkpt>
      <trkpt lat="42.66882" lon="1.62904">
        <ele>1782</ele>
        <time>2021-07-01T13:02:34Z</time>
      </trkpt>
      <trkpt lat="42.66884" lon="1.62906">
        <ele>1783</ele>
        <time>2021-07-01T13:02:38Z</time>
      </trkpt>
      <trkpt lat="42.66885" lon="1.62909">
        <ele>1783</ele>
        <time>2021-07-01T13:02:40Z</time>
      </trkpt>
      <trkpt lat="42.66885" lon="1.62912">
        <ele>1783</ele>
        <time>2021-07-01T13:02:43Z</time>
      </trkpt>
      <trkpt lat="42.66885" lon="1.62915">
        <ele>1782</ele>
        <time>2021-07-01T13:02:47Z</time>
      </trkpt>
      <trkpt lat="42.66889" lon="1.6292">
        <ele>1782</ele>
        <time>2021-07-01T13:02:55Z</time>
      </trkpt>
      <trkpt lat="42.66889" lon="1.62923">
        <ele>1781</ele>
        <time>2021-07-01T13:02:58Z</time>
      </trkpt>
      <trkpt lat="42.66888" lon="1.62925">
        <ele>1781</ele>
        <time>2021-07-01T13:03:02Z</time>
      </trkpt>
      <trkpt lat="42.66884" lon="1.6293">
        <ele>1779</ele>
        <time>2021-07-01T13:03:17Z</time>
      </trkpt>
      <trkpt lat="42.6688" lon="1.6293">
        <ele>1778</ele>
        <time>2021-07-01T13:03:23Z</time>
      </trkpt>
      <trkpt lat="42.66878" lon="1.62931">
        <ele>1777</ele>
        <time>2021-07-01T13:03:25Z</time>
      </trkpt>
      <trkpt lat="42.66877" lon="1.62933">
        <ele>1776</ele>
        <time>2021-07-01T13:03:28Z</time>
      </trkpt>
      <trkpt lat="42.66875" lon="1.62936">
        <ele>1774</ele>
        <time>2021-07-01T13:03:33Z</time>
      </trkpt>
      <trkpt lat="42.66875" lon="1.62939">
        <ele>1774</ele>
        <time>2021-07-01T13:05:13Z</time>
      </trkpt>
      <trkpt lat="42.66877" lon="1.62944">
        <ele>1775</ele>
        <time>2021-07-01T13:05:19Z</time>
      </trkpt>
      <trkpt lat="42.66878" lon="1.62946">
        <ele>1775</ele>
        <time>2021-07-01T13:05:23Z</time>
      </trkpt>
      <trkpt lat="42.66881" lon="1.62951">
        <ele>1774</ele>
        <time>2021-07-01T13:05:32Z</time>
      </trkpt>
      <trkpt lat="42.66881" lon="1.62955">
        <ele>1773</ele>
        <time>2021-07-01T13:05:37Z</time>
      </trkpt>
      <trkpt lat="42.66881" lon="1.62958">
        <ele>1772</ele>
        <time>2021-07-01T13:05:40Z</time>
      </trkpt>
      <trkpt lat="42.66882" lon="1.6296">
        <ele>1772</ele>
        <time>2021-07-01T13:05:44Z</time>
      </trkpt>
      <trkpt lat="42.66882" lon="1.62967">
        <ele>1771</ele>
        <time>2021-07-01T13:05:52Z</time>
      </trkpt>
      <trkpt lat="42.66883" lon="1.62969">
        <ele>1770</ele>
        <time>2021-07-01T13:05:55Z</time>
      </trkpt>
      <trkpt lat="42.66885" lon="1.62972">
        <ele>1768</ele>
        <time>2021-07-01T13:05:58Z</time>
      </trkpt>
      <trkpt lat="42.66883" lon="1.62974">
        <ele>1768</ele>
        <time>2021-07-01T13:06:01Z</time>
      </trkpt>
      <trkpt lat="42.66883" lon="1.62976">
        <ele>1767</ele>
        <time>2021-07-01T13:06:04Z</time>
      </trkpt>
      <trkpt lat="42.66883" lon="1.62979">
        <ele>1766</ele>
        <time>2021-07-01T13:06:10Z</time>
      </trkpt>
      <trkpt lat="42.66883" lon="1.62984">
        <ele>1765</ele>
        <time>2021-07-01T13:06:17Z</time>
      </trkpt>
      <trkpt lat="42.66881" lon="1.62986">
        <ele>1765</ele>
        <time>2021-07-01T13:06:25Z</time>
      </trkpt>
      <trkpt lat="42.66875" lon="1.62988">
        <ele>1762</ele>
        <time>2021-07-01T13:06:38Z</time>
      </trkpt>
      <trkpt lat="42.66872" lon="1.62987">
        <ele>1761</ele>
        <time>2021-07-01T13:06:41Z</time>
      </trkpt>
      <trkpt lat="42.66871" lon="1.62985">
        <ele>1760</ele>
        <time>2021-07-01T13:06:48Z</time>
      </trkpt>
      <trkpt lat="42.66869" lon="1.62987">
        <ele>1760</ele>
        <time>2021-07-01T13:06:51Z</time>
      </trkpt>
      <trkpt lat="42.66868" lon="1.62992">
        <ele>1759</ele>
        <time>2021-07-01T13:06:57Z</time>
      </trkpt>
      <trkpt lat="42.66869" lon="1.62995">
        <ele>1759</ele>
        <time>2021-07-01T13:07:02Z</time>
      </trkpt>
      <trkpt lat="42.66869" lon="1.63006">
        <ele>1756</ele>
        <time>2021-07-01T13:07:16Z</time>
      </trkpt>
      <trkpt lat="42.66868" lon="1.63008">
        <ele>1756</ele>
        <time>2021-07-01T13:07:23Z</time>
      </trkpt>
      <trkpt lat="42.66867" lon="1.63011">
        <ele>1756</ele>
        <time>2021-07-01T13:07:27Z</time>
      </trkpt>
      <trkpt lat="42.66869" lon="1.63014">
        <ele>1755</ele>
        <time>2021-07-01T13:07:37Z</time>
      </trkpt>
      <trkpt lat="42.6687" lon="1.63018">
        <ele>1754</ele>
        <time>2021-07-01T13:07:46Z</time>
      </trkpt>
      <trkpt lat="42.6687" lon="1.63022">
        <ele>1753</ele>
        <time>2021-07-01T13:07:54Z</time>
      </trkpt>
      <trkpt lat="42.66871" lon="1.63025">
        <ele>1752</ele>
        <time>2021-07-01T13:07:56Z</time>
      </trkpt>
      <trkpt lat="42.66874" lon="1.63026">
        <ele>1751</ele>
        <time>2021-07-01T13:08:03Z</time>
      </trkpt>
      <trkpt lat="42.66874" lon="1.6303">
        <ele>1750</ele>
        <time>2021-07-01T13:08:09Z</time>
      </trkpt>
      <trkpt lat="42.66873" lon="1.63038">
        <ele>1748</ele>
        <time>2021-07-01T13:08:20Z</time>
      </trkpt>
      <trkpt lat="42.66873" lon="1.63041">
        <ele>1747</ele>
        <time>2021-07-01T13:08:25Z</time>
      </trkpt>
      <trkpt lat="42.66871" lon="1.63043">
        <ele>1746</ele>
        <time>2021-07-01T13:08:30Z</time>
      </trkpt>
      <trkpt lat="42.6687" lon="1.63048">
        <ele>1744</ele>
        <time>2021-07-01T13:09:31Z</time>
      </trkpt>
      <trkpt lat="42.66868" lon="1.6305">
        <ele>1740</ele>
        <time>2021-07-01T13:10:28Z</time>
      </trkpt>
      <trkpt lat="42.66862" lon="1.6305">
        <ele>1736</ele>
        <time>2021-07-01T13:10:41Z</time>
      </trkpt>
      <trkpt lat="42.66858" lon="1.63052">
        <ele>1734</ele>
        <time>2021-07-01T13:11:05Z</time>
      </trkpt>
      <trkpt lat="42.66855" lon="1.6305">
        <ele>1733</ele>
        <time>2021-07-01T13:11:16Z</time>
      </trkpt>
      <trkpt lat="42.66852" lon="1.63049">
        <ele>1729</ele>
        <time>2021-07-01T13:11:27Z</time>
      </trkpt>
      <trkpt lat="42.6685" lon="1.63051">
        <ele>1728</ele>
        <time>2021-07-01T13:11:34Z</time>
      </trkpt>
      <trkpt lat="42.66849" lon="1.63055">
        <ele>1727</ele>
        <time>2021-07-01T13:11:41Z</time>
      </trkpt>
      <trkpt lat="42.66847" lon="1.63062">
        <ele>1726</ele>
        <time>2021-07-01T13:11:56Z</time>
      </trkpt>
      <trkpt lat="42.66847" lon="1.63066">
        <ele>1725</ele>
        <time>2021-07-01T13:12:02Z</time>
      </trkpt>
      <trkpt lat="42.6685" lon="1.63069">
        <ele>1723</ele>
        <time>2021-07-01T13:12:11Z</time>
      </trkpt>
      <trkpt lat="42.66849" lon="1.63073">
        <ele>1722</ele>
        <time>2021-07-01T13:12:15Z</time>
      </trkpt>
      <trkpt lat="42.66852" lon="1.63078">
        <ele>1720</ele>
        <time>2021-07-01T13:12:27Z</time>
      </trkpt>
      <trkpt lat="42.66855" lon="1.63081">
        <ele>1719</ele>
        <time>2021-07-01T13:12:33Z</time>
      </trkpt>
      <trkpt lat="42.66855" lon="1.63085">
        <ele>1718</ele>
        <time>2021-07-01T13:12:39Z</time>
      </trkpt>
      <trkpt lat="42.66855" lon="1.6309">
        <ele>1718</ele>
        <time>2021-07-01T13:12:50Z</time>
      </trkpt>
      <trkpt lat="42.66853" lon="1.63093">
        <ele>1717</ele>
        <time>2021-07-01T13:13:08Z</time>
      </trkpt>
      <trkpt lat="42.6685" lon="1.63093">
        <ele>1711</ele>
        <time>2021-07-01T13:13:22Z</time>
      </trkpt>
      <trkpt lat="42.66849" lon="1.63096">
        <ele>1709</ele>
        <time>2021-07-01T13:13:30Z</time>
      </trkpt>
      <trkpt lat="42.66849" lon="1.631">
        <ele>1708</ele>
        <time>2021-07-01T13:13:47Z</time>
      </trkpt>
      <trkpt lat="42.6685" lon="1.63103">
        <ele>1707</ele>
        <time>2021-07-01T13:13:55Z</time>
      </trkpt>
      <trkpt lat="42.66854" lon="1.63102">
        <ele>1708</ele>
        <time>2021-07-01T13:14:01Z</time>
      </trkpt>
      <trkpt lat="42.66858" lon="1.63104">
        <ele>1708</ele>
        <time>2021-07-01T13:14:29Z</time>
      </trkpt>
      <trkpt lat="42.66861" lon="1.63107">
        <ele>1707</ele>
        <time>2021-07-01T13:14:45Z</time>
      </trkpt>
      <trkpt lat="42.66862" lon="1.63112">
        <ele>1705</ele>
        <time>2021-07-01T13:14:51Z</time>
      </trkpt>
      <trkpt lat="42.66864" lon="1.63115">
        <ele>1703</ele>
        <time>2021-07-01T13:15:10Z</time>
      </trkpt>
      <trkpt lat="42.66872" lon="1.63116">
        <ele>1703</ele>
        <time>2021-07-01T13:15:22Z</time>
      </trkpt>
      <trkpt lat="42.66877" lon="1.63124">
        <ele>1702</ele>
        <time>2021-07-01T13:15:44Z</time>
      </trkpt>
      <trkpt lat="42.66881" lon="1.63127">
        <ele>1700</ele>
        <time>2021-07-01T13:15:52Z</time>
      </trkpt>
      <trkpt lat="42.66885" lon="1.63129">
        <ele>1699</ele>
        <time>2021-07-01T13:16:01Z</time>
      </trkpt>
      <trkpt lat="42.66887" lon="1.63131">
        <ele>1698</ele>
        <time>2021-07-01T13:16:07Z</time>
      </trkpt>
      <trkpt lat="42.66888" lon="1.63134">
        <ele>1698</ele>
        <time>2021-07-01T13:16:21Z</time>
      </trkpt>
      <trkpt lat="42.66887" lon="1.63138">
        <ele>1698</ele>
        <time>2021-07-01T13:16:31Z</time>
      </trkpt>
      <trkpt lat="42.6689" lon="1.63142">
        <ele>1696</ele>
        <time>2021-07-01T13:16:43Z</time>
      </trkpt>
      <trkpt lat="42.66893" lon="1.63144">
        <ele>1694</ele>
        <time>2021-07-01T13:17:11Z</time>
      </trkpt>
      <trkpt lat="42.66896" lon="1.6315">
        <ele>1691</ele>
        <time>2021-07-01T13:17:30Z</time>
      </trkpt>
      <trkpt lat="42.66896" lon="1.63153">
        <ele>1690</ele>
        <time>2021-07-01T13:17:40Z</time>
      </trkpt>
      <trkpt lat="42.66896" lon="1.63157">
        <ele>1687</ele>
        <time>2021-07-01T13:17:55Z</time>
      </trkpt>
      <trkpt lat="42.66895" lon="1.63161">
        <ele>1686</ele>
        <time>2021-07-01T13:18:03Z</time>
      </trkpt>
      <trkpt lat="42.66893" lon="1.63162">
        <ele>1682</ele>
        <time>2021-07-01T13:18:12Z</time>
      </trkpt>
      <trkpt lat="42.66893" lon="1.63169">
        <ele>1678</ele>
        <time>2021-07-01T13:18:34Z</time>
      </trkpt>
      <trkpt lat="42.66892" lon="1.63171">
        <ele>1677</ele>
        <time>2021-07-01T13:18:37Z</time>
      </trkpt>
      <trkpt lat="42.66887" lon="1.63177">
        <ele>1672</ele>
        <time>2021-07-01T13:19:07Z</time>
      </trkpt>
      <trkpt lat="42.66886" lon="1.6318">
        <ele>1669</ele>
        <time>2021-07-01T13:19:19Z</time>
      </trkpt>
      <trkpt lat="42.66888" lon="1.63183">
        <ele>1668</ele>
        <time>2021-07-01T13:19:31Z</time>
      </trkpt>
      <trkpt lat="42.66887" lon="1.63186">
        <ele>1667</ele>
        <time>2021-07-01T13:19:49Z</time>
      </trkpt>
      <trkpt lat="42.66885" lon="1.63189">
        <ele>1666</ele>
        <time>2021-07-01T13:19:57Z</time>
      </trkpt>
      <trkpt lat="42.66888" lon="1.63197">
        <ele>1662</ele>
        <time>2021-07-01T13:20:09Z</time>
      </trkpt>
      <trkpt lat="42.66889" lon="1.63201">
        <ele>1660</ele>
        <time>2021-07-01T13:20:15Z</time>
      </trkpt>
      <trkpt lat="42.66888" lon="1.63205">
        <ele>1660</ele>
        <time>2021-07-01T13:20:18Z</time>
      </trkpt>
      <trkpt lat="42.66889" lon="1.63209">
        <ele>1659</ele>
        <time>2021-07-01T13:20:21Z</time>
      </trkpt>
      <trkpt lat="42.66888" lon="1.63212">
        <ele>1659</ele>
        <time>2021-07-01T13:20:24Z</time>
      </trkpt>
      <trkpt lat="42.66888" lon="1.63217">
        <ele>1656</ele>
        <time>2021-07-01T13:20:28Z</time>
      </trkpt>
      <trkpt lat="42.66889" lon="1.6322">
        <ele>1655</ele>
        <time>2021-07-01T13:20:32Z</time>
      </trkpt>
      <trkpt lat="42.66889" lon="1.63224">
        <ele>1655</ele>
        <time>2021-07-01T13:20:36Z</time>
      </trkpt>
      <trkpt lat="42.66888" lon="1.63227">
        <ele>1654</ele>
        <time>2021-07-01T13:20:40Z</time>
      </trkpt>
      <trkpt lat="42.66886" lon="1.63231">
        <ele>1654</ele>
        <time>2021-07-01T13:20:43Z</time>
      </trkpt>
      <trkpt lat="42.66887" lon="1.63235">
        <ele>1654</ele>
        <time>2021-07-01T13:20:46Z</time>
      </trkpt>
      <trkpt lat="42.66887" lon="1.63244">
        <ele>1653</ele>
        <time>2021-07-01T13:20:54Z</time>
      </trkpt>
      <trkpt lat="42.6689" lon="1.63252">
        <ele>1654</ele>
        <time>2021-07-01T13:21:02Z</time>
      </trkpt>
      <trkpt lat="42.66888" lon="1.63259">
        <ele>1652</ele>
        <time>2021-07-01T13:21:10Z</time>
      </trkpt>
      <trkpt lat="42.66886" lon="1.63261">
        <ele>1651</ele>
        <time>2021-07-01T13:21:13Z</time>
      </trkpt>
      <trkpt lat="42.66884" lon="1.63262">
        <ele>1650</ele>
        <time>2021-07-01T13:21:16Z</time>
      </trkpt>
      <trkpt lat="42.66883" lon="1.63265">
        <ele>1649</ele>
        <time>2021-07-01T13:21:19Z</time>
      </trkpt>
      <trkpt lat="42.66882" lon="1.63267">
        <ele>1648</ele>
        <time>2021-07-01T13:21:23Z</time>
      </trkpt>
      <trkpt lat="42.6688" lon="1.6327">
        <ele>1647</ele>
        <time>2021-07-01T13:21:25Z</time>
      </trkpt>
      <trkpt lat="42.66878" lon="1.63272">
        <ele>1647</ele>
        <time>2021-07-01T13:21:30Z</time>
      </trkpt>
      <trkpt lat="42.66876" lon="1.63274">
        <ele>1646</ele>
        <time>2021-07-01T13:21:34Z</time>
      </trkpt>
      <trkpt lat="42.66874" lon="1.63277">
        <ele>1646</ele>
        <time>2021-07-01T13:21:37Z</time>
      </trkpt>
      <trkpt lat="42.66873" lon="1.63279">
        <ele>1644</ele>
        <time>2021-07-01T13:21:41Z</time>
      </trkpt>
      <trkpt lat="42.66872" lon="1.63282">
        <ele>1644</ele>
        <time>2021-07-01T13:21:44Z</time>
      </trkpt>
      <trkpt lat="42.6687" lon="1.63284">
        <ele>1645</ele>
        <time>2021-07-01T13:21:48Z</time>
      </trkpt>
      <trkpt lat="42.66867" lon="1.63288">
        <ele>1643</ele>
        <time>2021-07-01T13:21:53Z</time>
      </trkpt>
      <trkpt lat="42.66864" lon="1.63289">
        <ele>1643</ele>
        <time>2021-07-01T13:21:56Z</time>
      </trkpt>
      <trkpt lat="42.66861" lon="1.63294">
        <ele>1641</ele>
        <time>2021-07-01T13:22:04Z</time>
      </trkpt>
      <trkpt lat="42.66859" lon="1.63296">
        <ele>1640</ele>
        <time>2021-07-01T13:22:07Z</time>
      </trkpt>
      <trkpt lat="42.66857" lon="1.63297">
        <ele>1640</ele>
        <time>2021-07-01T13:22:10Z</time>
      </trkpt>
      <trkpt lat="42.66856" lon="1.633">
        <ele>1640</ele>
        <time>2021-07-01T13:22:14Z</time>
      </trkpt>
      <trkpt lat="42.66856" lon="1.63303">
        <ele>1640</ele>
        <time>2021-07-01T13:22:17Z</time>
      </trkpt>
      <trkpt lat="42.66851" lon="1.6331">
        <ele>1638</ele>
        <time>2021-07-01T13:22:27Z</time>
      </trkpt>
      <trkpt lat="42.66843" lon="1.63318">
        <ele>1636</ele>
        <time>2021-07-01T13:22:39Z</time>
      </trkpt>
      <trkpt lat="42.66842" lon="1.63321">
        <ele>1634</ele>
        <time>2021-07-01T13:22:44Z</time>
      </trkpt>
      <trkpt lat="42.66837" lon="1.63324">
        <ele>1633</ele>
        <time>2021-07-01T13:22:50Z</time>
      </trkpt>
      <trkpt lat="42.66836" lon="1.63327">
        <ele>1633</ele>
        <time>2021-07-01T13:22:53Z</time>
      </trkpt>
      <trkpt lat="42.66834" lon="1.6333">
        <ele>1633</ele>
        <time>2021-07-01T13:22:57Z</time>
      </trkpt>
      <trkpt lat="42.66831" lon="1.63332">
        <ele>1633</ele>
        <time>2021-07-01T13:23:00Z</time>
      </trkpt>
      <trkpt lat="42.6683" lon="1.63335">
        <ele>1632</ele>
        <time>2021-07-01T13:23:03Z</time>
      </trkpt>
      <trkpt lat="42.66828" lon="1.63337">
        <ele>1631</ele>
        <time>2021-07-01T13:23:08Z</time>
      </trkpt>
      <trkpt lat="42.66827" lon="1.63339">
        <ele>1628</ele>
        <time>2021-07-01T13:23:14Z</time>
      </trkpt>
      <trkpt lat="42.66825" lon="1.63341">
        <ele>1627</ele>
        <time>2021-07-01T13:23:18Z</time>
      </trkpt>
      <trkpt lat="42.66823" lon="1.63342">
        <ele>1627</ele>
        <time>2021-07-01T13:23:22Z</time>
      </trkpt>
      <trkpt lat="42.66822" lon="1.63345">
        <ele>1626</ele>
        <time>2021-07-01T13:23:28Z</time>
      </trkpt>
      <trkpt lat="42.66821" lon="1.63348">
        <ele>1624</ele>
        <time>2021-07-01T13:23:35Z</time>
      </trkpt>
      <trkpt lat="42.66822" lon="1.6335">
        <ele>1624</ele>
        <time>2021-07-01T13:23:43Z</time>
      </trkpt>
      <trkpt lat="42.66822" lon="1.63354">
        <ele>1621</ele>
        <time>2021-07-01T13:23:49Z</time>
      </trkpt>
      <trkpt lat="42.66825" lon="1.63364">
        <ele>1618</ele>
        <time>2021-07-01T13:24:05Z</time>
      </trkpt>
      <trkpt lat="42.66824" lon="1.63366">
        <ele>1617</ele>
        <time>2021-07-01T13:24:13Z</time>
      </trkpt>
      <trkpt lat="42.66822" lon="1.63367">
        <ele>1615</ele>
        <time>2021-07-01T13:24:19Z</time>
      </trkpt>
      <trkpt lat="42.66821" lon="1.63374">
        <ele>1613</ele>
        <time>2021-07-01T13:24:30Z</time>
      </trkpt>
      <trkpt lat="42.66822" lon="1.63377">
        <ele>1613</ele>
        <time>2021-07-01T13:24:32Z</time>
      </trkpt>
      <trkpt lat="42.66826" lon="1.63382">
        <ele>1613</ele>
        <time>2021-07-01T13:24:38Z</time>
      </trkpt>
      <trkpt lat="42.66829" lon="1.63384">
        <ele>1613</ele>
        <time>2021-07-01T13:24:42Z</time>
      </trkpt>
      <trkpt lat="42.66835" lon="1.63396">
        <ele>1613</ele>
        <time>2021-07-01T13:24:53Z</time>
      </trkpt>
      <trkpt lat="42.66839" lon="1.63402">
        <ele>1612</ele>
        <time>2021-07-01T13:24:59Z</time>
      </trkpt>
      <trkpt lat="42.66841" lon="1.63401">
        <ele>1612</ele>
        <time>2021-07-01T13:25:02Z</time>
      </trkpt>
      <trkpt lat="42.66844" lon="1.634">
        <ele>1612</ele>
        <time>2021-07-01T13:25:05Z</time>
      </trkpt>
      <trkpt lat="42.66846" lon="1.63402">
        <ele>1612</ele>
        <time>2021-07-01T13:25:09Z</time>
      </trkpt>
      <trkpt lat="42.66851" lon="1.63406">
        <ele>1612</ele>
        <time>2021-07-01T13:25:16Z</time>
      </trkpt>
      <trkpt lat="42.66853" lon="1.63406">
        <ele>1611</ele>
        <time>2021-07-01T13:25:19Z</time>
      </trkpt>
      <trkpt lat="42.66855" lon="1.63411">
        <ele>1612</ele>
        <time>2021-07-01T13:25:23Z</time>
      </trkpt>
      <trkpt lat="42.66852" lon="1.63418">
        <ele>1611</ele>
        <time>2021-07-01T13:25:30Z</time>
      </trkpt>
      <trkpt lat="42.66852" lon="1.63422">
        <ele>1610</ele>
        <time>2021-07-01T13:25:34Z</time>
      </trkpt>
      <trkpt lat="42.66852" lon="1.63426">
        <ele>1610</ele>
        <time>2021-07-01T13:25:41Z</time>
      </trkpt>
      <trkpt lat="42.6685" lon="1.63429">
        <ele>1608</ele>
        <time>2021-07-01T13:25:44Z</time>
      </trkpt>
      <trkpt lat="42.6685" lon="1.63432">
        <ele>1609</ele>
        <time>2021-07-01T13:25:57Z</time>
      </trkpt>
      <trkpt lat="42.66853" lon="1.63431">
        <ele>1608</ele>
        <time>2021-07-01T13:26:27Z</time>
      </trkpt>
      <trkpt lat="42.66856" lon="1.63435">
        <ele>1609</ele>
        <time>2021-07-01T13:26:33Z</time>
      </trkpt>
      <trkpt lat="42.66858" lon="1.63439">
        <ele>1610</ele>
        <time>2021-07-01T13:26:37Z</time>
      </trkpt>
      <trkpt lat="42.66861" lon="1.63441">
        <ele>1609</ele>
        <time>2021-07-01T13:26:40Z</time>
      </trkpt>
      <trkpt lat="42.66863" lon="1.63441">
        <ele>1610</ele>
        <time>2021-07-01T13:26:42Z</time>
      </trkpt>
      <trkpt lat="42.66865" lon="1.63442">
        <ele>1610</ele>
        <time>2021-07-01T13:26:46Z</time>
      </trkpt>
      <trkpt lat="42.66867" lon="1.63443">
        <ele>1610</ele>
        <time>2021-07-01T13:26:49Z</time>
      </trkpt>
      <trkpt lat="42.6687" lon="1.63447">
        <ele>1610</ele>
        <time>2021-07-01T13:26:53Z</time>
      </trkpt>
      <trkpt lat="42.66884" lon="1.63463">
        <ele>1609</ele>
        <time>2021-07-01T13:27:10Z</time>
      </trkpt>
      <trkpt lat="42.66888" lon="1.63468">
        <ele>1608</ele>
        <time>2021-07-01T13:27:16Z</time>
      </trkpt>
      <trkpt lat="42.66888" lon="1.63471">
        <ele>1608</ele>
        <time>2021-07-01T13:27:18Z</time>
      </trkpt>
      <trkpt lat="42.66891" lon="1.63472">
        <ele>1608</ele>
        <time>2021-07-01T13:27:21Z</time>
      </trkpt>
      <trkpt lat="42.66894" lon="1.63476">
        <ele>1608</ele>
        <time>2021-07-01T13:27:28Z</time>
      </trkpt>
      <trkpt lat="42.669" lon="1.63479">
        <ele>1607</ele>
        <time>2021-07-01T13:27:36Z</time>
      </trkpt>
      <trkpt lat="42.66901" lon="1.63482">
        <ele>1608</ele>
        <time>2021-07-01T13:27:39Z</time>
      </trkpt>
      <trkpt lat="42.66905" lon="1.63487">
        <ele>1607</ele>
        <time>2021-07-01T13:27:45Z</time>
      </trkpt>
      <trkpt lat="42.66908" lon="1.63489">
        <ele>1607</ele>
        <time>2021-07-01T13:27:48Z</time>
      </trkpt>
      <trkpt lat="42.66912" lon="1.63494">
        <ele>1608</ele>
        <time>2021-07-01T13:27:53Z</time>
      </trkpt>
      <trkpt lat="42.66926" lon="1.63508">
        <ele>1609</ele>
        <time>2021-07-01T13:28:10Z</time>
      </trkpt>
      <trkpt lat="42.6693" lon="1.63511">
        <ele>1608</ele>
        <time>2021-07-01T13:28:14Z</time>
      </trkpt>
      <trkpt lat="42.66933" lon="1.63512">
        <ele>1608</ele>
        <time>2021-07-01T13:28:17Z</time>
      </trkpt>
      <trkpt lat="42.66935" lon="1.63515">
        <ele>1608</ele>
        <time>2021-07-01T13:28:20Z</time>
      </trkpt>
      <trkpt lat="42.66935" lon="1.63518">
        <ele>1608</ele>
        <time>2021-07-01T13:28:23Z</time>
      </trkpt>
      <trkpt lat="42.66934" lon="1.63525">
        <ele>1609</ele>
        <time>2021-07-01T13:28:30Z</time>
      </trkpt>
      <trkpt lat="42.66933" lon="1.63528">
        <ele>1608</ele>
        <time>2021-07-01T13:28:33Z</time>
      </trkpt>
      <trkpt lat="42.66933" lon="1.63534">
        <ele>1607</ele>
        <time>2021-07-01T13:28:40Z</time>
      </trkpt>
      <trkpt lat="42.66936" lon="1.63541">
        <ele>1607</ele>
        <time>2021-07-01T13:28:46Z</time>
      </trkpt>
      <trkpt lat="42.66937" lon="1.63545">
        <ele>1607</ele>
        <time>2021-07-01T13:28:49Z</time>
      </trkpt>
      <trkpt lat="42.66936" lon="1.63548">
        <ele>1608</ele>
        <time>2021-07-01T13:28:51Z</time>
      </trkpt>
      <trkpt lat="42.66937" lon="1.63552">
        <ele>1608</ele>
        <time>2021-07-01T13:28:54Z</time>
      </trkpt>
      <trkpt lat="42.6694" lon="1.63554">
        <ele>1608</ele>
        <time>2021-07-01T13:28:57Z</time>
      </trkpt>
      <trkpt lat="42.66942" lon="1.63557">
        <ele>1608</ele>
        <time>2021-07-01T13:29:02Z</time>
      </trkpt>
      <trkpt lat="42.66952" lon="1.63566">
        <ele>1609</ele>
        <time>2021-07-01T13:29:15Z</time>
      </trkpt>
      <trkpt lat="42.66953" lon="1.63569">
        <ele>1609</ele>
        <time>2021-07-01T13:29:18Z</time>
      </trkpt>
      <trkpt lat="42.66954" lon="1.63572">
        <ele>1610</ele>
        <time>2021-07-01T13:29:21Z</time>
      </trkpt>
      <trkpt lat="42.66955" lon="1.63575">
        <ele>1610</ele>
        <time>2021-07-01T13:29:24Z</time>
      </trkpt>
      <trkpt lat="42.66956" lon="1.63579">
        <ele>1610</ele>
        <time>2021-07-01T13:29:28Z</time>
      </trkpt>
      <trkpt lat="42.66957" lon="1.63583">
        <ele>1610</ele>
        <time>2021-07-01T13:29:31Z</time>
      </trkpt>
      <trkpt lat="42.66957" lon="1.63586">
        <ele>1610</ele>
        <time>2021-07-01T13:29:34Z</time>
      </trkpt>
      <trkpt lat="42.66959" lon="1.63596">
        <ele>1611</ele>
        <time>2021-07-01T13:29:43Z</time>
      </trkpt>
      <trkpt lat="42.6696" lon="1.63599">
        <ele>1611</ele>
        <time>2021-07-01T13:29:46Z</time>
      </trkpt>
      <trkpt lat="42.66968" lon="1.63613">
        <ele>1613</ele>
        <time>2021-07-01T13:30:17Z</time>
      </trkpt>
      <trkpt lat="42.66972" lon="1.63617">
        <ele>1613</ele>
        <time>2021-07-01T13:30:22Z</time>
      </trkpt>
      <trkpt lat="42.66973" lon="1.63621">
        <ele>1613</ele>
        <time>2021-07-01T13:30:25Z</time>
      </trkpt>
      <trkpt lat="42.66981" lon="1.6363">
        <ele>1611</ele>
        <time>2021-07-01T13:30:36Z</time>
      </trkpt>
      <trkpt lat="42.66984" lon="1.63633">
        <ele>1611</ele>
        <time>2021-07-01T13:30:39Z</time>
      </trkpt>
      <trkpt lat="42.66985" lon="1.63635">
        <ele>1611</ele>
        <time>2021-07-01T13:30:42Z</time>
      </trkpt>
      <trkpt lat="42.66987" lon="1.63639">
        <ele>1611</ele>
        <time>2021-07-01T13:30:46Z</time>
      </trkpt>
      <trkpt lat="42.66989" lon="1.63642">
        <ele>1612</ele>
        <time>2021-07-01T13:30:50Z</time>
      </trkpt>
      <trkpt lat="42.6699" lon="1.63644">
        <ele>1613</ele>
        <time>2021-07-01T13:30:56Z</time>
      </trkpt>
      <trkpt lat="42.66997" lon="1.63643">
        <ele>1613</ele>
        <time>2021-07-01T13:31:26Z</time>
      </trkpt>
      <trkpt lat="42.67002" lon="1.63645">
        <ele>1613</ele>
        <time>2021-07-01T13:31:36Z</time>
      </trkpt>
      <trkpt lat="42.67004" lon="1.63652">
        <ele>1611</ele>
        <time>2021-07-01T13:34:02Z</time>
      </trkpt>
      <trkpt lat="42.67003" lon="1.63648">
        <ele>1610</ele>
        <time>2021-07-01T13:34:28Z</time>
      </trkpt>
      <trkpt lat="42.67001" lon="1.63644">
        <ele>1609</ele>
        <time>2021-07-01T13:34:43Z</time>
      </trkpt>
      <trkpt lat="42.66999" lon="1.63645">
        <ele>1606</ele>
        <time>2021-07-01T13:35:28Z</time>
      </trkpt>
      <trkpt lat="42.66996" lon="1.63645">
        <ele>1607</ele>
        <time>2021-07-01T13:35:30Z</time>
      </trkpt>
      <trkpt lat="42.66994" lon="1.63644">
        <ele>1608</ele>
        <time>2021-07-01T13:35:33Z</time>
      </trkpt>
      <trkpt lat="42.66994" lon="1.63644">
        <ele>1610</ele>
        <time>2021-07-01T13:36:05Z</time>
      </trkpt>
      <trkpt lat="42.66996" lon="1.63643">
        <ele>1613</ele>
        <time>2021-07-01T13:36:24Z</time>
      </trkpt>
      <trkpt lat="42.66996" lon="1.63641">
        <ele>1614</ele>
        <time>2021-07-01T13:36:53Z</time>
      </trkpt>
      <trkpt lat="42.66997" lon="1.63638">
        <ele>1615</ele>
        <time>2021-07-01T13:36:56Z</time>
      </trkpt>
      <trkpt lat="42.67" lon="1.6364">
        <ele>1615</ele>
        <time>2021-07-01T13:36:59Z</time>
      </trkpt>
      <trkpt lat="42.67004" lon="1.63638">
        <ele>1613</ele>
        <time>2021-07-01T13:37:06Z</time>
      </trkpt>
      <trkpt lat="42.67006" lon="1.63637">
        <ele>1614</ele>
        <time>2021-07-01T13:37:09Z</time>
      </trkpt>
      <trkpt lat="42.67018" lon="1.6363">
        <ele>1612</ele>
        <time>2021-07-01T13:37:24Z</time>
      </trkpt>
      <trkpt lat="42.67039" lon="1.63646">
        <ele>1609</ele>
        <time>2021-07-01T13:37:44Z</time>
      </trkpt>
      <trkpt lat="42.67043" lon="1.63651">
        <ele>1609</ele>
        <time>2021-07-01T13:37:48Z</time>
      </trkpt>
      <trkpt lat="42.67069" lon="1.63683">
        <ele>1607</ele>
        <time>2021-07-01T13:38:18Z</time>
      </trkpt>
      <trkpt lat="42.67076" lon="1.63692">
        <ele>1608</ele>
        <time>2021-07-01T13:38:26Z</time>
      </trkpt>
      <trkpt lat="42.67079" lon="1.63694">
        <ele>1608</ele>
        <time>2021-07-01T13:38:29Z</time>
      </trkpt>
      <trkpt lat="42.6708" lon="1.63697">
        <ele>1607</ele>
        <time>2021-07-01T13:38:32Z</time>
      </trkpt>
      <trkpt lat="42.67082" lon="1.63699">
        <ele>1607</ele>
        <time>2021-07-01T13:38:35Z</time>
      </trkpt>
      <trkpt lat="42.67086" lon="1.63703">
        <ele>1606</ele>
        <time>2021-07-01T13:38:40Z</time>
      </trkpt>
      <trkpt lat="42.67087" lon="1.63705">
        <ele>1606</ele>
        <time>2021-07-01T13:38:42Z</time>
      </trkpt>
      <trkpt lat="42.6709" lon="1.63711">
        <ele>1606</ele>
        <time>2021-07-01T13:38:47Z</time>
      </trkpt>
      <trkpt lat="42.67094" lon="1.63715">
        <ele>1606</ele>
        <time>2021-07-01T13:38:52Z</time>
      </trkpt>
      <trkpt lat="42.67096" lon="1.63717">
        <ele>1606</ele>
        <time>2021-07-01T13:38:54Z</time>
      </trkpt>
      <trkpt lat="42.67098" lon="1.63719">
        <ele>1607</ele>
        <time>2021-07-01T13:38:56Z</time>
      </trkpt>
      <trkpt lat="42.67102" lon="1.63724">
        <ele>1608</ele>
        <time>2021-07-01T13:39:01Z</time>
      </trkpt>
      <trkpt lat="42.67104" lon="1.63726">
        <ele>1608</ele>
        <time>2021-07-01T13:39:04Z</time>
      </trkpt>
      <trkpt lat="42.67107" lon="1.63732">
        <ele>1608</ele>
        <time>2021-07-01T13:39:09Z</time>
      </trkpt>
      <trkpt lat="42.67107" lon="1.63735">
        <ele>1607</ele>
        <time>2021-07-01T13:39:13Z</time>
      </trkpt>
      <trkpt lat="42.67109" lon="1.63738">
        <ele>1607</ele>
        <time>2021-07-01T13:39:18Z</time>
      </trkpt>
      <trkpt lat="42.67116" lon="1.63744">
        <ele>1605</ele>
        <time>2021-07-01T13:39:26Z</time>
      </trkpt>
      <trkpt lat="42.67118" lon="1.63746">
        <ele>1605</ele>
        <time>2021-07-01T13:39:29Z</time>
      </trkpt>
      <trkpt lat="42.67121" lon="1.63747">
        <ele>1605</ele>
        <time>2021-07-01T13:39:32Z</time>
      </trkpt>
      <trkpt lat="42.67123" lon="1.63745">
        <ele>1605</ele>
        <time>2021-07-01T13:39:35Z</time>
      </trkpt>
      <trkpt lat="42.67146" lon="1.6376">
        <ele>1607</ele>
        <time>2021-07-01T13:40:07Z</time>
      </trkpt>
      <trkpt lat="42.67148" lon="1.63763">
        <ele>1606</ele>
        <time>2021-07-01T13:40:10Z</time>
      </trkpt>
      <trkpt lat="42.67155" lon="1.63767">
        <ele>1606</ele>
        <time>2021-07-01T13:40:19Z</time>
      </trkpt>
      <trkpt lat="42.67157" lon="1.63769">
        <ele>1606</ele>
        <time>2021-07-01T13:40:23Z</time>
      </trkpt>
      <trkpt lat="42.67159" lon="1.63772">
        <ele>1606</ele>
        <time>2021-07-01T13:40:26Z</time>
      </trkpt>
      <trkpt lat="42.67162" lon="1.63772">
        <ele>1606</ele>
        <time>2021-07-01T13:40:30Z</time>
      </trkpt>
      <trkpt lat="42.67164" lon="1.63774">
        <ele>1606</ele>
        <time>2021-07-01T13:40:33Z</time>
      </trkpt>
      <trkpt lat="42.67167" lon="1.63776">
        <ele>1607</ele>
        <time>2021-07-01T13:40:37Z</time>
      </trkpt>
      <trkpt lat="42.67169" lon="1.63776">
        <ele>1607</ele>
        <time>2021-07-01T13:40:40Z</time>
      </trkpt>
      <trkpt lat="42.67172" lon="1.63776">
        <ele>1607</ele>
        <time>2021-07-01T13:40:43Z</time>
      </trkpt>
      <trkpt lat="42.67174" lon="1.63776">
        <ele>1607</ele>
        <time>2021-07-01T13:40:46Z</time>
      </trkpt>
      <trkpt lat="42.67176" lon="1.63779">
        <ele>1607</ele>
        <time>2021-07-01T13:40:50Z</time>
      </trkpt>
      <trkpt lat="42.67179" lon="1.63781">
        <ele>1606</ele>
        <time>2021-07-01T13:40:52Z</time>
      </trkpt>
      <trkpt lat="42.67181" lon="1.63782">
        <ele>1606</ele>
        <time>2021-07-01T13:40:54Z</time>
      </trkpt>
      <trkpt lat="42.6719" lon="1.63784">
        <ele>1606</ele>
        <time>2021-07-01T13:41:03Z</time>
      </trkpt>
      <trkpt lat="42.672" lon="1.63781">
        <ele>1605</ele>
        <time>2021-07-01T13:41:26Z</time>
      </trkpt>
      <trkpt lat="42.67201" lon="1.63783">
        <ele>1603</ele>
        <time>2021-07-01T13:41:41Z</time>
      </trkpt>
      <trkpt lat="42.67203" lon="1.63786">
        <ele>1602</ele>
        <time>2021-07-01T13:41:45Z</time>
      </trkpt>
      <trkpt lat="42.67204" lon="1.63787">
        <ele>1602</ele>
        <time>2021-07-01T13:41:47Z</time>
      </trkpt>
      <trkpt lat="42.67206" lon="1.6379">
        <ele>1602</ele>
        <time>2021-07-01T13:41:51Z</time>
      </trkpt>
      <trkpt lat="42.67208" lon="1.63791">
        <ele>1601</ele>
        <time>2021-07-01T13:41:55Z</time>
      </trkpt>
      <trkpt lat="42.67212" lon="1.63793">
        <ele>1601</ele>
        <time>2021-07-01T13:42:00Z</time>
      </trkpt>
      <trkpt lat="42.67214" lon="1.63792">
        <ele>1601</ele>
        <time>2021-07-01T13:42:02Z</time>
      </trkpt>
      <trkpt lat="42.67222" lon="1.63797">
        <ele>1602</ele>
        <time>2021-07-01T13:42:12Z</time>
      </trkpt>
      <trkpt lat="42.67224" lon="1.63797">
        <ele>1603</ele>
        <time>2021-07-01T13:42:15Z</time>
      </trkpt>
      <trkpt lat="42.67227" lon="1.63796">
        <ele>1603</ele>
        <time>2021-07-01T13:42:34Z</time>
      </trkpt>
      <trkpt lat="42.67229" lon="1.63796">
        <ele>1604</ele>
        <time>2021-07-01T13:42:36Z</time>
      </trkpt>
      <trkpt lat="42.67231" lon="1.63796">
        <ele>1604</ele>
        <time>2021-07-01T13:42:39Z</time>
      </trkpt>
      <trkpt lat="42.67239" lon="1.63805">
        <ele>1603</ele>
        <time>2021-07-01T13:42:48Z</time>
      </trkpt>
      <trkpt lat="42.67242" lon="1.63806">
        <ele>1602</ele>
        <time>2021-07-01T13:42:51Z</time>
      </trkpt>
      <trkpt lat="42.67245" lon="1.63807">
        <ele>1602</ele>
        <time>2021-07-01T13:42:54Z</time>
      </trkpt>
      <trkpt lat="42.67248" lon="1.63809">
        <ele>1604</ele>
        <time>2021-07-01T13:42:57Z</time>
      </trkpt>
      <trkpt lat="42.6725" lon="1.63812">
        <ele>1603</ele>
        <time>2021-07-01T13:43:00Z</time>
      </trkpt>
      <trkpt lat="42.67252" lon="1.6381">
        <ele>1604</ele>
        <time>2021-07-01T13:43:04Z</time>
      </trkpt>
      <trkpt lat="42.67254" lon="1.63812">
        <ele>1604</ele>
        <time>2021-07-01T13:43:08Z</time>
      </trkpt>
      <trkpt lat="42.67262" lon="1.63815">
        <ele>1603</ele>
        <time>2021-07-01T13:43:18Z</time>
      </trkpt>
      <trkpt lat="42.67283" lon="1.63834">
        <ele>1603</ele>
        <time>2021-07-01T13:43:43Z</time>
      </trkpt>
      <trkpt lat="42.67285" lon="1.63836">
        <ele>1603</ele>
        <time>2021-07-01T13:43:45Z</time>
      </trkpt>
      <trkpt lat="42.67285" lon="1.63839">
        <ele>1602</ele>
        <time>2021-07-01T13:43:49Z</time>
      </trkpt>
      <trkpt lat="42.67287" lon="1.63842">
        <ele>1601</ele>
        <time>2021-07-01T13:43:52Z</time>
      </trkpt>
      <trkpt lat="42.67298" lon="1.63861">
        <ele>1600</ele>
        <time>2021-07-01T13:44:08Z</time>
      </trkpt>
      <trkpt lat="42.67299" lon="1.63866">
        <ele>1601</ele>
        <time>2021-07-01T13:44:11Z</time>
      </trkpt>
      <trkpt lat="42.67301" lon="1.6387">
        <ele>1601</ele>
        <time>2021-07-01T13:44:14Z</time>
      </trkpt>
      <trkpt lat="42.67308" lon="1.63879">
        <ele>1600</ele>
        <time>2021-07-01T13:44:24Z</time>
      </trkpt>
      <trkpt lat="42.67309" lon="1.63881">
        <ele>1599</ele>
        <time>2021-07-01T13:44:31Z</time>
      </trkpt>
      <trkpt lat="42.67311" lon="1.63883">
        <ele>1599</ele>
        <time>2021-07-01T13:44:36Z</time>
      </trkpt>
      <trkpt lat="42.67325" lon="1.63898">
        <ele>1601</ele>
        <time>2021-07-01T13:44:53Z</time>
      </trkpt>
      <trkpt lat="42.67326" lon="1.63901">
        <ele>1601</ele>
        <time>2021-07-01T13:44:56Z</time>
      </trkpt>
      <trkpt lat="42.67328" lon="1.63906">
        <ele>1600</ele>
        <time>2021-07-01T13:44:59Z</time>
      </trkpt>
      <trkpt lat="42.67335" lon="1.63923">
        <ele>1600</ele>
        <time>2021-07-01T13:45:13Z</time>
      </trkpt>
      <trkpt lat="42.67338" lon="1.63926">
        <ele>1599</ele>
        <time>2021-07-01T13:45:16Z</time>
      </trkpt>
      <trkpt lat="42.67343" lon="1.63941">
        <ele>1599</ele>
        <time>2021-07-01T13:45:28Z</time>
      </trkpt>
      <trkpt lat="42.67346" lon="1.63952">
        <ele>1599</ele>
        <time>2021-07-01T13:45:35Z</time>
      </trkpt>
      <trkpt lat="42.67347" lon="1.63956">
        <ele>1599</ele>
        <time>2021-07-01T13:45:38Z</time>
      </trkpt>
      <trkpt lat="42.67349" lon="1.63964">
        <ele>1599</ele>
        <time>2021-07-01T13:45:44Z</time>
      </trkpt>
      <trkpt lat="42.67355" lon="1.63974">
        <ele>1599</ele>
        <time>2021-07-01T13:45:52Z</time>
      </trkpt>
      <trkpt lat="42.6736" lon="1.63979">
        <ele>1599</ele>
        <time>2021-07-01T13:45:58Z</time>
      </trkpt>
      <trkpt lat="42.67365" lon="1.6399">
        <ele>1601</ele>
        <time>2021-07-01T13:46:06Z</time>
      </trkpt>
      <trkpt lat="42.67366" lon="1.63992">
        <ele>1601</ele>
        <time>2021-07-01T13:46:08Z</time>
      </trkpt>
      <trkpt lat="42.67372" lon="1.64001">
        <ele>1600</ele>
        <time>2021-07-01T13:46:16Z</time>
      </trkpt>
      <trkpt lat="42.67374" lon="1.64003">
        <ele>1599</ele>
        <time>2021-07-01T13:46:18Z</time>
      </trkpt>
      <trkpt lat="42.67374" lon="1.64011">
        <ele>1598</ele>
        <time>2021-07-01T13:46:24Z</time>
      </trkpt>
      <trkpt lat="42.67376" lon="1.64018">
        <ele>1598</ele>
        <time>2021-07-01T13:46:43Z</time>
      </trkpt>
      <trkpt lat="42.67385" lon="1.64029">
        <ele>1599</ele>
        <time>2021-07-01T13:46:53Z</time>
      </trkpt>
      <trkpt lat="42.67387" lon="1.64032">
        <ele>1599</ele>
        <time>2021-07-01T13:46:55Z</time>
      </trkpt>
      <trkpt lat="42.6739" lon="1.64034">
        <ele>1599</ele>
        <time>2021-07-01T13:46:58Z</time>
      </trkpt>
      <trkpt lat="42.67394" lon="1.64036">
        <ele>1599</ele>
        <time>2021-07-01T13:47:01Z</time>
      </trkpt>
      <trkpt lat="42.67409" lon="1.64052">
        <ele>1600</ele>
        <time>2021-07-01T13:47:18Z</time>
      </trkpt>
      <trkpt lat="42.67412" lon="1.64054">
        <ele>1599</ele>
        <time>2021-07-01T13:47:21Z</time>
      </trkpt>
      <trkpt lat="42.67419" lon="1.64057">
        <ele>1599</ele>
        <time>2021-07-01T13:47:26Z</time>
      </trkpt>
      <trkpt lat="42.67421" lon="1.64059">
        <ele>1599</ele>
        <time>2021-07-01T13:47:30Z</time>
      </trkpt>
      <trkpt lat="42.67429" lon="1.64069">
        <ele>1599</ele>
        <time>2021-07-01T13:47:39Z</time>
      </trkpt>
      <trkpt lat="42.67431" lon="1.64076">
        <ele>1598</ele>
        <time>2021-07-01T13:47:44Z</time>
      </trkpt>
      <trkpt lat="42.67432" lon="1.6408">
        <ele>1598</ele>
        <time>2021-07-01T13:47:47Z</time>
      </trkpt>
      <trkpt lat="42.67432" lon="1.64084">
        <ele>1597</ele>
        <time>2021-07-01T13:47:50Z</time>
      </trkpt>
      <trkpt lat="42.67435" lon="1.64086">
        <ele>1597</ele>
        <time>2021-07-01T13:47:53Z</time>
      </trkpt>
      <trkpt lat="42.67444" lon="1.64094">
        <ele>1598</ele>
        <time>2021-07-01T13:48:09Z</time>
      </trkpt>
      <trkpt lat="42.67446" lon="1.64095">
        <ele>1596</ele>
        <time>2021-07-01T13:48:13Z</time>
      </trkpt>
      <trkpt lat="42.67447" lon="1.64099">
        <ele>1597</ele>
        <time>2021-07-01T13:48:24Z</time>
      </trkpt>
      <trkpt lat="42.6745" lon="1.64103">
        <ele>1597</ele>
        <time>2021-07-01T13:48:29Z</time>
      </trkpt>
      <trkpt lat="42.67452" lon="1.64106">
        <ele>1596</ele>
        <time>2021-07-01T13:48:34Z</time>
      </trkpt>
      <trkpt lat="42.67454" lon="1.64109">
        <ele>1594</ele>
        <time>2021-07-01T13:48:41Z</time>
      </trkpt>
      <trkpt lat="42.67454" lon="1.64113">
        <ele>1593</ele>
        <time>2021-07-01T13:48:45Z</time>
      </trkpt>
      <trkpt lat="42.67457" lon="1.64116">
        <ele>1592</ele>
        <time>2021-07-01T13:48:49Z</time>
      </trkpt>
      <trkpt lat="42.6746" lon="1.64119">
        <ele>1592</ele>
        <time>2021-07-01T13:48:53Z</time>
      </trkpt>
      <trkpt lat="42.6746" lon="1.64123">
        <ele>1592</ele>
        <time>2021-07-01T13:48:58Z</time>
      </trkpt>
      <trkpt lat="42.67461" lon="1.64126">
        <ele>1592</ele>
        <time>2021-07-01T13:49:01Z</time>
      </trkpt>
      <trkpt lat="42.67465" lon="1.64132">
        <ele>1591</ele>
        <time>2021-07-01T13:49:07Z</time>
      </trkpt>
      <trkpt lat="42.67471" lon="1.64145">
        <ele>1589</ele>
        <time>2021-07-01T13:49:18Z</time>
      </trkpt>
      <trkpt lat="42.67473" lon="1.64149">
        <ele>1589</ele>
        <time>2021-07-01T13:49:21Z</time>
      </trkpt>
      <trkpt lat="42.67473" lon="1.64153">
        <ele>1589</ele>
        <time>2021-07-01T13:49:25Z</time>
      </trkpt>
      <trkpt lat="42.67474" lon="1.64157">
        <ele>1588</ele>
        <time>2021-07-01T13:49:29Z</time>
      </trkpt>
      <trkpt lat="42.67474" lon="1.64162">
        <ele>1588</ele>
        <time>2021-07-01T13:49:31Z</time>
      </trkpt>
      <trkpt lat="42.67478" lon="1.64169">
        <ele>1588</ele>
        <time>2021-07-01T13:49:37Z</time>
      </trkpt>
      <trkpt lat="42.67481" lon="1.6417">
        <ele>1588</ele>
        <time>2021-07-01T13:49:40Z</time>
      </trkpt>
      <trkpt lat="42.67488" lon="1.64177">
        <ele>1587</ele>
        <time>2021-07-01T13:49:47Z</time>
      </trkpt>
      <trkpt lat="42.6749" lon="1.6418">
        <ele>1587</ele>
        <time>2021-07-01T13:49:51Z</time>
      </trkpt>
      <trkpt lat="42.67493" lon="1.64182">
        <ele>1587</ele>
        <time>2021-07-01T13:49:54Z</time>
      </trkpt>
      <trkpt lat="42.67496" lon="1.64182">
        <ele>1587</ele>
        <time>2021-07-01T13:49:58Z</time>
      </trkpt>
      <trkpt lat="42.67498" lon="1.64186">
        <ele>1586</ele>
        <time>2021-07-01T13:50:03Z</time>
      </trkpt>
      <trkpt lat="42.67501" lon="1.64187">
        <ele>1587</ele>
        <time>2021-07-01T13:50:06Z</time>
      </trkpt>
      <trkpt lat="42.67503" lon="1.6419">
        <ele>1586</ele>
        <time>2021-07-01T13:50:10Z</time>
      </trkpt>
      <trkpt lat="42.67506" lon="1.64191">
        <ele>1586</ele>
        <time>2021-07-01T13:50:13Z</time>
      </trkpt>
      <trkpt lat="42.67514" lon="1.64199">
        <ele>1584</ele>
        <time>2021-07-01T13:50:22Z</time>
      </trkpt>
      <trkpt lat="42.67523" lon="1.64212">
        <ele>1585</ele>
        <time>2021-07-01T13:50:34Z</time>
      </trkpt>
      <trkpt lat="42.67529" lon="1.64218">
        <ele>1586</ele>
        <time>2021-07-01T13:50:40Z</time>
      </trkpt>
      <trkpt lat="42.67532" lon="1.64225">
        <ele>1584</ele>
        <time>2021-07-01T13:50:46Z</time>
      </trkpt>
      <trkpt lat="42.67537" lon="1.6423">
        <ele>1584</ele>
        <time>2021-07-01T13:50:51Z</time>
      </trkpt>
      <trkpt lat="42.67539" lon="1.64233">
        <ele>1584</ele>
        <time>2021-07-01T13:50:53Z</time>
      </trkpt>
      <trkpt lat="42.67539" lon="1.64238">
        <ele>1583</ele>
        <time>2021-07-01T13:50:56Z</time>
      </trkpt>
      <trkpt lat="42.6754" lon="1.64242">
        <ele>1583</ele>
        <time>2021-07-01T13:50:59Z</time>
      </trkpt>
      <trkpt lat="42.67542" lon="1.64245">
        <ele>1582</ele>
        <time>2021-07-01T13:51:02Z</time>
      </trkpt>
      <trkpt lat="42.67546" lon="1.64246">
        <ele>1582</ele>
        <time>2021-07-01T13:51:05Z</time>
      </trkpt>
      <trkpt lat="42.67549" lon="1.64243">
        <ele>1582</ele>
        <time>2021-07-01T13:51:08Z</time>
      </trkpt>
      <trkpt lat="42.67552" lon="1.64241">
        <ele>1582</ele>
        <time>2021-07-01T13:51:11Z</time>
      </trkpt>
      <trkpt lat="42.67558" lon="1.64243">
        <ele>1582</ele>
        <time>2021-07-01T13:51:17Z</time>
      </trkpt>
      <trkpt lat="42.6757" lon="1.64257">
        <ele>1584</ele>
        <time>2021-07-01T13:51:31Z</time>
      </trkpt>
      <trkpt lat="42.67573" lon="1.64258">
        <ele>1584</ele>
        <time>2021-07-01T13:51:34Z</time>
      </trkpt>
      <trkpt lat="42.67579" lon="1.64264">
        <ele>1583</ele>
        <time>2021-07-01T13:51:40Z</time>
      </trkpt>
      <trkpt lat="42.67581" lon="1.64266">
        <ele>1584</ele>
        <time>2021-07-01T13:51:45Z</time>
      </trkpt>
      <trkpt lat="42.67582" lon="1.6427">
        <ele>1584</ele>
        <time>2021-07-01T13:51:47Z</time>
      </trkpt>
      <trkpt lat="42.67587" lon="1.64277">
        <ele>1583</ele>
        <time>2021-07-01T13:51:53Z</time>
      </trkpt>
      <trkpt lat="42.6759" lon="1.64279">
        <ele>1582</ele>
        <time>2021-07-01T13:51:56Z</time>
      </trkpt>
      <trkpt lat="42.67592" lon="1.64283">
        <ele>1583</ele>
        <time>2021-07-01T13:52:00Z</time>
      </trkpt>
      <trkpt lat="42.67607" lon="1.64289">
        <ele>1580</ele>
        <time>2021-07-01T13:52:14Z</time>
      </trkpt>
      <trkpt lat="42.67616" lon="1.64298">
        <ele>1579</ele>
        <time>2021-07-01T13:52:24Z</time>
      </trkpt>
      <trkpt lat="42.67618" lon="1.64295">
        <ele>1579</ele>
        <time>2021-07-01T13:52:30Z</time>
      </trkpt>
      <trkpt lat="42.67619" lon="1.64292">
        <ele>1578</ele>
        <time>2021-07-01T13:52:33Z</time>
      </trkpt>
      <trkpt lat="42.67621" lon="1.64294">
        <ele>1578</ele>
        <time>2021-07-01T13:52:38Z</time>
      </trkpt>
      <trkpt lat="42.67623" lon="1.64297">
        <ele>1577</ele>
        <time>2021-07-01T13:52:43Z</time>
      </trkpt>
      <trkpt lat="42.67625" lon="1.643">
        <ele>1576</ele>
        <time>2021-07-01T13:52:46Z</time>
      </trkpt>
      <trkpt lat="42.67627" lon="1.64302">
        <ele>1575</ele>
        <time>2021-07-01T13:52:48Z</time>
      </trkpt>
      <trkpt lat="42.67632" lon="1.64305">
        <ele>1575</ele>
        <time>2021-07-01T13:52:55Z</time>
      </trkpt>
      <trkpt lat="42.67634" lon="1.6431">
        <ele>1575</ele>
        <time>2021-07-01T13:52:58Z</time>
      </trkpt>
      <trkpt lat="42.67635" lon="1.64313">
        <ele>1576</ele>
        <time>2021-07-01T13:53:05Z</time>
      </trkpt>
      <trkpt lat="42.6764" lon="1.6432">
        <ele>1577</ele>
        <time>2021-07-01T13:53:13Z</time>
      </trkpt>
      <trkpt lat="42.67644" lon="1.64325">
        <ele>1577</ele>
        <time>2021-07-01T13:53:19Z</time>
      </trkpt>
      <trkpt lat="42.67645" lon="1.64329">
        <ele>1577</ele>
        <time>2021-07-01T13:53:22Z</time>
      </trkpt>
      <trkpt lat="42.67659" lon="1.64339">
        <ele>1576</ele>
        <time>2021-07-01T13:53:37Z</time>
      </trkpt>
      <trkpt lat="42.67662" lon="1.64339">
        <ele>1575</ele>
        <time>2021-07-01T13:53:40Z</time>
      </trkpt>
      <trkpt lat="42.67664" lon="1.64338">
        <ele>1575</ele>
        <time>2021-07-01T13:53:43Z</time>
      </trkpt>
      <trkpt lat="42.67666" lon="1.64333">
        <ele>1575</ele>
        <time>2021-07-01T13:53:48Z</time>
      </trkpt>
      <trkpt lat="42.67668" lon="1.6433">
        <ele>1575</ele>
        <time>2021-07-01T13:53:51Z</time>
      </trkpt>
      <trkpt lat="42.67671" lon="1.6433">
        <ele>1575</ele>
        <time>2021-07-01T13:53:55Z</time>
      </trkpt>
      <trkpt lat="42.67674" lon="1.64333">
        <ele>1574</ele>
        <time>2021-07-01T13:54:00Z</time>
      </trkpt>
      <trkpt lat="42.67683" lon="1.64334">
        <ele>1574</ele>
        <time>2021-07-01T13:54:10Z</time>
      </trkpt>
      <trkpt lat="42.67688" lon="1.64336">
        <ele>1573</ele>
        <time>2021-07-01T13:54:16Z</time>
      </trkpt>
      <trkpt lat="42.67691" lon="1.64335">
        <ele>1573</ele>
        <time>2021-07-01T13:54:19Z</time>
      </trkpt>
      <trkpt lat="42.67694" lon="1.64337">
        <ele>1572</ele>
        <time>2021-07-01T13:54:23Z</time>
      </trkpt>
      <trkpt lat="42.67695" lon="1.6434">
        <ele>1572</ele>
        <time>2021-07-01T13:54:29Z</time>
      </trkpt>
      <trkpt lat="42.67698" lon="1.64341">
        <ele>1572</ele>
        <time>2021-07-01T13:54:32Z</time>
      </trkpt>
      <trkpt lat="42.67701" lon="1.6434">
        <ele>1572</ele>
        <time>2021-07-01T13:54:35Z</time>
      </trkpt>
      <trkpt lat="42.67707" lon="1.64342">
        <ele>1572</ele>
        <time>2021-07-01T13:54:40Z</time>
      </trkpt>
      <trkpt lat="42.67713" lon="1.64345">
        <ele>1571</ele>
        <time>2021-07-01T13:54:46Z</time>
      </trkpt>
      <trkpt lat="42.67716" lon="1.64345">
        <ele>1571</ele>
        <time>2021-07-01T13:54:49Z</time>
      </trkpt>
      <trkpt lat="42.67723" lon="1.64347">
        <ele>1571</ele>
        <time>2021-07-01T13:54:54Z</time>
      </trkpt>
      <trkpt lat="42.67725" lon="1.6435">
        <ele>1571</ele>
        <time>2021-07-01T13:54:57Z</time>
      </trkpt>
      <trkpt lat="42.67731" lon="1.64354">
        <ele>1570</ele>
        <time>2021-07-01T13:55:03Z</time>
      </trkpt>
      <trkpt lat="42.67736" lon="1.6436">
        <ele>1571</ele>
        <time>2021-07-01T13:55:14Z</time>
      </trkpt>
      <trkpt lat="42.67739" lon="1.64362">
        <ele>1571</ele>
        <time>2021-07-01T13:55:19Z</time>
      </trkpt>
      <trkpt lat="42.67747" lon="1.64365">
        <ele>1568</ele>
        <time>2021-07-01T13:55:30Z</time>
      </trkpt>
      <trkpt lat="42.6775" lon="1.64368">
        <ele>1567</ele>
        <time>2021-07-01T13:55:38Z</time>
      </trkpt>
      <trkpt lat="42.67756" lon="1.64367">
        <ele>1564</ele>
        <time>2021-07-01T13:55:51Z</time>
      </trkpt>
      <trkpt lat="42.67755" lon="1.64372">
        <ele>1563</ele>
        <time>2021-07-01T13:55:56Z</time>
      </trkpt>
      <trkpt lat="42.67754" lon="1.64379">
        <ele>1562</ele>
        <time>2021-07-01T13:56:01Z</time>
      </trkpt>
      <trkpt lat="42.67753" lon="1.64383">
        <ele>1561</ele>
        <time>2021-07-01T13:56:04Z</time>
      </trkpt>
      <trkpt lat="42.67753" lon="1.64387">
        <ele>1561</ele>
        <time>2021-07-01T13:56:07Z</time>
      </trkpt>
      <trkpt lat="42.67751" lon="1.64396">
        <ele>1560</ele>
        <time>2021-07-01T13:56:13Z</time>
      </trkpt>
      <trkpt lat="42.67751" lon="1.644">
        <ele>1559</ele>
        <time>2021-07-01T13:56:16Z</time>
      </trkpt>
      <trkpt lat="42.67752" lon="1.6441">
        <ele>1557</ele>
        <time>2021-07-01T13:56:22Z</time>
      </trkpt>
      <trkpt lat="42.67758" lon="1.64421">
        <ele>1559</ele>
        <time>2021-07-01T13:56:32Z</time>
      </trkpt>
      <trkpt lat="42.67763" lon="1.64426">
        <ele>1559</ele>
        <time>2021-07-01T13:56:38Z</time>
      </trkpt>
      <trkpt lat="42.6779" lon="1.6446">
        <ele>1564</ele>
        <time>2021-07-01T13:57:06Z</time>
      </trkpt>
      <trkpt lat="42.67798" lon="1.64469">
        <ele>1562</ele>
        <time>2021-07-01T13:57:16Z</time>
      </trkpt>
      <trkpt lat="42.67804" lon="1.64475">
        <ele>1562</ele>
        <time>2021-07-01T13:57:22Z</time>
      </trkpt>
      <trkpt lat="42.67809" lon="1.64481">
        <ele>1563</ele>
        <time>2021-07-01T13:57:28Z</time>
      </trkpt>
      <trkpt lat="42.67822" lon="1.64488">
        <ele>1563</ele>
        <time>2021-07-01T13:57:41Z</time>
      </trkpt>
      <trkpt lat="42.67825" lon="1.64492">
        <ele>1565</ele>
        <time>2021-07-01T13:59:04Z</time>
      </trkpt>
      <trkpt lat="42.67828" lon="1.64491">
        <ele>1561</ele>
        <time>2021-07-01T14:02:29Z</time>
      </trkpt>
      <trkpt lat="42.67831" lon="1.64494">
        <ele>1555</ele>
        <time>2021-07-01T14:03:50Z</time>
      </trkpt>
      <trkpt lat="42.67833" lon="1.64494">
        <ele>1556</ele>
        <time>2021-07-01T14:03:53Z</time>
      </trkpt>
      <trkpt lat="42.67859" lon="1.6451">
        <ele>1556</ele>
        <time>2021-07-01T14:04:20Z</time>
      </trkpt>
      <trkpt lat="42.67862" lon="1.64511">
        <ele>1556</ele>
        <time>2021-07-01T14:04:22Z</time>
      </trkpt>
      <trkpt lat="42.67875" lon="1.6452">
        <ele>1557</ele>
        <time>2021-07-01T14:04:36Z</time>
      </trkpt>
      <trkpt lat="42.67881" lon="1.64523">
        <ele>1556</ele>
        <time>2021-07-01T14:04:41Z</time>
      </trkpt>
      <trkpt lat="42.67883" lon="1.64525">
        <ele>1556</ele>
        <time>2021-07-01T14:04:43Z</time>
      </trkpt>
      <trkpt lat="42.67885" lon="1.64528">
        <ele>1555</ele>
        <time>2021-07-01T14:04:46Z</time>
      </trkpt>
      <trkpt lat="42.67887" lon="1.64535">
        <ele>1555</ele>
        <time>2021-07-01T14:04:50Z</time>
      </trkpt>
      <trkpt lat="42.67891" lon="1.64541">
        <ele>1556</ele>
        <time>2021-07-01T14:04:54Z</time>
      </trkpt>
      <trkpt lat="42.67895" lon="1.64556">
        <ele>1557</ele>
        <time>2021-07-01T14:05:03Z</time>
      </trkpt>
      <trkpt lat="42.67897" lon="1.64572">
        <ele>1554</ele>
        <time>2021-07-01T14:05:14Z</time>
      </trkpt>
      <trkpt lat="42.67898" lon="1.64575">
        <ele>1553</ele>
        <time>2021-07-01T14:05:16Z</time>
      </trkpt>
      <trkpt lat="42.67899" lon="1.64579">
        <ele>1553</ele>
        <time>2021-07-01T14:05:18Z</time>
      </trkpt>
      <trkpt lat="42.67904" lon="1.64589">
        <ele>1553</ele>
        <time>2021-07-01T14:05:26Z</time>
      </trkpt>
      <trkpt lat="42.67906" lon="1.64592">
        <ele>1553</ele>
        <time>2021-07-01T14:05:29Z</time>
      </trkpt>
      <trkpt lat="42.67937" lon="1.64622">
        <ele>1554</ele>
        <time>2021-07-01T14:06:00Z</time>
      </trkpt>
      <trkpt lat="42.67944" lon="1.64629">
        <ele>1555</ele>
        <time>2021-07-01T14:06:06Z</time>
      </trkpt>
      <trkpt lat="42.67956" lon="1.64652">
        <ele>1556</ele>
        <time>2021-07-01T14:06:22Z</time>
      </trkpt>
      <trkpt lat="42.6796" lon="1.64658">
        <ele>1555</ele>
        <time>2021-07-01T14:06:27Z</time>
      </trkpt>
      <trkpt lat="42.67962" lon="1.64661">
        <ele>1556</ele>
        <time>2021-07-01T14:06:29Z</time>
      </trkpt>
      <trkpt lat="42.67964" lon="1.64663">
        <ele>1556</ele>
        <time>2021-07-01T14:06:32Z</time>
      </trkpt>
      <trkpt lat="42.67972" lon="1.64679">
        <ele>1554</ele>
        <time>2021-07-01T14:06:44Z</time>
      </trkpt>
      <trkpt lat="42.67981" lon="1.64686">
        <ele>1554</ele>
        <time>2021-07-01T14:06:52Z</time>
      </trkpt>
      <trkpt lat="42.67992" lon="1.64698">
        <ele>1555</ele>
        <time>2021-07-01T14:07:02Z</time>
      </trkpt>
      <trkpt lat="42.67994" lon="1.647">
        <ele>1555</ele>
        <time>2021-07-01T14:07:05Z</time>
      </trkpt>
      <trkpt lat="42.68005" lon="1.64702">
        <ele>1555</ele>
        <time>2021-07-01T14:07:16Z</time>
      </trkpt>
      <trkpt lat="42.68015" lon="1.647">
        <ele>1554</ele>
        <time>2021-07-01T14:07:25Z</time>
      </trkpt>
      <trkpt lat="42.6802" lon="1.64701">
        <ele>1555</ele>
        <time>2021-07-01T14:07:29Z</time>
      </trkpt>
      <trkpt lat="42.68043" lon="1.64703">
        <ele>1556</ele>
        <time>2021-07-01T14:07:48Z</time>
      </trkpt>
      <trkpt lat="42.68078" lon="1.64726">
        <ele>1557</ele>
        <time>2021-07-01T14:08:19Z</time>
      </trkpt>
      <trkpt lat="42.68085" lon="1.64731">
        <ele>1558</ele>
        <time>2021-07-01T14:08:26Z</time>
      </trkpt>
      <trkpt lat="42.68087" lon="1.64734">
        <ele>1558</ele>
        <time>2021-07-01T14:08:29Z</time>
      </trkpt>
      <trkpt lat="42.68089" lon="1.64736">
        <ele>1558</ele>
        <time>2021-07-01T14:08:31Z</time>
      </trkpt>
      <trkpt lat="42.68099" lon="1.64739">
        <ele>1557</ele>
        <time>2021-07-01T14:08:39Z</time>
      </trkpt>
      <trkpt lat="42.68109" lon="1.64748">
        <ele>1557</ele>
        <time>2021-07-01T14:08:49Z</time>
      </trkpt>
      <trkpt lat="42.68127" lon="1.64759">
        <ele>1556</ele>
        <time>2021-07-01T14:09:05Z</time>
      </trkpt>
      <trkpt lat="42.6813" lon="1.64764">
        <ele>1557</ele>
        <time>2021-07-01T14:09:09Z</time>
      </trkpt>
      <trkpt lat="42.68133" lon="1.64765">
        <ele>1557</ele>
        <time>2021-07-01T14:09:11Z</time>
      </trkpt>
      <trkpt lat="42.6814" lon="1.64775">
        <ele>1557</ele>
        <time>2021-07-01T14:09:19Z</time>
      </trkpt>
      <trkpt lat="42.68153" lon="1.64813">
        <ele>1556</ele>
        <time>2021-07-01T14:09:44Z</time>
      </trkpt>
      <trkpt lat="42.68155" lon="1.6482">
        <ele>1555</ele>
        <time>2021-07-01T14:09:49Z</time>
      </trkpt>
      <trkpt lat="42.68155" lon="1.64823">
        <ele>1555</ele>
        <time>2021-07-01T14:09:51Z</time>
      </trkpt>
      <trkpt lat="42.68163" lon="1.64839">
        <ele>1556</ele>
        <time>2021-07-01T14:10:03Z</time>
      </trkpt>
      <trkpt lat="42.68165" lon="1.64842">
        <ele>1556</ele>
        <time>2021-07-01T14:10:06Z</time>
      </trkpt>
      <trkpt lat="42.68168" lon="1.64845">
        <ele>1556</ele>
        <time>2021-07-01T14:10:09Z</time>
      </trkpt>
      <trkpt lat="42.68173" lon="1.64857">
        <ele>1556</ele>
        <time>2021-07-01T14:10:18Z</time>
      </trkpt>
      <trkpt lat="42.68176" lon="1.6486">
        <ele>1556</ele>
        <time>2021-07-01T14:10:23Z</time>
      </trkpt>
      <trkpt lat="42.68179" lon="1.64857">
        <ele>1556</ele>
        <time>2021-07-01T14:10:26Z</time>
      </trkpt>
      <trkpt lat="42.68181" lon="1.64857">
        <ele>1559</ele>
        <time>2021-07-01T14:10:49Z</time>
      </trkpt>
      <trkpt lat="42.68181" lon="1.64862">
        <ele>1558</ele>
        <time>2021-07-01T14:11:03Z</time>
      </trkpt>
      <trkpt lat="42.68182" lon="1.64867">
        <ele>1557</ele>
        <time>2021-07-01T14:11:07Z</time>
      </trkpt>
      <trkpt lat="42.68192" lon="1.64882">
        <ele>1557</ele>
        <time>2021-07-01T14:11:20Z</time>
      </trkpt>
      <trkpt lat="42.6821" lon="1.64927">
        <ele>1557</ele>
        <time>2021-07-01T14:11:51Z</time>
      </trkpt>
      <trkpt lat="42.68216" lon="1.64945">
        <ele>1558</ele>
        <time>2021-07-01T14:12:02Z</time>
      </trkpt>
      <trkpt lat="42.68221" lon="1.64952">
        <ele>1558</ele>
        <time>2021-07-01T14:12:08Z</time>
      </trkpt>
      <trkpt lat="42.68224" lon="1.64963">
        <ele>1557</ele>
        <time>2021-07-01T14:12:15Z</time>
      </trkpt>
      <trkpt lat="42.6823" lon="1.64971">
        <ele>1558</ele>
        <time>2021-07-01T14:12:22Z</time>
      </trkpt>
      <trkpt lat="42.68228" lon="1.64967">
        <ele>1557</ele>
        <time>2021-07-01T14:12:28Z</time>
      </trkpt>
      <trkpt lat="42.68227" lon="1.64965">
        <ele>1558</ele>
        <time>2021-07-01T14:12:31Z</time>
      </trkpt>
      <trkpt lat="42.68225" lon="1.64962">
        <ele>1559</ele>
        <time>2021-07-01T14:12:34Z</time>
      </trkpt>
      <trkpt lat="42.68226" lon="1.64958">
        <ele>1559</ele>
        <time>2021-07-01T14:12:36Z</time>
      </trkpt>
      <trkpt lat="42.68226" lon="1.64954">
        <ele>1559</ele>
        <time>2021-07-01T14:12:39Z</time>
      </trkpt>
      <trkpt lat="42.68228" lon="1.64953">
        <ele>1559</ele>
        <time>2021-07-01T14:12:42Z</time>
      </trkpt>
      <trkpt lat="42.68238" lon="1.64955">
        <ele>1556</ele>
        <time>2021-07-01T14:12:51Z</time>
      </trkpt>
      <trkpt lat="42.68249" lon="1.64953">
        <ele>1554</ele>
        <time>2021-07-01T14:13:04Z</time>
      </trkpt>
      <trkpt lat="42.68258" lon="1.64956">
        <ele>1552</ele>
        <time>2021-07-01T14:13:13Z</time>
      </trkpt>
      <trkpt lat="42.68261" lon="1.64956">
        <ele>1551</ele>
        <time>2021-07-01T14:13:33Z</time>
      </trkpt>
      <trkpt lat="42.68267" lon="1.64957">
        <ele>1552</ele>
        <time>2021-07-01T14:13:39Z</time>
      </trkpt>
      <trkpt lat="42.68272" lon="1.64956">
        <ele>1552</ele>
        <time>2021-07-01T14:13:45Z</time>
      </trkpt>
      <trkpt lat="42.68275" lon="1.64958">
        <ele>1553</ele>
        <time>2021-07-01T14:13:48Z</time>
      </trkpt>
      <trkpt lat="42.68277" lon="1.64959">
        <ele>1553</ele>
        <time>2021-07-01T14:13:50Z</time>
      </trkpt>
      <trkpt lat="42.68279" lon="1.6496">
        <ele>1553</ele>
        <time>2021-07-01T14:13:52Z</time>
      </trkpt>
      <trkpt lat="42.68281" lon="1.64958">
        <ele>1552</ele>
        <time>2021-07-01T14:13:56Z</time>
      </trkpt>
      <trkpt lat="42.68281" lon="1.64954">
        <ele>1551</ele>
        <time>2021-07-01T14:14:00Z</time>
      </trkpt>
      <trkpt lat="42.6828" lon="1.64951">
        <ele>1550</ele>
        <time>2021-07-01T14:14:03Z</time>
      </trkpt>
      <trkpt lat="42.68278" lon="1.64949">
        <ele>1551</ele>
        <time>2021-07-01T14:14:06Z</time>
      </trkpt>
      <trkpt lat="42.68276" lon="1.64948">
        <ele>1552</ele>
        <time>2021-07-01T14:14:09Z</time>
      </trkpt>
      <trkpt lat="42.68274" lon="1.64946">
        <ele>1552</ele>
        <time>2021-07-01T14:14:11Z</time>
      </trkpt>
      <trkpt lat="42.68263" lon="1.64924">
        <ele>1549</ele>
        <time>2021-07-01T14:14:29Z</time>
      </trkpt>
      <trkpt lat="42.68258" lon="1.64917">
        <ele>1548</ele>
        <time>2021-07-01T14:14:37Z</time>
      </trkpt>
      <trkpt lat="42.68257" lon="1.64914">
        <ele>1547</ele>
        <time>2021-07-01T14:14:39Z</time>
      </trkpt>
      <trkpt lat="42.68256" lon="1.64911">
        <ele>1547</ele>
        <time>2021-07-01T14:14:41Z</time>
      </trkpt>
      <trkpt lat="42.68257" lon="1.64908">
        <ele>1546</ele>
        <time>2021-07-01T14:14:46Z</time>
      </trkpt>
      <trkpt lat="42.6826" lon="1.64906">
        <ele>1545</ele>
        <time>2021-07-01T14:14:50Z</time>
      </trkpt>
      <trkpt lat="42.68264" lon="1.64907">
        <ele>1543</ele>
        <time>2021-07-01T14:14:53Z</time>
      </trkpt>
      <trkpt lat="42.68267" lon="1.64905">
        <ele>1542</ele>
        <time>2021-07-01T14:14:56Z</time>
      </trkpt>
      <trkpt lat="42.68273" lon="1.64906">
        <ele>1540</ele>
        <time>2021-07-01T14:15:03Z</time>
      </trkpt>
      <trkpt lat="42.68275" lon="1.64907">
        <ele>1540</ele>
        <time>2021-07-01T14:15:06Z</time>
      </trkpt>
      <trkpt lat="42.68278" lon="1.64908">
        <ele>1539</ele>
        <time>2021-07-01T14:15:09Z</time>
      </trkpt>
      <trkpt lat="42.68281" lon="1.64906">
        <ele>1537</ele>
        <time>2021-07-01T14:15:14Z</time>
      </trkpt>
      <trkpt lat="42.68286" lon="1.64902">
        <ele>1535</ele>
        <time>2021-07-01T14:15:20Z</time>
      </trkpt>
      <trkpt lat="42.68287" lon="1.64898">
        <ele>1533</ele>
        <time>2021-07-01T14:15:24Z</time>
      </trkpt>
      <trkpt lat="42.68288" lon="1.64895">
        <ele>1533</ele>
        <time>2021-07-01T14:15:27Z</time>
      </trkpt>
      <trkpt lat="42.68288" lon="1.64891">
        <ele>1532</ele>
        <time>2021-07-01T14:15:30Z</time>
      </trkpt>
      <trkpt lat="42.68289" lon="1.64887">
        <ele>1532</ele>
        <time>2021-07-01T14:15:33Z</time>
      </trkpt>
      <trkpt lat="42.68291" lon="1.64884">
        <ele>1531</ele>
        <time>2021-07-01T14:15:36Z</time>
      </trkpt>
      <trkpt lat="42.68296" lon="1.64882">
        <ele>1530</ele>
        <time>2021-07-01T14:15:41Z</time>
      </trkpt>
      <trkpt lat="42.68309" lon="1.64883">
        <ele>1530</ele>
        <time>2021-07-01T14:15:54Z</time>
      </trkpt>
      <trkpt lat="42.68312" lon="1.64884">
        <ele>1530</ele>
        <time>2021-07-01T14:15:56Z</time>
      </trkpt>
      <trkpt lat="42.68321" lon="1.64895">
        <ele>1530</ele>
        <time>2021-07-01T14:16:06Z</time>
      </trkpt>
      <trkpt lat="42.68327" lon="1.64908">
        <ele>1530</ele>
        <time>2021-07-01T14:16:19Z</time>
      </trkpt>
      <trkpt lat="42.68329" lon="1.64911">
        <ele>1529</ele>
        <time>2021-07-01T14:16:21Z</time>
      </trkpt>
      <trkpt lat="42.68333" lon="1.64916">
        <ele>1528</ele>
        <time>2021-07-01T14:16:29Z</time>
      </trkpt>
      <trkpt lat="42.68333" lon="1.6492">
        <ele>1527</ele>
        <time>2021-07-01T14:16:32Z</time>
      </trkpt>
      <trkpt lat="42.68338" lon="1.64926">
        <ele>1526</ele>
        <time>2021-07-01T14:16:38Z</time>
      </trkpt>
      <trkpt lat="42.68342" lon="1.64932">
        <ele>1526</ele>
        <time>2021-07-01T14:16:44Z</time>
      </trkpt>
      <trkpt lat="42.68344" lon="1.64935">
        <ele>1526</ele>
        <time>2021-07-01T14:16:47Z</time>
      </trkpt>
      <trkpt lat="42.68347" lon="1.64937">
        <ele>1525</ele>
        <time>2021-07-01T14:16:51Z</time>
      </trkpt>
      <trkpt lat="42.68353" lon="1.64945">
        <ele>1523</ele>
        <time>2021-07-01T14:17:02Z</time>
      </trkpt>
      <trkpt lat="42.68354" lon="1.64947">
        <ele>1523</ele>
        <time>2021-07-01T14:17:04Z</time>
      </trkpt>
      <trkpt lat="42.68355" lon="1.64951">
        <ele>1522</ele>
        <time>2021-07-01T14:17:07Z</time>
      </trkpt>
      <trkpt lat="42.68357" lon="1.64953">
        <ele>1522</ele>
        <time>2021-07-01T14:17:10Z</time>
      </trkpt>
      <trkpt lat="42.68359" lon="1.64955">
        <ele>1522</ele>
        <time>2021-07-01T14:17:13Z</time>
      </trkpt>
      <trkpt lat="42.68361" lon="1.64955">
        <ele>1522</ele>
        <time>2021-07-01T14:17:17Z</time>
      </trkpt>
      <trkpt lat="42.68364" lon="1.64956">
        <ele>1520</ele>
        <time>2021-07-01T14:17:23Z</time>
      </trkpt>
      <trkpt lat="42.68366" lon="1.64957">
        <ele>1520</ele>
        <time>2021-07-01T14:17:26Z</time>
      </trkpt>
      <trkpt lat="42.68367" lon="1.6496">
        <ele>1519</ele>
        <time>2021-07-01T14:17:31Z</time>
      </trkpt>
      <trkpt lat="42.68371" lon="1.64966">
        <ele>1517</ele>
        <time>2021-07-01T14:17:38Z</time>
      </trkpt>
      <trkpt lat="42.68372" lon="1.6497">
        <ele>1517</ele>
        <time>2021-07-01T14:17:41Z</time>
      </trkpt>
      <trkpt lat="42.68373" lon="1.64972">
        <ele>1516</ele>
        <time>2021-07-01T14:17:44Z</time>
      </trkpt>
      <trkpt lat="42.68376" lon="1.64974">
        <ele>1517</ele>
        <time>2021-07-01T14:17:48Z</time>
      </trkpt>
      <trkpt lat="42.68375" lon="1.64976">
        <ele>1517</ele>
        <time>2021-07-01T14:17:50Z</time>
      </trkpt>
      <trkpt lat="42.68375" lon="1.64979">
        <ele>1517</ele>
        <time>2021-07-01T14:17:52Z</time>
      </trkpt>
      <trkpt lat="42.68376" lon="1.64983">
        <ele>1513</ele>
        <time>2021-07-01T14:19:58Z</time>
      </trkpt>
      <trkpt lat="42.68376" lon="1.64986">
        <ele>1514</ele>
        <time>2021-07-01T14:20:01Z</time>
      </trkpt>
      <trkpt lat="42.68377" lon="1.64989">
        <ele>1514</ele>
        <time>2021-07-01T14:20:04Z</time>
      </trkpt>
      <trkpt lat="42.68377" lon="1.64993">
        <ele>1515</ele>
        <time>2021-07-01T14:20:08Z</time>
      </trkpt>
      <trkpt lat="42.68378" lon="1.65005">
        <ele>1515</ele>
        <time>2021-07-01T14:20:20Z</time>
      </trkpt>
      <trkpt lat="42.6838" lon="1.65007">
        <ele>1515</ele>
        <time>2021-07-01T14:20:24Z</time>
      </trkpt>
      <trkpt lat="42.68382" lon="1.65009">
        <ele>1516</ele>
        <time>2021-07-01T14:20:27Z</time>
      </trkpt>
      <trkpt lat="42.68385" lon="1.65009">
        <ele>1516</ele>
        <time>2021-07-01T14:20:30Z</time>
      </trkpt>
      <trkpt lat="42.68389" lon="1.65012">
        <ele>1515</ele>
        <time>2021-07-01T14:20:36Z</time>
      </trkpt>
      <trkpt lat="42.68391" lon="1.65018">
        <ele>1516</ele>
        <time>2021-07-01T14:20:42Z</time>
      </trkpt>
      <trkpt lat="42.68397" lon="1.65022">
        <ele>1515</ele>
        <time>2021-07-01T14:20:53Z</time>
      </trkpt>
      <trkpt lat="42.68404" lon="1.65022">
        <ele>1513</ele>
        <time>2021-07-01T14:21:05Z</time>
      </trkpt>
      <trkpt lat="42.68408" lon="1.65025">
        <ele>1513</ele>
        <time>2021-07-01T14:21:11Z</time>
      </trkpt>
      <trkpt lat="42.68409" lon="1.65028">
        <ele>1514</ele>
        <time>2021-07-01T14:21:15Z</time>
      </trkpt>
      <trkpt lat="42.68408" lon="1.65031">
        <ele>1514</ele>
        <time>2021-07-01T14:21:27Z</time>
      </trkpt>
      <trkpt lat="42.68407" lon="1.65034">
        <ele>1515</ele>
        <time>2021-07-01T14:21:30Z</time>
      </trkpt>
      <trkpt lat="42.68404" lon="1.65037">
        <ele>1517</ele>
        <time>2021-07-01T14:21:37Z</time>
      </trkpt>
      <trkpt lat="42.68402" lon="1.65039">
        <ele>1517</ele>
        <time>2021-07-01T14:21:40Z</time>
      </trkpt>
      <trkpt lat="42.68405" lon="1.6505">
        <ele>1517</ele>
        <time>2021-07-01T14:21:51Z</time>
      </trkpt>
      <trkpt lat="42.68403" lon="1.65059">
        <ele>1517</ele>
        <time>2021-07-01T14:21:59Z</time>
      </trkpt>
      <trkpt lat="42.68406" lon="1.65074">
        <ele>1515</ele>
        <time>2021-07-01T14:22:12Z</time>
      </trkpt>
      <trkpt lat="42.68407" lon="1.65077">
        <ele>1516</ele>
        <time>2021-07-01T14:22:15Z</time>
      </trkpt>
      <trkpt lat="42.68407" lon="1.6508">
        <ele>1516</ele>
        <time>2021-07-01T14:22:18Z</time>
      </trkpt>
      <trkpt lat="42.68407" lon="1.65083">
        <ele>1516</ele>
        <time>2021-07-01T14:22:21Z</time>
      </trkpt>
      <trkpt lat="42.68408" lon="1.65094">
        <ele>1515</ele>
        <time>2021-07-01T14:23:10Z</time>
      </trkpt>
      <trkpt lat="42.68407" lon="1.65096">
        <ele>1513</ele>
        <time>2021-07-01T14:23:24Z</time>
      </trkpt>
      <trkpt lat="42.68407" lon="1.651">
        <ele>1513</ele>
        <time>2021-07-01T14:23:30Z</time>
      </trkpt>
      <trkpt lat="42.68407" lon="1.65103">
        <ele>1514</ele>
        <time>2021-07-01T14:23:34Z</time>
      </trkpt>
      <trkpt lat="42.6841" lon="1.65109">
        <ele>1516</ele>
        <time>2021-07-01T14:23:40Z</time>
      </trkpt>
      <trkpt lat="42.68414" lon="1.65115">
        <ele>1518</ele>
        <time>2021-07-01T14:23:48Z</time>
      </trkpt>
      <trkpt lat="42.68419" lon="1.65124">
        <ele>1520</ele>
        <time>2021-07-01T14:23:59Z</time>
      </trkpt>
      <trkpt lat="42.6842" lon="1.65128">
        <ele>1520</ele>
        <time>2021-07-01T14:24:02Z</time>
      </trkpt>
      <trkpt lat="42.68421" lon="1.65132">
        <ele>1519</ele>
        <time>2021-07-01T14:24:05Z</time>
      </trkpt>
      <trkpt lat="42.68422" lon="1.65135">
        <ele>1519</ele>
        <time>2021-07-01T14:24:08Z</time>
      </trkpt>
      <trkpt lat="42.68425" lon="1.65138">
        <ele>1519</ele>
        <time>2021-07-01T14:24:12Z</time>
      </trkpt>
      <trkpt lat="42.68427" lon="1.65139">
        <ele>1518</ele>
        <time>2021-07-01T14:24:15Z</time>
      </trkpt>
      <trkpt lat="42.6843" lon="1.65142">
        <ele>1519</ele>
        <time>2021-07-01T14:24:19Z</time>
      </trkpt>
      <trkpt lat="42.6843" lon="1.65145">
        <ele>1519</ele>
        <time>2021-07-01T14:24:23Z</time>
      </trkpt>
      <trkpt lat="42.68433" lon="1.65147">
        <ele>1518</ele>
        <time>2021-07-01T14:24:28Z</time>
      </trkpt>
      <trkpt lat="42.68436" lon="1.65146">
        <ele>1516</ele>
        <time>2021-07-01T14:24:41Z</time>
      </trkpt>
      <trkpt lat="42.68445" lon="1.65151">
        <ele>1516</ele>
        <time>2021-07-01T14:24:53Z</time>
      </trkpt>
      <trkpt lat="42.68452" lon="1.65148">
        <ele>1516</ele>
        <time>2021-07-01T14:24:59Z</time>
      </trkpt>
      <trkpt lat="42.68462" lon="1.65147">
        <ele>1516</ele>
        <time>2021-07-01T14:25:10Z</time>
      </trkpt>
      <trkpt lat="42.68464" lon="1.6515">
        <ele>1516</ele>
        <time>2021-07-01T14:25:15Z</time>
      </trkpt>
      <trkpt lat="42.68468" lon="1.65148">
        <ele>1516</ele>
        <time>2021-07-01T14:25:20Z</time>
      </trkpt>
      <trkpt lat="42.68465" lon="1.65149">
        <ele>1513</ele>
        <time>2021-07-01T14:26:28Z</time>
      </trkpt>
      <trkpt lat="42.68467" lon="1.65154">
        <ele>1513</ele>
        <time>2021-07-01T14:26:33Z</time>
      </trkpt>
      <trkpt lat="42.68468" lon="1.65157">
        <ele>1516</ele>
        <time>2021-07-01T14:26:36Z</time>
      </trkpt>
      <trkpt lat="42.68472" lon="1.65163">
        <ele>1518</ele>
        <time>2021-07-01T14:26:43Z</time>
      </trkpt>
      <trkpt lat="42.68473" lon="1.65167">
        <ele>1519</ele>
        <time>2021-07-01T14:26:46Z</time>
      </trkpt>
      <trkpt lat="42.68473" lon="1.6517">
        <ele>1520</ele>
        <time>2021-07-01T14:26:49Z</time>
      </trkpt>
      <trkpt lat="42.68474" lon="1.65174">
        <ele>1520</ele>
        <time>2021-07-01T14:26:53Z</time>
      </trkpt>
      <trkpt lat="42.68476" lon="1.65176">
        <ele>1522</ele>
        <time>2021-07-01T14:26:59Z</time>
      </trkpt>
      <trkpt lat="42.68478" lon="1.65175">
        <ele>1522</ele>
        <time>2021-07-01T14:27:02Z</time>
      </trkpt>
      <trkpt lat="42.68481" lon="1.65177">
        <ele>1525</ele>
        <time>2021-07-01T14:27:10Z</time>
      </trkpt>
      <trkpt lat="42.68482" lon="1.6518">
        <ele>1526</ele>
        <time>2021-07-01T14:27:16Z</time>
      </trkpt>
      <trkpt lat="42.68496" lon="1.65174">
        <ele>1527</ele>
        <time>2021-07-01T14:31:16Z</time>
      </trkpt>
      <trkpt lat="42.66852" lon="1.63409">
        <ele>1615.5</ele>
      </trkpt>
      <trkpt lat="42.66756" lon="1.63397">
        <ele>1616.8</ele>
      </trkpt>
      <trkpt lat="42.66738" lon="1.63399">
        <ele>1618.3</ele>
      </trkpt>
      <trkpt lat="42.66726" lon="1.63367">
        <ele>1621.3</ele>
      </trkpt>
      <trkpt lat="42.66697" lon="1.63332">
        <ele>1626.9</ele>
      </trkpt>
      <trkpt lat="42.66663" lon="1.63336">
        <ele>1631.6</ele>
      </trkpt>
      <trkpt lat="42.66652" lon="1.6331">
        <ele>1636.3</ele>
      </trkpt>
      <trkpt lat="42.6663" lon="1.63284">
        <ele>1642.2</ele>
      </trkpt>
      <trkpt lat="42.66603" lon="1.632">
        <ele>1653.3</ele>
      </trkpt>
      <trkpt lat="42.66577" lon="1.63179">
        <ele>1655.7</ele>
      </trkpt>
      <trkpt lat="42.66556" lon="1.63147">
        <ele>1661.9</ele>
      </trkpt>
      <trkpt lat="42.66523" lon="1.63068">
        <ele>1678</ele>
      </trkpt>
      <trkpt lat="42.66491" lon="1.63054">
        <ele>1681.8</ele>
      </trkpt>
      <trkpt lat="42.66479" lon="1.63034">
        <ele>1686.1</ele>
      </trkpt>
      <trkpt lat="42.66475" lon="1.63005">
        <ele>1691.4</ele>
      </trkpt>
      <trkpt lat="42.66454" lon="1.62967">
        <ele>1698</ele>
      </trkpt>
      <trkpt lat="42.66454" lon="1.62887">
        <ele>1713.8</ele>
      </trkpt>
      <trkpt lat="42.66442" lon="1.62822">
        <ele>1725.3</ele>
      </trkpt>
      <trkpt lat="42.6644" lon="1.62758">
        <ele>1738.6</ele>
      </trkpt>
      <trkpt lat="42.66443" lon="1.62734">
        <ele>1743.9</ele>
      </trkpt>
      <trkpt lat="42.66437" lon="1.62702">
        <ele>1746.4</ele>
      </trkpt>
      <trkpt lat="42.66438" lon="1.62653">
        <ele>1754.2</ele>
      </trkpt>
      <trkpt lat="42.66409" lon="1.62583">
        <ele>1756.2</ele>
      </trkpt>
      <trkpt lat="42.66405" lon="1.62535">
        <ele>1762.8</ele>
      </trkpt>
      <trkpt lat="42.66359" lon="1.62496">
        <ele>1759.4</ele>
      </trkpt>
      <trkpt lat="42.66354" lon="1.62486">
        <ele>1759.5</ele>
      </trkpt>
      <trkpt lat="42.66338" lon="1.6248">
        <ele>1757</ele>
      </trkpt>
      <trkpt lat="42.66314" lon="1.62438">
        <ele>1759.5</ele>
      </trkpt>
      <trkpt lat="42.66289" lon="1.62438">
        <ele>1758.8</ele>
      </trkpt>
      <trkpt lat="42.66264" lon="1.62411">
        <ele>1756.4</ele>
      </trkpt>
      <trkpt lat="42.66253" lon="1.62388">
        <ele>1756.3</ele>
      </trkpt>
      <trkpt lat="42.66221" lon="1.62369">
        <ele>1757.7</ele>
      </trkpt>
      <trkpt lat="42.66199" lon="1.62331">
        <ele>1757.4</ele>
      </trkpt>
      <trkpt lat="42.66195" lon="1.62316">
        <ele>1757.3</ele>
      </trkpt>
      <trkpt lat="42.66212" lon="1.62234">
        <ele>1761</ele>
      </trkpt>
      <trkpt lat="42.6623" lon="1.62209">
        <ele>1765.9</ele>
      </trkpt>
      <trkpt lat="42.66236" lon="1.62175">
        <ele>1771.6</ele>
      </trkpt>
      <trkpt lat="42.66228" lon="1.62161">
        <ele>1774.9</ele>
      </trkpt>
      <trkpt lat="42.66195" lon="1.62135">
        <ele>1781.2</ele>
      </trkpt>
      <trkpt lat="42.66182" lon="1.62112">
        <ele>1785.9</ele>
      </trkpt>
      <trkpt lat="42.66165" lon="1.62066">
        <ele>1794.1</ele>
      </trkpt>
      <trkpt lat="42.66156" lon="1.62023">
        <ele>1804.4</ele>
      </trkpt>
      <trkpt lat="42.66146" lon="1.62009">
        <ele>1809.2</ele>
      </trkpt>
      <trkpt lat="42.66136" lon="1.61948">
        <ele>1818</ele>
      </trkpt>
      <trkpt lat="42.66125" lon="1.6191">
        <ele>1821.4</ele>
      </trkpt>
      <trkpt lat="42.66132" lon="1.61856">
        <ele>1830.2</ele>
      </trkpt>
      <trkpt lat="42.66137" lon="1.6185">
        <ele>1832.4</ele>
      </trkpt>
      <trkpt lat="42.66135" lon="1.6183">
        <ele>1835.7</ele>
      </trkpt>
      <trkpt lat="42.66151" lon="1.61821">
        <ele>1843.8</ele>
      </trkpt>
      <trkpt lat="42.66164" lon="1.61782">
        <ele>1862</ele>
      </trkpt>
      <trkpt lat="42.66147" lon="1.6175">
        <ele>1867.2</ele>
      </trkpt>
      <trkpt lat="42.6613" lon="1.61738">
        <ele>1865.3</ele>
      </trkpt>
      <trkpt lat="42.66095" lon="1.61683">
        <ele>1869.8</ele>
      </trkpt>
      <trkpt lat="42.66108" lon="1.6163">
        <ele>1882.4</ele>
      </trkpt>
      <trkpt lat="42.66098" lon="1.61582">
        <ele>1879.9</ele>
      </trkpt>
      <trkpt lat="42.66098" lon="1.61527">
        <ele>1877.4</ele>
      </trkpt>
      <trkpt lat="42.66102" lon="1.61484">
        <ele>1877.2</ele>
      </trkpt>
      <trkpt lat="42.6611" lon="1.61429">
        <ele>1879.5</ele>
      </trkpt>
      <trkpt lat="42.66113" lon="1.61398">
        <ele>1881.2</ele>
      </trkpt>
      <trkpt lat="42.66099" lon="1.61347">
        <ele>1881.2</ele>
      </trkpt>
      <trkpt lat="42.66102" lon="1.61308">
        <ele>1884.2</ele>
      </trkpt>
      <trkpt lat="42.66106" lon="1.61287">
        <ele>1886.6</ele>
      </trkpt>
      <trkpt lat="42.66112" lon="1.61235">
        <ele>1890.9</ele>
      </trkpt>
      <trkpt lat="42.66113" lon="1.61223">
        <ele>1892.1</ele>
      </trkpt>
      <trkpt lat="42.66109" lon="1.61202">
        <ele>1893</ele>
      </trkpt>
      <trkpt lat="42.66116" lon="1.61173">
        <ele>1896.5</ele>
      </trkpt>
      <trkpt lat="42.66147" lon="1.61191">
        <ele>1901.4</ele>
      </trkpt>
      <trkpt lat="42.66172" lon="1.61197">
        <ele>1906</ele>
      </trkpt>
      <trkpt lat="42.66202" lon="1.61194">
        <ele>1913.6</ele>
      </trkpt>
      <trkpt lat="42.66214" lon="1.61189">
        <ele>1916.9</ele>
      </trkpt>
      <trkpt lat="42.66224" lon="1.61174">
        <ele>1919.5</ele>
      </trkpt>
      <trkpt lat="42.66225" lon="1.61153">
        <ele>1922</ele>
      </trkpt>
      <trkpt lat="42.6622" lon="1.61138">
        <ele>1923.4</ele>
      </trkpt>
      <trkpt lat="42.66222" lon="1.61115">
        <ele>1927.1</ele>
      </trkpt>
      <trkpt lat="42.66217" lon="1.611">
        <ele>1929.1</ele>
      </trkpt>
      <trkpt lat="42.66222" lon="1.61074">
        <ele>1933.5</ele>
      </trkpt>
      <trkpt lat="42.66217" lon="1.61028">
        <ele>1941.2</ele>
      </trkpt>
      <trkpt lat="42.66222" lon="1.60982">
        <ele>1948.2</ele>
      </trkpt>
      <trkpt lat="42.66208" lon="1.6093">
        <ele>1956.6</ele>
      </trkpt>
      <trkpt lat="42.66209" lon="1.60873">
        <ele>1963</ele>
      </trkpt>
      <trkpt lat="42.66213" lon="1.6081">
        <ele>1969.3</ele>
      </trkpt>
      <trkpt lat="42.66229" lon="1.60803">
        <ele>1970.1</ele>
      </trkpt>
    </trkseg>
  </trk>
  <trk>
    <name><![CDATA[pic de la Sabine_2]]></name>
    <extensions>
      <line xmlns="http://www.topografix.com/GPX/gpx_style/0/2">
        <color>0000FF</color>
        <width>4</width>
      </line>
    </extensions>
    <trkseg>
      <trkpt lat="42.68496" lon="1.65174">
        <ele>1527</ele>
        <time>2021-07-01T14:31:16Z</time>
      </trkpt>
      <trkpt lat="42.68496" lon="1.65174">
        <ele>1527</ele>
        <time>2021-07-01T14:31:16Z</time>
      </trkpt>
      <trkpt lat="42.68491" lon="1.65174">
        <ele>1527</ele>
        <time>2021-07-01T14:31:21Z</time>
      </trkpt>
      <trkpt lat="42.68489" lon="1.65176">
        <ele>1530</ele>
        <time>2021-07-01T14:32:30Z</time>
      </trkpt>
      <trkpt lat="42.68486" lon="1.65178">
        <ele>1532</ele>
        <time>2021-07-01T14:32:35Z</time>
      </trkpt>
      <trkpt lat="42.68483" lon="1.65185">
        <ele>1534</ele>
        <time>2021-07-01T14:32:48Z</time>
      </trkpt>
      <trkpt lat="42.68483" lon="1.6519">
        <ele>1535</ele>
        <time>2021-07-01T14:33:07Z</time>
      </trkpt>
      <trkpt lat="42.6849" lon="1.65189">
        <ele>1535</ele>
        <time>2021-07-01T14:33:14Z</time>
      </trkpt>
      <trkpt lat="42.68497" lon="1.65188">
        <ele>1533</ele>
        <time>2021-07-01T14:33:20Z</time>
      </trkpt>
      <trkpt lat="42.68501" lon="1.65195">
        <ele>1532</ele>
        <time>2021-07-01T14:33:28Z</time>
      </trkpt>
      <trkpt lat="42.68504" lon="1.65198">
        <ele>1532</ele>
        <time>2021-07-01T14:33:32Z</time>
      </trkpt>
      <trkpt lat="42.68506" lon="1.65202">
        <ele>1534</ele>
        <time>2021-07-01T14:33:36Z</time>
      </trkpt>
      <trkpt lat="42.68508" lon="1.65207">
        <ele>1534</ele>
        <time>2021-07-01T14:33:40Z</time>
      </trkpt>
      <trkpt lat="42.68511" lon="1.65206">
        <ele>1535</ele>
        <time>2021-07-01T14:33:49Z</time>
      </trkpt>
      <trkpt lat="42.68513" lon="1.65209">
        <ele>1535</ele>
        <time>2021-07-01T14:34:11Z</time>
      </trkpt>
      <trkpt lat="42.68513" lon="1.65214">
        <ele>1537</ele>
        <time>2021-07-01T14:34:17Z</time>
      </trkpt>
      <trkpt lat="42.68517" lon="1.65211">
        <ele>1539</ele>
        <time>2021-07-01T14:34:29Z</time>
      </trkpt>
      <trkpt lat="42.68521" lon="1.65211">
        <ele>1539</ele>
        <time>2021-07-01T14:34:35Z</time>
      </trkpt>
      <trkpt lat="42.68524" lon="1.6521">
        <ele>1540</ele>
        <time>2021-07-01T14:34:41Z</time>
      </trkpt>
      <trkpt lat="42.68527" lon="1.65214">
        <ele>1541</ele>
        <time>2021-07-01T14:34:50Z</time>
      </trkpt>
      <trkpt lat="42.68527" lon="1.6522">
        <ele>1544</ele>
        <time>2021-07-01T14:34:58Z</time>
      </trkpt>
      <trkpt lat="42.68529" lon="1.65224">
        <ele>1546</ele>
        <time>2021-07-01T14:35:06Z</time>
      </trkpt>
      <trkpt lat="42.68532" lon="1.65224">
        <ele>1547</ele>
        <time>2021-07-01T14:35:12Z</time>
      </trkpt>
      <trkpt lat="42.68533" lon="1.65229">
        <ele>1550</ele>
        <time>2021-07-01T14:35:30Z</time>
      </trkpt>
      <trkpt lat="42.68536" lon="1.65232">
        <ele>1555</ele>
        <time>2021-07-01T14:35:41Z</time>
      </trkpt>
      <trkpt lat="42.68539" lon="1.65229">
        <ele>1556</ele>
        <time>2021-07-01T14:35:49Z</time>
      </trkpt>
      <trkpt lat="42.68543" lon="1.65229">
        <ele>1556</ele>
        <time>2021-07-01T14:35:53Z</time>
      </trkpt>
      <trkpt lat="42.68547" lon="1.65229">
        <ele>1556</ele>
        <time>2021-07-01T14:36:05Z</time>
      </trkpt>
      <trkpt lat="42.68547" lon="1.65233">
        <ele>1557</ele>
        <time>2021-07-01T14:36:16Z</time>
      </trkpt>
      <trkpt lat="42.68547" lon="1.65237">
        <ele>1558</ele>
        <time>2021-07-01T14:36:30Z</time>
      </trkpt>
      <trkpt lat="42.68545" lon="1.65239">
        <ele>1559</ele>
        <time>2021-07-01T14:36:35Z</time>
      </trkpt>
      <trkpt lat="42.68544" lon="1.65243">
        <ele>1559</ele>
        <time>2021-07-01T14:36:40Z</time>
      </trkpt>
      <trkpt lat="42.68548" lon="1.65243">
        <ele>1561</ele>
        <time>2021-07-01T14:36:57Z</time>
      </trkpt>
      <trkpt lat="42.68556" lon="1.65244">
        <ele>1563</ele>
        <time>2021-07-01T14:37:13Z</time>
      </trkpt>
      <trkpt lat="42.68559" lon="1.65245">
        <ele>1563</ele>
        <time>2021-07-01T14:37:20Z</time>
      </trkpt>
      <trkpt lat="42.68563" lon="1.65248">
        <ele>1563</ele>
        <time>2021-07-01T14:37:28Z</time>
      </trkpt>
      <trkpt lat="42.68568" lon="1.6525">
        <ele>1564</ele>
        <time>2021-07-01T14:37:33Z</time>
      </trkpt>
      <trkpt lat="42.68571" lon="1.65253">
        <ele>1563</ele>
        <time>2021-07-01T14:37:38Z</time>
      </trkpt>
      <trkpt lat="42.68574" lon="1.65254">
        <ele>1564</ele>
        <time>2021-07-01T14:37:43Z</time>
      </trkpt>
      <trkpt lat="42.68578" lon="1.65254">
        <ele>1564</ele>
        <time>2021-07-01T14:37:50Z</time>
      </trkpt>
      <trkpt lat="42.68585" lon="1.65252">
        <ele>1565</ele>
        <time>2021-07-01T14:38:01Z</time>
      </trkpt>
      <trkpt lat="42.68588" lon="1.65254">
        <ele>1565</ele>
        <time>2021-07-01T14:38:07Z</time>
      </trkpt>
      <trkpt lat="42.68591" lon="1.65252">
        <ele>1567</ele>
        <time>2021-07-01T14:38:12Z</time>
      </trkpt>
      <trkpt lat="42.68595" lon="1.65252">
        <ele>1568</ele>
        <time>2021-07-01T14:38:20Z</time>
      </trkpt>
      <trkpt lat="42.68598" lon="1.65252">
        <ele>1568</ele>
        <time>2021-07-01T14:38:24Z</time>
      </trkpt>
      <trkpt lat="42.68601" lon="1.65253">
        <ele>1568</ele>
        <time>2021-07-01T14:38:31Z</time>
      </trkpt>
      <trkpt lat="42.68605" lon="1.65252">
        <ele>1569</ele>
        <time>2021-07-01T14:38:39Z</time>
      </trkpt>
      <trkpt lat="42.6862" lon="1.65254">
        <ele>1568</ele>
        <time>2021-07-01T14:39:01Z</time>
      </trkpt>
      <trkpt lat="42.68624" lon="1.65253">
        <ele>1567</ele>
        <time>2021-07-01T14:39:11Z</time>
      </trkpt>
      <trkpt lat="42.6863" lon="1.65256">
        <ele>1566</ele>
        <time>2021-07-01T14:39:30Z</time>
      </trkpt>
      <trkpt lat="42.68638" lon="1.65254">
        <ele>1567</ele>
        <time>2021-07-01T14:39:41Z</time>
      </trkpt>
      <trkpt lat="42.68642" lon="1.65256">
        <ele>1568</ele>
        <time>2021-07-01T14:39:49Z</time>
      </trkpt>
      <trkpt lat="42.68654" lon="1.65257">
        <ele>1570</ele>
        <time>2021-07-01T14:40:07Z</time>
      </trkpt>
      <trkpt lat="42.68662" lon="1.65254">
        <ele>1570</ele>
        <time>2021-07-01T14:40:20Z</time>
      </trkpt>
      <trkpt lat="42.68667" lon="1.65256">
        <ele>1570</ele>
        <time>2021-07-01T14:40:27Z</time>
      </trkpt>
      <trkpt lat="42.6867" lon="1.65259">
        <ele>1572</ele>
        <time>2021-07-01T14:40:35Z</time>
      </trkpt>
      <trkpt lat="42.68686" lon="1.65255">
        <ele>1571</ele>
        <time>2021-07-01T14:41:00Z</time>
      </trkpt>
      <trkpt lat="42.6869" lon="1.65255">
        <ele>1571</ele>
        <time>2021-07-01T14:41:08Z</time>
      </trkpt>
      <trkpt lat="42.68697" lon="1.65255">
        <ele>1572</ele>
        <time>2021-07-01T14:41:18Z</time>
      </trkpt>
      <trkpt lat="42.68701" lon="1.65255">
        <ele>1572</ele>
        <time>2021-07-01T14:41:23Z</time>
      </trkpt>
      <trkpt lat="42.68705" lon="1.65257">
        <ele>1573</ele>
        <time>2021-07-01T14:41:30Z</time>
      </trkpt>
      <trkpt lat="42.68707" lon="1.65262">
        <ele>1573</ele>
        <time>2021-07-01T14:41:36Z</time>
      </trkpt>
      <trkpt lat="42.68709" lon="1.65265">
        <ele>1575</ele>
        <time>2021-07-01T14:41:43Z</time>
      </trkpt>
      <trkpt lat="42.68713" lon="1.65267">
        <ele>1575</ele>
        <time>2021-07-01T14:41:50Z</time>
      </trkpt>
      <trkpt lat="42.68717" lon="1.65267">
        <ele>1577</ele>
        <time>2021-07-01T14:41:55Z</time>
      </trkpt>
      <trkpt lat="42.68726" lon="1.65261">
        <ele>1576</ele>
        <time>2021-07-01T14:42:11Z</time>
      </trkpt>
      <trkpt lat="42.68731" lon="1.65261">
        <ele>1576</ele>
        <time>2021-07-01T14:42:19Z</time>
      </trkpt>
      <trkpt lat="42.68739" lon="1.65263">
        <ele>1575</ele>
        <time>2021-07-01T14:42:34Z</time>
      </trkpt>
      <trkpt lat="42.68743" lon="1.65262">
        <ele>1575</ele>
        <time>2021-07-01T14:42:38Z</time>
      </trkpt>
      <trkpt lat="42.68746" lon="1.65258">
        <ele>1575</ele>
        <time>2021-07-01T14:42:47Z</time>
      </trkpt>
      <trkpt lat="42.6875" lon="1.65259">
        <ele>1575</ele>
        <time>2021-07-01T14:42:57Z</time>
      </trkpt>
      <trkpt lat="42.68753" lon="1.65261">
        <ele>1576</ele>
        <time>2021-07-01T14:43:03Z</time>
      </trkpt>
      <trkpt lat="42.68756" lon="1.6526">
        <ele>1577</ele>
        <time>2021-07-01T14:43:10Z</time>
      </trkpt>
      <trkpt lat="42.68767" lon="1.65257">
        <ele>1578</ele>
        <time>2021-07-01T14:43:27Z</time>
      </trkpt>
      <trkpt lat="42.68771" lon="1.65258">
        <ele>1578</ele>
        <time>2021-07-01T14:43:37Z</time>
      </trkpt>
      <trkpt lat="42.68779" lon="1.6526">
        <ele>1580</ele>
        <time>2021-07-01T14:43:47Z</time>
      </trkpt>
      <trkpt lat="42.68787" lon="1.65264">
        <ele>1582</ele>
        <time>2021-07-01T14:44:00Z</time>
      </trkpt>
      <trkpt lat="42.68789" lon="1.6526">
        <ele>1583</ele>
        <time>2021-07-01T14:44:09Z</time>
      </trkpt>
      <trkpt lat="42.68792" lon="1.6526">
        <ele>1583</ele>
        <time>2021-07-01T14:44:13Z</time>
      </trkpt>
      <trkpt lat="42.68794" lon="1.65258">
        <ele>1584</ele>
        <time>2021-07-01T14:44:15Z</time>
      </trkpt>
      <trkpt lat="42.68797" lon="1.65256">
        <ele>1584</ele>
        <time>2021-07-01T14:44:19Z</time>
      </trkpt>
      <trkpt lat="42.68803" lon="1.65257">
        <ele>1584</ele>
        <time>2021-07-01T14:44:27Z</time>
      </trkpt>
      <trkpt lat="42.68804" lon="1.65254">
        <ele>1584</ele>
        <time>2021-07-01T14:44:31Z</time>
      </trkpt>
      <trkpt lat="42.68807" lon="1.65254">
        <ele>1584</ele>
        <time>2021-07-01T14:44:37Z</time>
      </trkpt>
      <trkpt lat="42.68812" lon="1.65255">
        <ele>1583</ele>
        <time>2021-07-01T14:44:46Z</time>
      </trkpt>
      <trkpt lat="42.68815" lon="1.65252">
        <ele>1583</ele>
        <time>2021-07-01T14:44:52Z</time>
      </trkpt>
      <trkpt lat="42.68818" lon="1.65251">
        <ele>1584</ele>
        <time>2021-07-01T14:44:56Z</time>
      </trkpt>
      <trkpt lat="42.68824" lon="1.65252">
        <ele>1584</ele>
        <time>2021-07-01T14:45:12Z</time>
      </trkpt>
      <trkpt lat="42.68827" lon="1.65251">
        <ele>1585</ele>
        <time>2021-07-01T14:45:17Z</time>
      </trkpt>
      <trkpt lat="42.6883" lon="1.65251">
        <ele>1585</ele>
        <time>2021-07-01T14:45:56Z</time>
      </trkpt>
      <trkpt lat="42.68833" lon="1.65248">
        <ele>1586</ele>
        <time>2021-07-01T14:46:00Z</time>
      </trkpt>
      <trkpt lat="42.68836" lon="1.6525">
        <ele>1585</ele>
        <time>2021-07-01T14:46:05Z</time>
      </trkpt>
      <trkpt lat="42.68844" lon="1.65252">
        <ele>1585</ele>
        <time>2021-07-01T14:46:16Z</time>
      </trkpt>
      <trkpt lat="42.68848" lon="1.65248">
        <ele>1586</ele>
        <time>2021-07-01T14:46:22Z</time>
      </trkpt>
      <trkpt lat="42.68851" lon="1.65249">
        <ele>1586</ele>
        <time>2021-07-01T14:46:26Z</time>
      </trkpt>
      <trkpt lat="42.68855" lon="1.65248">
        <ele>1588</ele>
        <time>2021-07-01T14:46:32Z</time>
      </trkpt>
      <trkpt lat="42.68862" lon="1.65246">
        <ele>1587</ele>
        <time>2021-07-01T14:46:41Z</time>
      </trkpt>
      <trkpt lat="42.6887" lon="1.6525">
        <ele>1584</ele>
        <time>2021-07-01T14:46:57Z</time>
      </trkpt>
      <trkpt lat="42.68874" lon="1.65251">
        <ele>1584</ele>
        <time>2021-07-01T14:47:05Z</time>
      </trkpt>
      <trkpt lat="42.68878" lon="1.65251">
        <ele>1585</ele>
        <time>2021-07-01T14:47:12Z</time>
      </trkpt>
      <trkpt lat="42.68881" lon="1.65249">
        <ele>1586</ele>
        <time>2021-07-01T14:47:20Z</time>
      </trkpt>
      <trkpt lat="42.68885" lon="1.6525">
        <ele>1587</ele>
        <time>2021-07-01T14:47:29Z</time>
      </trkpt>
      <trkpt lat="42.68887" lon="1.65255">
        <ele>1587</ele>
        <time>2021-07-01T14:47:48Z</time>
      </trkpt>
      <trkpt lat="42.68892" lon="1.65257">
        <ele>1589</ele>
        <time>2021-07-01T14:47:55Z</time>
      </trkpt>
      <trkpt lat="42.68895" lon="1.65254">
        <ele>1590</ele>
        <time>2021-07-01T14:48:03Z</time>
      </trkpt>
      <trkpt lat="42.68898" lon="1.65252">
        <ele>1592</ele>
        <time>2021-07-01T14:48:08Z</time>
      </trkpt>
      <trkpt lat="42.68904" lon="1.65247">
        <ele>1594</ele>
        <time>2021-07-01T14:48:16Z</time>
      </trkpt>
      <trkpt lat="42.68906" lon="1.65243">
        <ele>1595</ele>
        <time>2021-07-01T14:48:20Z</time>
      </trkpt>
      <trkpt lat="42.68909" lon="1.65241">
        <ele>1595</ele>
        <time>2021-07-01T14:48:25Z</time>
      </trkpt>
      <trkpt lat="42.68912" lon="1.65238">
        <ele>1594</ele>
        <time>2021-07-01T14:48:30Z</time>
      </trkpt>
      <trkpt lat="42.68915" lon="1.65236">
        <ele>1594</ele>
        <time>2021-07-01T14:48:34Z</time>
      </trkpt>
      <trkpt lat="42.68918" lon="1.65236">
        <ele>1595</ele>
        <time>2021-07-01T14:48:45Z</time>
      </trkpt>
      <trkpt lat="42.68924" lon="1.65233">
        <ele>1597</ele>
        <time>2021-07-01T14:48:58Z</time>
      </trkpt>
      <trkpt lat="42.68931" lon="1.6523">
        <ele>1598</ele>
        <time>2021-07-01T14:49:11Z</time>
      </trkpt>
      <trkpt lat="42.68938" lon="1.65235">
        <ele>1600</ele>
        <time>2021-07-01T14:49:22Z</time>
      </trkpt>
      <trkpt lat="42.68941" lon="1.65233">
        <ele>1601</ele>
        <time>2021-07-01T14:49:30Z</time>
      </trkpt>
      <trkpt lat="42.68945" lon="1.65232">
        <ele>1603</ele>
        <time>2021-07-01T14:49:37Z</time>
      </trkpt>
      <trkpt lat="42.68948" lon="1.65231">
        <ele>1604</ele>
        <time>2021-07-01T14:49:55Z</time>
      </trkpt>
      <trkpt lat="42.6895" lon="1.65234">
        <ele>1609</ele>
        <time>2021-07-01T14:51:47Z</time>
      </trkpt>
      <trkpt lat="42.68949" lon="1.65237">
        <ele>1608</ele>
        <time>2021-07-01T14:51:50Z</time>
      </trkpt>
      <trkpt lat="42.6895" lon="1.65242">
        <ele>1608</ele>
        <time>2021-07-01T14:52:01Z</time>
      </trkpt>
      <trkpt lat="42.68953" lon="1.65244">
        <ele>1608</ele>
        <time>2021-07-01T14:52:06Z</time>
      </trkpt>
      <trkpt lat="42.6896" lon="1.65245">
        <ele>1608</ele>
        <time>2021-07-01T14:52:18Z</time>
      </trkpt>
      <trkpt lat="42.68964" lon="1.65247">
        <ele>1608</ele>
        <time>2021-07-01T14:52:32Z</time>
      </trkpt>
      <trkpt lat="42.68968" lon="1.6525">
        <ele>1609</ele>
        <time>2021-07-01T14:52:40Z</time>
      </trkpt>
      <trkpt lat="42.68972" lon="1.65249">
        <ele>1611</ele>
        <time>2021-07-01T14:52:47Z</time>
      </trkpt>
      <trkpt lat="42.68977" lon="1.65253">
        <ele>1612</ele>
        <time>2021-07-01T14:53:04Z</time>
      </trkpt>
      <trkpt lat="42.6898" lon="1.65253">
        <ele>1612</ele>
        <time>2021-07-01T14:53:13Z</time>
      </trkpt>
      <trkpt lat="42.68984" lon="1.65258">
        <ele>1612</ele>
        <time>2021-07-01T14:53:20Z</time>
      </trkpt>
      <trkpt lat="42.68995" lon="1.65266">
        <ele>1612</ele>
        <time>2021-07-01T14:53:39Z</time>
      </trkpt>
      <trkpt lat="42.68998" lon="1.65269">
        <ele>1613</ele>
        <time>2021-07-01T14:53:45Z</time>
      </trkpt>
      <trkpt lat="42.69002" lon="1.65268">
        <ele>1615</ele>
        <time>2021-07-01T14:53:52Z</time>
      </trkpt>
      <trkpt lat="42.69008" lon="1.65271">
        <ele>1617</ele>
        <time>2021-07-01T14:54:04Z</time>
      </trkpt>
      <trkpt lat="42.69012" lon="1.65272">
        <ele>1618</ele>
        <time>2021-07-01T14:54:09Z</time>
      </trkpt>
      <trkpt lat="42.69019" lon="1.65277">
        <ele>1618</ele>
        <time>2021-07-01T14:54:18Z</time>
      </trkpt>
      <trkpt lat="42.69023" lon="1.65275">
        <ele>1618</ele>
        <time>2021-07-01T14:54:23Z</time>
      </trkpt>
      <trkpt lat="42.69026" lon="1.65278">
        <ele>1618</ele>
        <time>2021-07-01T14:54:32Z</time>
      </trkpt>
      <trkpt lat="42.6903" lon="1.6528">
        <ele>1617</ele>
        <time>2021-07-01T14:54:36Z</time>
      </trkpt>
      <trkpt lat="42.69033" lon="1.65284">
        <ele>1616</ele>
        <time>2021-07-01T14:54:41Z</time>
      </trkpt>
      <trkpt lat="42.69037" lon="1.65286">
        <ele>1615</ele>
        <time>2021-07-01T14:54:49Z</time>
      </trkpt>
      <trkpt lat="42.69041" lon="1.65289">
        <ele>1614</ele>
        <time>2021-07-01T14:54:55Z</time>
      </trkpt>
      <trkpt lat="42.69046" lon="1.65288">
        <ele>1613</ele>
        <time>2021-07-01T14:55:04Z</time>
      </trkpt>
      <trkpt lat="42.69051" lon="1.6529">
        <ele>1612</ele>
        <time>2021-07-01T14:55:11Z</time>
      </trkpt>
      <trkpt lat="42.69054" lon="1.65295">
        <ele>1613</ele>
        <time>2021-07-01T14:55:14Z</time>
      </trkpt>
      <trkpt lat="42.69058" lon="1.65299">
        <ele>1614</ele>
        <time>2021-07-01T14:55:19Z</time>
      </trkpt>
      <trkpt lat="42.69062" lon="1.653">
        <ele>1614</ele>
        <time>2021-07-01T14:55:25Z</time>
      </trkpt>
      <trkpt lat="42.69066" lon="1.65303">
        <ele>1613</ele>
        <time>2021-07-01T14:55:36Z</time>
      </trkpt>
      <trkpt lat="42.69074" lon="1.65301">
        <ele>1615</ele>
        <time>2021-07-01T14:55:47Z</time>
      </trkpt>
      <trkpt lat="42.69085" lon="1.65309">
        <ele>1612</ele>
        <time>2021-07-01T14:56:04Z</time>
      </trkpt>
      <trkpt lat="42.69091" lon="1.65319">
        <ele>1611</ele>
        <time>2021-07-01T14:56:15Z</time>
      </trkpt>
      <trkpt lat="42.69095" lon="1.65321">
        <ele>1612</ele>
        <time>2021-07-01T14:56:22Z</time>
      </trkpt>
      <trkpt lat="42.69102" lon="1.65323">
        <ele>1613</ele>
        <time>2021-07-01T14:56:35Z</time>
      </trkpt>
      <trkpt lat="42.69108" lon="1.65331">
        <ele>1616</ele>
        <time>2021-07-01T14:56:46Z</time>
      </trkpt>
      <trkpt lat="42.69116" lon="1.65332">
        <ele>1616</ele>
        <time>2021-07-01T14:57:00Z</time>
      </trkpt>
      <trkpt lat="42.69119" lon="1.65336">
        <ele>1616</ele>
        <time>2021-07-01T14:57:04Z</time>
      </trkpt>
      <trkpt lat="42.69123" lon="1.65339">
        <ele>1616</ele>
        <time>2021-07-01T14:57:11Z</time>
      </trkpt>
      <trkpt lat="42.69126" lon="1.65342">
        <ele>1616</ele>
        <time>2021-07-01T14:57:18Z</time>
      </trkpt>
      <trkpt lat="42.6913" lon="1.65346">
        <ele>1616</ele>
        <time>2021-07-01T14:57:25Z</time>
      </trkpt>
      <trkpt lat="42.69134" lon="1.65348">
        <ele>1616</ele>
        <time>2021-07-01T14:57:33Z</time>
      </trkpt>
      <trkpt lat="42.69138" lon="1.65351">
        <ele>1617</ele>
        <time>2021-07-01T14:57:39Z</time>
      </trkpt>
      <trkpt lat="42.69142" lon="1.65353">
        <ele>1617</ele>
        <time>2021-07-01T14:57:44Z</time>
      </trkpt>
      <trkpt lat="42.69144" lon="1.65358">
        <ele>1617</ele>
        <time>2021-07-01T14:57:51Z</time>
      </trkpt>
      <trkpt lat="42.69165" lon="1.65374">
        <ele>1615</ele>
        <time>2021-07-01T14:58:24Z</time>
      </trkpt>
      <trkpt lat="42.69166" lon="1.65381">
        <ele>1616</ele>
        <time>2021-07-01T14:58:30Z</time>
      </trkpt>
      <trkpt lat="42.69167" lon="1.65387">
        <ele>1615</ele>
        <time>2021-07-01T14:58:36Z</time>
      </trkpt>
      <trkpt lat="42.69165" lon="1.65394">
        <ele>1614</ele>
        <time>2021-07-01T14:58:44Z</time>
      </trkpt>
      <trkpt lat="42.69169" lon="1.65398">
        <ele>1613</ele>
        <time>2021-07-01T14:58:51Z</time>
      </trkpt>
      <trkpt lat="42.69171" lon="1.65403">
        <ele>1612</ele>
        <time>2021-07-01T14:58:57Z</time>
      </trkpt>
      <trkpt lat="42.6918" lon="1.65405">
        <ele>1614</ele>
        <time>2021-07-01T14:59:13Z</time>
      </trkpt>
      <trkpt lat="42.69184" lon="1.65408">
        <ele>1613</ele>
        <time>2021-07-01T14:59:18Z</time>
      </trkpt>
      <trkpt lat="42.69189" lon="1.65417">
        <ele>1612</ele>
        <time>2021-07-01T14:59:28Z</time>
      </trkpt>
      <trkpt lat="42.69193" lon="1.65422">
        <ele>1612</ele>
        <time>2021-07-01T14:59:36Z</time>
      </trkpt>
      <trkpt lat="42.69196" lon="1.65427">
        <ele>1614</ele>
        <time>2021-07-01T14:59:51Z</time>
      </trkpt>
      <trkpt lat="42.69202" lon="1.65435">
        <ele>1616</ele>
        <time>2021-07-01T15:00:04Z</time>
      </trkpt>
      <trkpt lat="42.69207" lon="1.65444">
        <ele>1616</ele>
        <time>2021-07-01T15:00:14Z</time>
      </trkpt>
      <trkpt lat="42.69211" lon="1.65446">
        <ele>1616</ele>
        <time>2021-07-01T15:00:20Z</time>
      </trkpt>
      <trkpt lat="42.69214" lon="1.65451">
        <ele>1616</ele>
        <time>2021-07-01T15:00:35Z</time>
      </trkpt>
      <trkpt lat="42.69218" lon="1.65454">
        <ele>1616</ele>
        <time>2021-07-01T15:00:45Z</time>
      </trkpt>
      <trkpt lat="42.69219" lon="1.65462">
        <ele>1620</ele>
        <time>2021-07-01T15:01:02Z</time>
      </trkpt>
      <trkpt lat="42.69224" lon="1.65466">
        <ele>1620</ele>
        <time>2021-07-01T15:01:09Z</time>
      </trkpt>
      <trkpt lat="42.6923" lon="1.65472">
        <ele>1621</ele>
        <time>2021-07-01T15:01:38Z</time>
      </trkpt>
      <trkpt lat="42.6923" lon="1.65478">
        <ele>1622</ele>
        <time>2021-07-01T15:02:06Z</time>
      </trkpt>
      <trkpt lat="42.69234" lon="1.65492">
        <ele>1625</ele>
        <time>2021-07-01T15:02:33Z</time>
      </trkpt>
      <trkpt lat="42.6924" lon="1.65494">
        <ele>1626</ele>
        <time>2021-07-01T15:02:40Z</time>
      </trkpt>
      <trkpt lat="42.69243" lon="1.65497">
        <ele>1627</ele>
        <time>2021-07-01T15:02:48Z</time>
      </trkpt>
      <trkpt lat="42.69247" lon="1.655">
        <ele>1628</ele>
        <time>2021-07-01T15:03:03Z</time>
      </trkpt>
      <trkpt lat="42.69249" lon="1.65502">
        <ele>1630</ele>
        <time>2021-07-01T15:03:10Z</time>
      </trkpt>
      <trkpt lat="42.69253" lon="1.65502">
        <ele>1631</ele>
        <time>2021-07-01T15:03:13Z</time>
      </trkpt>
      <trkpt lat="42.69262" lon="1.65511">
        <ele>1632</ele>
        <time>2021-07-01T15:03:27Z</time>
      </trkpt>
      <trkpt lat="42.69265" lon="1.65514">
        <ele>1633</ele>
        <time>2021-07-01T15:03:38Z</time>
      </trkpt>
      <trkpt lat="42.69271" lon="1.6552">
        <ele>1633</ele>
        <time>2021-07-01T15:03:54Z</time>
      </trkpt>
      <trkpt lat="42.69279" lon="1.65528">
        <ele>1632</ele>
        <time>2021-07-01T15:04:12Z</time>
      </trkpt>
      <trkpt lat="42.69281" lon="1.65533">
        <ele>1632</ele>
        <time>2021-07-01T15:04:16Z</time>
      </trkpt>
      <trkpt lat="42.69284" lon="1.65539">
        <ele>1632</ele>
        <time>2021-07-01T15:04:27Z</time>
      </trkpt>
      <trkpt lat="42.69289" lon="1.65545">
        <ele>1632</ele>
        <time>2021-07-01T15:04:40Z</time>
      </trkpt>
      <trkpt lat="42.69295" lon="1.65555">
        <ele>1634</ele>
        <time>2021-07-01T15:05:04Z</time>
      </trkpt>
      <trkpt lat="42.69298" lon="1.6556">
        <ele>1635</ele>
        <time>2021-07-01T15:05:18Z</time>
      </trkpt>
      <trkpt lat="42.69301" lon="1.65565">
        <ele>1635</ele>
        <time>2021-07-01T15:05:27Z</time>
      </trkpt>
      <trkpt lat="42.69306" lon="1.65566">
        <ele>1636</ele>
        <time>2021-07-01T15:05:33Z</time>
      </trkpt>
      <trkpt lat="42.69318" lon="1.65577">
        <ele>1638</ele>
        <time>2021-07-01T15:06:08Z</time>
      </trkpt>
      <trkpt lat="42.69323" lon="1.65576">
        <ele>1638</ele>
        <time>2021-07-01T15:06:18Z</time>
      </trkpt>
      <trkpt lat="42.69327" lon="1.65577">
        <ele>1640</ele>
        <time>2021-07-01T15:06:27Z</time>
      </trkpt>
      <trkpt lat="42.6933" lon="1.65581">
        <ele>1640</ele>
        <time>2021-07-01T15:06:34Z</time>
      </trkpt>
      <trkpt lat="42.69341" lon="1.65589">
        <ele>1643</ele>
        <time>2021-07-01T15:06:53Z</time>
      </trkpt>
      <trkpt lat="42.69345" lon="1.65593">
        <ele>1641</ele>
        <time>2021-07-01T15:07:05Z</time>
      </trkpt>
      <trkpt lat="42.69351" lon="1.65601">
        <ele>1641</ele>
        <time>2021-07-01T15:07:16Z</time>
      </trkpt>
      <trkpt lat="42.69354" lon="1.65603">
        <ele>1641</ele>
        <time>2021-07-01T15:07:23Z</time>
      </trkpt>
      <trkpt lat="42.69357" lon="1.65606">
        <ele>1641</ele>
        <time>2021-07-01T15:07:27Z</time>
      </trkpt>
      <trkpt lat="42.69362" lon="1.65622">
        <ele>1640</ele>
        <time>2021-07-01T15:07:50Z</time>
      </trkpt>
      <trkpt lat="42.69366" lon="1.65624">
        <ele>1641</ele>
        <time>2021-07-01T15:07:58Z</time>
      </trkpt>
      <trkpt lat="42.69374" lon="1.65632">
        <ele>1640</ele>
        <time>2021-07-01T15:08:11Z</time>
      </trkpt>
      <trkpt lat="42.69379" lon="1.65632">
        <ele>1640</ele>
        <time>2021-07-01T15:08:18Z</time>
      </trkpt>
      <trkpt lat="42.69382" lon="1.65633">
        <ele>1641</ele>
        <time>2021-07-01T15:08:51Z</time>
      </trkpt>
      <trkpt lat="42.69395" lon="1.65643">
        <ele>1639</ele>
        <time>2021-07-01T15:09:15Z</time>
      </trkpt>
      <trkpt lat="42.69403" lon="1.65651">
        <ele>1639</ele>
        <time>2021-07-01T15:09:28Z</time>
      </trkpt>
      <trkpt lat="42.69403" lon="1.65658">
        <ele>1639</ele>
        <time>2021-07-01T15:09:41Z</time>
      </trkpt>
      <trkpt lat="42.69414" lon="1.65667">
        <ele>1640</ele>
        <time>2021-07-01T15:10:03Z</time>
      </trkpt>
      <trkpt lat="42.69418" lon="1.65671">
        <ele>1640</ele>
        <time>2021-07-01T15:10:08Z</time>
      </trkpt>
      <trkpt lat="42.69422" lon="1.65671">
        <ele>1640</ele>
        <time>2021-07-01T15:10:12Z</time>
      </trkpt>
      <trkpt lat="42.69434" lon="1.65675">
        <ele>1641</ele>
        <time>2021-07-01T15:10:31Z</time>
      </trkpt>
      <trkpt lat="42.69437" lon="1.65678">
        <ele>1641</ele>
        <time>2021-07-01T15:10:38Z</time>
      </trkpt>
      <trkpt lat="42.69441" lon="1.65682">
        <ele>1639</ele>
        <time>2021-07-01T15:10:43Z</time>
      </trkpt>
      <trkpt lat="42.69443" lon="1.65686">
        <ele>1638</ele>
        <time>2021-07-01T15:10:49Z</time>
      </trkpt>
      <trkpt lat="42.69446" lon="1.65689">
        <ele>1637</ele>
        <time>2021-07-01T15:10:52Z</time>
      </trkpt>
      <trkpt lat="42.69449" lon="1.65693">
        <ele>1635</ele>
        <time>2021-07-01T15:10:56Z</time>
      </trkpt>
      <trkpt lat="42.69452" lon="1.65694">
        <ele>1633</ele>
        <time>2021-07-01T15:11:04Z</time>
      </trkpt>
      <trkpt lat="42.69462" lon="1.65697">
        <ele>1629</ele>
        <time>2021-07-01T15:11:25Z</time>
      </trkpt>
      <trkpt lat="42.69466" lon="1.65699">
        <ele>1627</ele>
        <time>2021-07-01T15:11:30Z</time>
      </trkpt>
      <trkpt lat="42.69467" lon="1.65703">
        <ele>1627</ele>
        <time>2021-07-01T15:11:41Z</time>
      </trkpt>
      <trkpt lat="42.6947" lon="1.65706">
        <ele>1625</ele>
        <time>2021-07-01T15:11:45Z</time>
      </trkpt>
      <trkpt lat="42.69471" lon="1.65709">
        <ele>1625</ele>
        <time>2021-07-01T15:11:50Z</time>
      </trkpt>
      <trkpt lat="42.69472" lon="1.65713">
        <ele>1623</ele>
        <time>2021-07-01T15:11:55Z</time>
      </trkpt>
      <trkpt lat="42.69473" lon="1.65717">
        <ele>1622</ele>
        <time>2021-07-01T15:12:00Z</time>
      </trkpt>
      <trkpt lat="42.69475" lon="1.65726">
        <ele>1617</ele>
        <time>2021-07-01T15:12:15Z</time>
      </trkpt>
      <trkpt lat="42.69477" lon="1.6573">
        <ele>1615</ele>
        <time>2021-07-01T15:12:23Z</time>
      </trkpt>
      <trkpt lat="42.69477" lon="1.65734">
        <ele>1613</ele>
        <time>2021-07-01T15:12:29Z</time>
      </trkpt>
      <trkpt lat="42.69475" lon="1.65737">
        <ele>1612</ele>
        <time>2021-07-01T15:12:35Z</time>
      </trkpt>
      <trkpt lat="42.69475" lon="1.65742">
        <ele>1610</ele>
        <time>2021-07-01T15:12:40Z</time>
      </trkpt>
      <trkpt lat="42.69474" lon="1.65747">
        <ele>1610</ele>
        <time>2021-07-01T15:12:48Z</time>
      </trkpt>
      <trkpt lat="42.69473" lon="1.65752">
        <ele>1607</ele>
        <time>2021-07-01T15:13:03Z</time>
      </trkpt>
      <trkpt lat="42.69472" lon="1.65758">
        <ele>1606</ele>
        <time>2021-07-01T15:13:16Z</time>
      </trkpt>
      <trkpt lat="42.6947" lon="1.65762">
        <ele>1602</ele>
        <time>2021-07-01T15:13:23Z</time>
      </trkpt>
      <trkpt lat="42.69468" lon="1.65768">
        <ele>1601</ele>
        <time>2021-07-01T15:13:27Z</time>
      </trkpt>
      <trkpt lat="42.69467" lon="1.65781">
        <ele>1597</ele>
        <time>2021-07-01T15:13:48Z</time>
      </trkpt>
      <trkpt lat="42.69466" lon="1.65786">
        <ele>1597</ele>
        <time>2021-07-01T15:13:59Z</time>
      </trkpt>
      <trkpt lat="42.69464" lon="1.65792">
        <ele>1596</ele>
        <time>2021-07-01T15:14:09Z</time>
      </trkpt>
      <trkpt lat="42.69465" lon="1.65798">
        <ele>1594</ele>
        <time>2021-07-01T15:14:19Z</time>
      </trkpt>
      <trkpt lat="42.69462" lon="1.65803">
        <ele>1593</ele>
        <time>2021-07-01T15:14:26Z</time>
      </trkpt>
      <trkpt lat="42.69466" lon="1.65807">
        <ele>1589</ele>
        <time>2021-07-01T15:14:43Z</time>
      </trkpt>
      <trkpt lat="42.69465" lon="1.65813">
        <ele>1587</ele>
        <time>2021-07-01T15:14:56Z</time>
      </trkpt>
      <trkpt lat="42.69465" lon="1.65818">
        <ele>1587</ele>
        <time>2021-07-01T15:15:03Z</time>
      </trkpt>
      <trkpt lat="42.69466" lon="1.65823">
        <ele>1586</ele>
        <time>2021-07-01T15:15:07Z</time>
      </trkpt>
      <trkpt lat="42.69468" lon="1.65828">
        <ele>1585</ele>
        <time>2021-07-01T15:15:13Z</time>
      </trkpt>
      <trkpt lat="42.69469" lon="1.65834">
        <ele>1585</ele>
        <time>2021-07-01T15:15:19Z</time>
      </trkpt>
      <trkpt lat="42.69469" lon="1.65839">
        <ele>1585</ele>
        <time>2021-07-01T15:15:26Z</time>
      </trkpt>
      <trkpt lat="42.69472" lon="1.65844">
        <ele>1585</ele>
        <time>2021-07-01T15:15:37Z</time>
      </trkpt>
      <trkpt lat="42.69474" lon="1.65848">
        <ele>1584</ele>
        <time>2021-07-01T15:15:44Z</time>
      </trkpt>
      <trkpt lat="42.69476" lon="1.65855">
        <ele>1582</ele>
        <time>2021-07-01T15:15:57Z</time>
      </trkpt>
      <trkpt lat="42.69478" lon="1.65861">
        <ele>1583</ele>
        <time>2021-07-01T15:16:05Z</time>
      </trkpt>
      <trkpt lat="42.69478" lon="1.65867">
        <ele>1583</ele>
        <time>2021-07-01T15:16:14Z</time>
      </trkpt>
      <trkpt lat="42.69479" lon="1.65873">
        <ele>1582</ele>
        <time>2021-07-01T15:16:25Z</time>
      </trkpt>
      <trkpt lat="42.69478" lon="1.6588">
        <ele>1580</ele>
        <time>2021-07-01T15:16:53Z</time>
      </trkpt>
      <trkpt lat="42.69477" lon="1.65885">
        <ele>1581</ele>
        <time>2021-07-01T15:17:00Z</time>
      </trkpt>
      <trkpt lat="42.69477" lon="1.65889">
        <ele>1580</ele>
        <time>2021-07-01T15:18:17Z</time>
      </trkpt>
      <trkpt lat="42.6948" lon="1.65889">
        <ele>1580</ele>
        <time>2021-07-01T15:18:23Z</time>
      </trkpt>
      <trkpt lat="42.69486" lon="1.65895">
        <ele>1579</ele>
        <time>2021-07-01T15:18:33Z</time>
      </trkpt>
      <trkpt lat="42.69492" lon="1.65903">
        <ele>1577</ele>
        <time>2021-07-01T15:18:43Z</time>
      </trkpt>
      <trkpt lat="42.69493" lon="1.65908">
        <ele>1576</ele>
        <time>2021-07-01T15:18:49Z</time>
      </trkpt>
      <trkpt lat="42.69496" lon="1.65912">
        <ele>1575</ele>
        <time>2021-07-01T15:18:58Z</time>
      </trkpt>
      <trkpt lat="42.69499" lon="1.65916">
        <ele>1573</ele>
        <time>2021-07-01T15:19:04Z</time>
      </trkpt>
      <trkpt lat="42.69503" lon="1.65918">
        <ele>1571</ele>
        <time>2021-07-01T15:19:13Z</time>
      </trkpt>
      <trkpt lat="42.69507" lon="1.65919">
        <ele>1569</ele>
        <time>2021-07-01T15:19:21Z</time>
      </trkpt>
      <trkpt lat="42.6951" lon="1.65917">
        <ele>1569</ele>
        <time>2021-07-01T15:19:28Z</time>
      </trkpt>
      <trkpt lat="42.69512" lon="1.65922">
        <ele>1567</ele>
        <time>2021-07-01T15:19:32Z</time>
      </trkpt>
      <trkpt lat="42.69513" lon="1.65927">
        <ele>1566</ele>
        <time>2021-07-01T15:19:41Z</time>
      </trkpt>
      <trkpt lat="42.69519" lon="1.65926">
        <ele>1565</ele>
        <time>2021-07-01T15:19:48Z</time>
      </trkpt>
      <trkpt lat="42.69522" lon="1.65929">
        <ele>1564</ele>
        <time>2021-07-01T15:19:55Z</time>
      </trkpt>
      <trkpt lat="42.69527" lon="1.65928">
        <ele>1563</ele>
        <time>2021-07-01T15:19:59Z</time>
      </trkpt>
      <trkpt lat="42.69529" lon="1.65933">
        <ele>1562</ele>
        <time>2021-07-01T15:20:06Z</time>
      </trkpt>
      <trkpt lat="42.69531" lon="1.65938">
        <ele>1561</ele>
        <time>2021-07-01T15:20:13Z</time>
      </trkpt>
      <trkpt lat="42.69534" lon="1.65941">
        <ele>1557</ele>
        <time>2021-07-01T15:20:19Z</time>
      </trkpt>
      <trkpt lat="42.69536" lon="1.65944">
        <ele>1557</ele>
        <time>2021-07-01T15:20:29Z</time>
      </trkpt>
      <trkpt lat="42.69539" lon="1.65949">
        <ele>1556</ele>
        <time>2021-07-01T15:20:33Z</time>
      </trkpt>
      <trkpt lat="42.69541" lon="1.65952">
        <ele>1555</ele>
        <time>2021-07-01T15:20:37Z</time>
      </trkpt>
      <trkpt lat="42.69542" lon="1.65957">
        <ele>1554</ele>
        <time>2021-07-01T15:20:41Z</time>
      </trkpt>
      <trkpt lat="42.69544" lon="1.65962">
        <ele>1553</ele>
        <time>2021-07-01T15:20:46Z</time>
      </trkpt>
      <trkpt lat="42.69545" lon="1.65968">
        <ele>1552</ele>
        <time>2021-07-01T15:20:51Z</time>
      </trkpt>
    </trkseg>
  </trk>
</gpx>